<?xml version="1.0" encoding="UTF-8" standalone="no" ?>
<gpx xmlns="http://www.topografix.com/GPX/1/1" xmlns:xsi="http://www.w3.org/2001/XMLSchema-instance" xsi:schemaLocation="http://www.topografix.com/GPX/1/1 http://www.topografix.com/GPX/1/1/gpx.xsd" version="1.1" creator="VisuGPX - https://www.visugpx.com">
  <metadata>
    <name>11 2021 vtt gruissan 51km 1500d+</name>
    <desc><![CDATA[Départ parking de la stèle proximité village de Gruissan.
Les singles de la Clape sud.]]></desc>
  </metadata>
  <trk>
    <name><![CDATA[vtt gruissan 51km 1500d+]]></name>
    <extensions>
      <line xmlns="http://www.topografix.com/GPX/gpx_style/0/2">
        <color>0000FF</color>
        <width>4</width>
      </line>
    </extensions>
    <trkseg>
      <trkpt lat="43.12755" lon="3.0977">
        <ele>33.419654846191</ele>
        <time>2021-01-03T17:58:11.000Z</time>
      </trkpt>
      <trkpt lat="43.12734" lon="3.09752">
        <ele>33.522026062012</ele>
        <time>2021-01-03T17:58:11.005Z</time>
      </trkpt>
      <trkpt lat="43.12714" lon="3.0974">
        <ele>33.947677612305</ele>
        <time>2021-01-03T17:58:11.014Z</time>
      </trkpt>
      <trkpt lat="43.12697" lon="3.09712">
        <ele>36.477127075195</ele>
        <time>2021-01-03T17:58:11.029Z</time>
      </trkpt>
      <trkpt lat="43.12687" lon="3.09645">
        <ele>39</ele>
        <time>2021-01-03T17:58:11.054Z</time>
      </trkpt>
      <trkpt lat="43.12675" lon="3.09639">
        <ele>39</ele>
        <time>2021-01-03T17:58:11.081Z</time>
      </trkpt>
      <trkpt lat="43.12658" lon="3.09657">
        <ele>38.958591461182</ele>
        <time>2021-01-03T17:58:11.113Z</time>
      </trkpt>
      <trkpt lat="43.12641" lon="3.09667">
        <ele>39.566989898682</ele>
        <time>2021-01-03T17:58:11.148Z</time>
      </trkpt>
      <trkpt lat="43.12626" lon="3.0968">
        <ele>39.825275421143</ele>
        <time>2021-01-03T17:58:11.187Z</time>
      </trkpt>
      <trkpt lat="43.12614" lon="3.09669">
        <ele>38.99927520752</ele>
        <time>2021-01-03T17:58:11.229Z</time>
      </trkpt>
      <trkpt lat="43.12607" lon="3.09645">
        <ele>37.315361022949</ele>
        <time>2021-01-03T17:58:11.275Z</time>
      </trkpt>
      <trkpt lat="43.12592" lon="3.09638">
        <ele>35.165195465088</ele>
        <time>2021-01-03T17:58:11.324Z</time>
      </trkpt>
      <trkpt lat="43.12567" lon="3.0965">
        <ele>34.067363739014</ele>
        <time>2021-01-03T17:58:11.378Z</time>
      </trkpt>
      <trkpt lat="43.12561" lon="3.09654">
        <ele>33.956348419189</ele>
        <time>2021-01-03T17:58:11.433Z</time>
      </trkpt>
      <trkpt lat="43.12556" lon="3.0966">
        <ele>34.075950622559</ele>
        <time>2021-01-03T17:58:11.490Z</time>
      </trkpt>
      <trkpt lat="43.12554" lon="3.09666">
        <ele>34.415019989014</ele>
        <time>2021-01-03T17:58:11.548Z</time>
      </trkpt>
      <trkpt lat="43.12551" lon="3.09694">
        <ele>36.373264312744</ele>
        <time>2021-01-03T17:58:11.610Z</time>
      </trkpt>
      <trkpt lat="43.12545" lon="3.09722">
        <ele>36.6061668396</ele>
        <time>2021-01-03T17:58:11.676Z</time>
      </trkpt>
      <trkpt lat="43.12547" lon="3.0974">
        <ele>36.216415405273</ele>
        <time>2021-01-03T17:58:11.745Z</time>
      </trkpt>
      <trkpt lat="43.12543" lon="3.09819">
        <ele>34.798316955566</ele>
        <time>2021-01-03T17:58:11.825Z</time>
      </trkpt>
      <trkpt lat="43.12534" lon="3.09903">
        <ele>26.97011756897</ele>
        <time>2021-01-03T17:58:11.918Z</time>
      </trkpt>
      <trkpt lat="43.12535" lon="3.09909">
        <ele>26.934108734131</ele>
        <time>2021-01-03T17:58:12.012Z</time>
      </trkpt>
      <trkpt lat="43.12546" lon="3.09929">
        <ele>28.054492950439</ele>
        <time>2021-01-03T17:58:12.109Z</time>
      </trkpt>
      <trkpt lat="43.12543" lon="3.09948">
        <ele>27.795663833618</ele>
        <time>2021-01-03T17:58:12.209Z</time>
      </trkpt>
      <trkpt lat="43.12546" lon="3.09975">
        <ele>28.135402679443</ele>
        <time>2021-01-03T17:58:12.313Z</time>
      </trkpt>
      <trkpt lat="43.12537" lon="3.10018">
        <ele>26.825895309448</ele>
        <time>2021-01-03T17:58:12.424Z</time>
      </trkpt>
      <trkpt lat="43.12517" lon="3.10059">
        <ele>24.432807922363</ele>
        <time>2021-01-03T17:58:12.542Z</time>
      </trkpt>
      <trkpt lat="43.1251" lon="3.10079">
        <ele>23.930280685425</ele>
        <time>2021-01-03T17:58:12.663Z</time>
      </trkpt>
      <trkpt lat="43.12505" lon="3.10086">
        <ele>23.309453964233</ele>
        <time>2021-01-03T17:58:12.786Z</time>
      </trkpt>
      <trkpt lat="43.12503" lon="3.10096">
        <ele>22.800214767456</ele>
        <time>2021-01-03T17:58:12.910Z</time>
      </trkpt>
      <trkpt lat="43.12503" lon="3.10135">
        <ele>22.944036483765</ele>
        <time>2021-01-03T17:58:13.040Z</time>
      </trkpt>
      <trkpt lat="43.12507" lon="3.1015">
        <ele>23.671415328979</ele>
        <time>2021-01-03T17:58:13.172Z</time>
      </trkpt>
      <trkpt lat="43.12505" lon="3.10176">
        <ele>24.422260284424</ele>
        <time>2021-01-03T17:58:13.308Z</time>
      </trkpt>
      <trkpt lat="43.12508" lon="3.10195">
        <ele>25.386077880859</ele>
        <time>2021-01-03T17:58:13.447Z</time>
      </trkpt>
      <trkpt lat="43.12506" lon="3.10211">
        <ele>26.173828125</ele>
        <time>2021-01-03T17:58:13.588Z</time>
      </trkpt>
      <trkpt lat="43.12507" lon="3.10238">
        <ele>25.621757507324</ele>
        <time>2021-01-03T17:58:13.733Z</time>
      </trkpt>
      <trkpt lat="43.12504" lon="3.10268">
        <ele>24.50531578064</ele>
        <time>2021-01-03T17:58:13.883Z</time>
      </trkpt>
      <trkpt lat="43.12507" lon="3.10275">
        <ele>24.621757507324</ele>
        <time>2021-01-03T17:58:14.034Z</time>
      </trkpt>
      <trkpt lat="43.12516" lon="3.10282">
        <ele>24.951477050781</ele>
        <time>2021-01-03T17:58:14.187Z</time>
      </trkpt>
      <trkpt lat="43.12523" lon="3.10286">
        <ele>25.213624954224</ele>
        <time>2021-01-03T17:58:14.342Z</time>
      </trkpt>
      <trkpt lat="43.1254" lon="3.10287">
        <ele>25.824495315552</ele>
        <time>2021-01-03T17:58:14.500Z</time>
      </trkpt>
      <trkpt lat="43.12546" lon="3.10292">
        <ele>26.037773132324</ele>
        <time>2021-01-03T17:58:14.659Z</time>
      </trkpt>
      <trkpt lat="43.12557" lon="3.10294">
        <ele>26.416059494019</ele>
        <time>2021-01-03T17:58:14.820Z</time>
      </trkpt>
      <trkpt lat="43.12564" lon="3.10301">
        <ele>26.687860488892</ele>
        <time>2021-01-03T17:58:14.983Z</time>
      </trkpt>
      <trkpt lat="43.12572" lon="3.10305">
        <ele>26.978664398193</ele>
        <time>2021-01-03T17:58:15.148Z</time>
      </trkpt>
      <trkpt lat="43.12585" lon="3.10316">
        <ele>25.752670288086</ele>
        <time>2021-01-03T17:58:15.316Z</time>
      </trkpt>
      <trkpt lat="43.12589" lon="3.10326">
        <ele>25.022495269775</ele>
        <time>2021-01-03T17:58:15.486Z</time>
      </trkpt>
      <trkpt lat="43.12593" lon="3.10348">
        <ele>23.314750671387</ele>
        <time>2021-01-03T17:58:15.659Z</time>
      </trkpt>
      <trkpt lat="43.12593" lon="3.10384">
        <ele>20.441053390503</ele>
        <time>2021-01-03T17:58:15.837Z</time>
      </trkpt>
      <trkpt lat="43.12591" lon="3.10408">
        <ele>18.184904098511</ele>
        <time>2021-01-03T17:58:16.019Z</time>
      </trkpt>
      <trkpt lat="43.1257" lon="3.10469">
        <ele>13.747833251953</ele>
        <time>2021-01-03T17:58:16.211Z</time>
      </trkpt>
      <trkpt lat="43.12566" lon="3.10501">
        <ele>11.863031387329</ele>
        <time>2021-01-03T17:58:16.407Z</time>
      </trkpt>
      <trkpt lat="43.12569" lon="3.10519">
        <ele>10.219093322754</ele>
        <time>2021-01-03T17:58:16.606Z</time>
      </trkpt>
      <trkpt lat="43.12597" lon="3.10539">
        <ele>10.099882125854</ele>
        <time>2021-01-03T17:58:16.811Z</time>
      </trkpt>
      <trkpt lat="43.12607" lon="3.1055">
        <ele>11.047251701355</ele>
        <time>2021-01-03T17:58:17.019Z</time>
      </trkpt>
      <trkpt lat="43.12624" lon="3.10558">
        <ele>13.897682189941</ele>
        <time>2021-01-03T17:58:17.231Z</time>
      </trkpt>
      <trkpt lat="43.12638" lon="3.10557">
        <ele>16.561319351196</ele>
        <time>2021-01-03T17:58:17.446Z</time>
      </trkpt>
      <trkpt lat="43.12646" lon="3.10557">
        <ele>17.982110977173</ele>
        <time>2021-01-03T17:58:17.662Z</time>
      </trkpt>
      <trkpt lat="43.12664" lon="3.10551">
        <ele>21.151840209961</ele>
        <time>2021-01-03T17:58:17.882Z</time>
      </trkpt>
      <trkpt lat="43.12676" lon="3.10553">
        <ele>23.864408493042</ele>
        <time>2021-01-03T17:58:18.104Z</time>
      </trkpt>
      <trkpt lat="43.12686" lon="3.10585">
        <ele>27.806619644165</ele>
        <time>2021-01-03T17:58:18.331Z</time>
      </trkpt>
      <trkpt lat="43.12699" lon="3.10601">
        <ele>30.654937744141</ele>
        <time>2021-01-03T17:58:18.562Z</time>
      </trkpt>
      <trkpt lat="43.12715" lon="3.10614">
        <ele>33.75220489502</ele>
        <time>2021-01-03T17:58:18.797Z</time>
      </trkpt>
      <trkpt lat="43.12727" lon="3.1062">
        <ele>34.835483551025</ele>
        <time>2021-01-03T17:58:19.034Z</time>
      </trkpt>
      <trkpt lat="43.12735" lon="3.1062">
        <ele>35.417697906494</ele>
        <time>2021-01-03T17:58:19.273Z</time>
      </trkpt>
      <trkpt lat="43.12746" lon="3.10631">
        <ele>36.470985412598</ele>
        <time>2021-01-03T17:58:19.514Z</time>
      </trkpt>
      <trkpt lat="43.12763" lon="3.10654">
        <ele>37.66678237915</ele>
        <time>2021-01-03T17:58:19.760Z</time>
      </trkpt>
      <trkpt lat="43.12781" lon="3.10674">
        <ele>38.992298126221</ele>
        <time>2021-01-03T17:58:20.011Z</time>
      </trkpt>
      <trkpt lat="43.12797" lon="3.10681">
        <ele>40.271427154541</ele>
        <time>2021-01-03T17:58:20.265Z</time>
      </trkpt>
      <trkpt lat="43.12816" lon="3.10688">
        <ele>42.073871612549</ele>
        <time>2021-01-03T17:58:20.523Z</time>
      </trkpt>
      <trkpt lat="43.12833" lon="3.10688">
        <ele>43.357120513916</ele>
        <time>2021-01-03T17:58:20.785Z</time>
      </trkpt>
      <trkpt lat="43.12849" lon="3.10691">
        <ele>43.939029693604</ele>
        <time>2021-01-03T17:58:21.050Z</time>
      </trkpt>
      <trkpt lat="43.12882" lon="3.10702">
        <ele>46.905731201172</ele>
        <time>2021-01-03T17:58:21.322Z</time>
      </trkpt>
      <trkpt lat="43.12887" lon="3.10706">
        <ele>47.357322692871</ele>
        <time>2021-01-03T17:58:21.595Z</time>
      </trkpt>
      <trkpt lat="43.12892" lon="3.10716">
        <ele>48.149192810059</ele>
        <time>2021-01-03T17:58:21.870Z</time>
      </trkpt>
      <trkpt lat="43.12902" lon="3.10725">
        <ele>49.189331054688</ele>
        <time>2021-01-03T17:58:22.147Z</time>
      </trkpt>
      <trkpt lat="43.12911" lon="3.10728">
        <ele>50.10277557373</ele>
        <time>2021-01-03T17:58:22.426Z</time>
      </trkpt>
      <trkpt lat="43.12928" lon="3.10744">
        <ele>52.46842956543</ele>
        <time>2021-01-03T17:58:22.709Z</time>
      </trkpt>
      <trkpt lat="43.12934" lon="3.10758">
        <ele>53.656085968018</ele>
        <time>2021-01-03T17:58:22.994Z</time>
      </trkpt>
      <trkpt lat="43.12932" lon="3.10768">
        <ele>53.798252105713</ele>
        <time>2021-01-03T17:58:23.281Z</time>
      </trkpt>
      <trkpt lat="43.1292" lon="3.10789">
        <ele>52.750484466553</ele>
        <time>2021-01-03T17:58:23.572Z</time>
      </trkpt>
      <trkpt lat="43.12917" lon="3.10798">
        <ele>52.74934387207</ele>
        <time>2021-01-03T17:58:23.864Z</time>
      </trkpt>
      <trkpt lat="43.12913" lon="3.10801">
        <ele>52.465175628662</ele>
        <time>2021-01-03T17:58:24.157Z</time>
      </trkpt>
      <trkpt lat="43.12905" lon="3.108">
        <ele>51.824443817139</ele>
        <time>2021-01-03T17:58:24.452Z</time>
      </trkpt>
      <trkpt lat="43.129" lon="3.10793">
        <ele>51.246387481689</ele>
        <time>2021-01-03T17:58:24.748Z</time>
      </trkpt>
      <trkpt lat="43.129" lon="3.10785">
        <ele>50.976398468018</ele>
        <time>2021-01-03T17:58:25.045Z</time>
      </trkpt>
      <trkpt lat="43.12899" lon="3.10779">
        <ele>50.586647033691</ele>
        <time>2021-01-03T17:58:25.343Z</time>
      </trkpt>
      <trkpt lat="43.12895" lon="3.10776">
        <ele>50.066276550293</ele>
        <time>2021-01-03T17:58:25.642Z</time>
      </trkpt>
      <trkpt lat="43.12889" lon="3.10775">
        <ele>49.407741546631</ele>
        <time>2021-01-03T17:58:25.942Z</time>
      </trkpt>
      <trkpt lat="43.1287" lon="3.10796">
        <ele>47.825862884521</ele>
        <time>2021-01-03T17:58:26.247Z</time>
      </trkpt>
      <trkpt lat="43.12857" lon="3.10804">
        <ele>46.006790161133</ele>
        <time>2021-01-03T17:58:26.555Z</time>
      </trkpt>
      <trkpt lat="43.12837" lon="3.10809">
        <ele>44.482223510742</ele>
        <time>2021-01-03T17:58:26.867Z</time>
      </trkpt>
      <trkpt lat="43.12822" lon="3.1082">
        <ele>42.88888168335</ele>
        <time>2021-01-03T17:58:27.183Z</time>
      </trkpt>
      <trkpt lat="43.12804" lon="3.10874">
        <ele>42.843124389648</ele>
        <time>2021-01-03T17:58:27.507Z</time>
      </trkpt>
      <trkpt lat="43.12801" lon="3.10876">
        <ele>42.913112640381</ele>
        <time>2021-01-03T17:58:27.832Z</time>
      </trkpt>
      <trkpt lat="43.12796" lon="3.10884">
        <ele>42.9768409729</ele>
        <time>2021-01-03T17:58:28.158Z</time>
      </trkpt>
      <trkpt lat="43.12791" lon="3.10902">
        <ele>42.84827041626</ele>
        <time>2021-01-03T17:58:28.487Z</time>
      </trkpt>
      <trkpt lat="43.12788" lon="3.1093">
        <ele>42.41344833374</ele>
        <time>2021-01-03T17:58:28.820Z</time>
      </trkpt>
      <trkpt lat="43.12788" lon="3.10957">
        <ele>41.701164245605</ele>
        <time>2021-01-03T17:58:29.157Z</time>
      </trkpt>
      <trkpt lat="43.12784" lon="3.10966">
        <ele>41.307399749756</ele>
        <time>2021-01-03T17:58:29.496Z</time>
      </trkpt>
      <trkpt lat="43.12768" lon="3.1099">
        <ele>40.773628234863</ele>
        <time>2021-01-03T17:58:29.839Z</time>
      </trkpt>
      <trkpt lat="43.12753" lon="3.10998">
        <ele>38.483032226562</ele>
        <time>2021-01-03T17:58:30.186Z</time>
      </trkpt>
      <trkpt lat="43.12742" lon="3.10991">
        <ele>39.792560577393</ele>
        <time>2021-01-03T17:58:30.535Z</time>
      </trkpt>
      <trkpt lat="43.12735" lon="3.10974">
        <ele>39.301731109619</ele>
        <time>2021-01-03T17:58:30.887Z</time>
      </trkpt>
      <trkpt lat="43.12734" lon="3.10949">
        <ele>39.125694274902</ele>
        <time>2021-01-03T17:58:31.243Z</time>
      </trkpt>
      <trkpt lat="43.12741" lon="3.10935">
        <ele>41.068565368652</ele>
        <time>2021-01-03T17:58:31.601Z</time>
      </trkpt>
      <trkpt lat="43.12736" lon="3.10911">
        <ele>38.10763168335</ele>
        <time>2021-01-03T17:58:31.963Z</time>
      </trkpt>
      <trkpt lat="43.12722" lon="3.10894">
        <ele>32.911445617676</ele>
        <time>2021-01-03T17:58:32.328Z</time>
      </trkpt>
      <trkpt lat="43.12695" lon="3.10876">
        <ele>24.716674804688</ele>
        <time>2021-01-03T17:58:32.699Z</time>
      </trkpt>
      <trkpt lat="43.12689" lon="3.10854">
        <ele>22.296352386475</ele>
        <time>2021-01-03T17:58:33.074Z</time>
      </trkpt>
      <trkpt lat="43.12682" lon="3.1085">
        <ele>20.619268417358</ele>
        <time>2021-01-03T17:58:33.450Z</time>
      </trkpt>
      <trkpt lat="43.12672" lon="3.1085">
        <ele>19.260570526123</ele>
        <time>2021-01-03T17:58:33.828Z</time>
      </trkpt>
      <trkpt lat="43.12661" lon="3.10863">
        <ele>18.069023132324</ele>
        <time>2021-01-03T17:58:34.209Z</time>
      </trkpt>
      <trkpt lat="43.12652" lon="3.10888">
        <ele>17.2435131073</ele>
        <time>2021-01-03T17:58:34.594Z</time>
      </trkpt>
      <trkpt lat="43.12653" lon="3.10911">
        <ele>17.524070739746</ele>
        <time>2021-01-03T17:58:34.983Z</time>
      </trkpt>
      <trkpt lat="43.12657" lon="3.10939">
        <ele>19.072765350342</ele>
        <time>2021-01-03T17:58:35.376Z</time>
      </trkpt>
      <trkpt lat="43.12669" lon="3.10981">
        <ele>20.727907180786</ele>
        <time>2021-01-03T17:58:35.776Z</time>
      </trkpt>
      <trkpt lat="43.12673" lon="3.11005">
        <ele>20.69508934021</ele>
        <time>2021-01-03T17:58:36.179Z</time>
      </trkpt>
      <trkpt lat="43.12694" lon="3.11069">
        <ele>20.248336791992</ele>
        <time>2021-01-03T17:58:36.592Z</time>
      </trkpt>
      <trkpt lat="43.12702" lon="3.11088">
        <ele>19.257127761841</ele>
        <time>2021-01-03T17:58:37.009Z</time>
      </trkpt>
      <trkpt lat="43.12727" lon="3.11132">
        <ele>15.15364074707</ele>
        <time>2021-01-03T17:58:37.434Z</time>
      </trkpt>
      <trkpt lat="43.12736" lon="3.1114">
        <ele>14.269160270691</ele>
        <time>2021-01-03T17:58:37.861Z</time>
      </trkpt>
      <trkpt lat="43.12742" lon="3.11142">
        <ele>14.068338394165</ele>
        <time>2021-01-03T17:58:38.289Z</time>
      </trkpt>
      <trkpt lat="43.12751" lon="3.11142">
        <ele>14.407711029053</ele>
        <time>2021-01-03T17:58:38.719Z</time>
      </trkpt>
      <trkpt lat="43.12781" lon="3.1113">
        <ele>13.944939613342</ele>
        <time>2021-01-03T17:58:39.155Z</time>
      </trkpt>
      <trkpt lat="43.12824" lon="3.11118">
        <ele>15.406736373901</ele>
        <time>2021-01-03T17:58:39.600Z</time>
      </trkpt>
      <trkpt lat="43.12848" lon="3.11107">
        <ele>17.354091644287</ele>
        <time>2021-01-03T17:58:40.050Z</time>
      </trkpt>
      <trkpt lat="43.12861" lon="3.11099">
        <ele>17.386806488037</ele>
        <time>2021-01-03T17:58:40.503Z</time>
      </trkpt>
      <trkpt lat="43.12875" lon="3.11094">
        <ele>17.020725250244</ele>
        <time>2021-01-03T17:58:40.959Z</time>
      </trkpt>
      <trkpt lat="43.12898" lon="3.1109">
        <ele>18.483633041382</ele>
        <time>2021-01-03T17:58:41.420Z</time>
      </trkpt>
      <trkpt lat="43.12928" lon="3.11088">
        <ele>20.081676483154</ele>
        <time>2021-01-03T17:58:41.886Z</time>
      </trkpt>
      <trkpt lat="43.12948" lon="3.11093">
        <ele>20.33597946167</ele>
        <time>2021-01-03T17:58:42.357Z</time>
      </trkpt>
      <trkpt lat="43.12975" lon="3.11104">
        <ele>20.941802978516</ele>
        <time>2021-01-03T17:58:42.833Z</time>
      </trkpt>
      <trkpt lat="43.12981" lon="3.111">
        <ele>22.090240478516</ele>
        <time>2021-01-03T17:58:43.311Z</time>
      </trkpt>
      <trkpt lat="43.12989" lon="3.11084">
        <ele>24.085590362549</ele>
        <time>2021-01-03T17:58:43.791Z</time>
      </trkpt>
      <trkpt lat="43.12994" lon="3.11078">
        <ele>24.992696762085</ele>
        <time>2021-01-03T17:58:44.273Z</time>
      </trkpt>
      <trkpt lat="43.12995" lon="3.11062">
        <ele>26.30735206604</ele>
        <time>2021-01-03T17:58:44.757Z</time>
      </trkpt>
      <trkpt lat="43.12988" lon="3.11055">
        <ele>26.189643859863</ele>
        <time>2021-01-03T17:58:45.243Z</time>
      </trkpt>
      <trkpt lat="43.1298" lon="3.11037">
        <ele>28.229593276978</ele>
        <time>2021-01-03T17:58:45.732Z</time>
      </trkpt>
      <trkpt lat="43.12971" lon="3.11031">
        <ele>29.061283111572</ele>
        <time>2021-01-03T17:58:46.223Z</time>
      </trkpt>
      <trkpt lat="43.1296" lon="3.11035">
        <ele>27.576366424561</ele>
        <time>2021-01-03T17:58:46.716Z</time>
      </trkpt>
      <trkpt lat="43.12953" lon="3.1103">
        <ele>29.13325881958</ele>
        <time>2021-01-03T17:58:47.211Z</time>
      </trkpt>
      <trkpt lat="43.12929" lon="3.11027">
        <ele>29.929914474487</ele>
        <time>2021-01-03T17:58:47.711Z</time>
      </trkpt>
      <trkpt lat="43.1289" lon="3.10996">
        <ele>34.543529510498</ele>
        <time>2021-01-03T17:58:48.220Z</time>
      </trkpt>
      <trkpt lat="43.12873" lon="3.10993">
        <ele>34.494701385498</ele>
        <time>2021-01-03T17:58:48.732Z</time>
      </trkpt>
      <trkpt lat="43.12861" lon="3.10996">
        <ele>34.389423370361</ele>
        <time>2021-01-03T17:58:49.247Z</time>
      </trkpt>
      <trkpt lat="43.12852" lon="3.10991">
        <ele>35.610862731934</ele>
        <time>2021-01-03T17:58:49.763Z</time>
      </trkpt>
      <trkpt lat="43.12843" lon="3.1099">
        <ele>35.793033599854</ele>
        <time>2021-01-03T17:58:50.281Z</time>
      </trkpt>
      <trkpt lat="43.12838" lon="3.10983">
        <ele>36.717464447021</ele>
        <time>2021-01-03T17:58:50.801Z</time>
      </trkpt>
      <trkpt lat="43.12832" lon="3.10956">
        <ele>39.386039733887</ele>
        <time>2021-01-03T17:58:51.325Z</time>
      </trkpt>
      <trkpt lat="43.12834" lon="3.10932">
        <ele>41.06241607666</ele>
        <time>2021-01-03T17:58:51.852Z</time>
      </trkpt>
      <trkpt lat="43.12836" lon="3.10928">
        <ele>41.202690124512</ele>
        <time>2021-01-03T17:58:52.380Z</time>
      </trkpt>
      <trkpt lat="43.12844" lon="3.10925">
        <ele>41.42459487915</ele>
        <time>2021-01-03T17:58:52.910Z</time>
      </trkpt>
      <trkpt lat="43.12858" lon="3.1093">
        <ele>41.947681427002</ele>
        <time>2021-01-03T17:58:53.443Z</time>
      </trkpt>
      <trkpt lat="43.12871" lon="3.10921">
        <ele>43.888591766357</ele>
        <time>2021-01-03T17:58:53.979Z</time>
      </trkpt>
      <trkpt lat="43.12882" lon="3.10899">
        <ele>46.784881591797</ele>
        <time>2021-01-03T17:58:54.518Z</time>
      </trkpt>
      <trkpt lat="43.12893" lon="3.1089">
        <ele>48.206325531006</ele>
        <time>2021-01-03T17:58:55.060Z</time>
      </trkpt>
      <trkpt lat="43.12902" lon="3.10886">
        <ele>49.088394165039</ele>
        <time>2021-01-03T17:58:55.604Z</time>
      </trkpt>
      <trkpt lat="43.12907" lon="3.10886">
        <ele>49.45581817627</ele>
        <time>2021-01-03T17:58:56.149Z</time>
      </trkpt>
      <trkpt lat="43.1293" lon="3.10854">
        <ele>52.400390625</ele>
        <time>2021-01-03T17:58:56.700Z</time>
      </trkpt>
      <trkpt lat="43.12958" lon="3.10833">
        <ele>54.988994598389</ele>
        <time>2021-01-03T17:58:57.258Z</time>
      </trkpt>
      <trkpt lat="43.12974" lon="3.10803">
        <ele>56.137966156006</ele>
        <time>2021-01-03T17:58:57.821Z</time>
      </trkpt>
      <trkpt lat="43.12994" lon="3.1078">
        <ele>57</ele>
        <time>2021-01-03T17:58:58.389Z</time>
      </trkpt>
      <trkpt lat="43.13003" lon="3.10765">
        <ele>56.948028564453</ele>
        <time>2021-01-03T17:58:58.960Z</time>
      </trkpt>
      <trkpt lat="43.13031" lon="3.10767">
        <ele>56.021461486816</ele>
        <time>2021-01-03T17:58:59.537Z</time>
      </trkpt>
      <trkpt lat="43.13036" lon="3.10769">
        <ele>55.768062591553</ele>
        <time>2021-01-03T17:59:00.115Z</time>
      </trkpt>
      <trkpt lat="43.13046" lon="3.10783">
        <ele>55.566345214844</ele>
        <time>2021-01-03T17:59:00.696Z</time>
      </trkpt>
      <trkpt lat="43.1306" lon="3.10823">
        <ele>57.544902801514</ele>
        <time>2021-01-03T17:59:01.283Z</time>
      </trkpt>
      <trkpt lat="43.13089" lon="3.10857">
        <ele>58.798896789551</ele>
        <time>2021-01-03T17:59:01.878Z</time>
      </trkpt>
      <trkpt lat="43.13114" lon="3.10881">
        <ele>59.513282775879</ele>
        <time>2021-01-03T17:59:02.479Z</time>
      </trkpt>
      <trkpt lat="43.13126" lon="3.10888">
        <ele>59.093063354492</ele>
        <time>2021-01-03T17:59:03.082Z</time>
      </trkpt>
      <trkpt lat="43.13136" lon="3.10892">
        <ele>58.721111297607</ele>
        <time>2021-01-03T17:59:03.688Z</time>
      </trkpt>
      <trkpt lat="43.13146" lon="3.109">
        <ele>58.372085571289</ele>
        <time>2021-01-03T17:59:04.296Z</time>
      </trkpt>
      <trkpt lat="43.13146" lon="3.10905">
        <ele>58.385055541992</ele>
        <time>2021-01-03T17:59:04.905Z</time>
      </trkpt>
      <trkpt lat="43.13143" lon="3.10907">
        <ele>58.481887817383</ele>
        <time>2021-01-03T17:59:05.514Z</time>
      </trkpt>
      <trkpt lat="43.13141" lon="3.10911">
        <ele>58.540111541748</ele>
        <time>2021-01-03T17:59:06.124Z</time>
      </trkpt>
      <trkpt lat="43.13142" lon="3.10915">
        <ele>58.53377532959</ele>
        <time>2021-01-03T17:59:06.735Z</time>
      </trkpt>
      <trkpt lat="43.13152" lon="3.10925">
        <ele>58.168460845947</ele>
        <time>2021-01-03T17:59:07.348Z</time>
      </trkpt>
      <trkpt lat="43.13161" lon="3.1093">
        <ele>58</ele>
        <time>2021-01-03T17:59:07.963Z</time>
      </trkpt>
      <trkpt lat="43.13173" lon="3.10933">
        <ele>58</ele>
        <time>2021-01-03T17:59:08.581Z</time>
      </trkpt>
      <trkpt lat="43.1318" lon="3.10942">
        <ele>57.079536437988</ele>
        <time>2021-01-03T17:59:09.200Z</time>
      </trkpt>
      <trkpt lat="43.13174" lon="3.10954">
        <ele>55.817070007324</ele>
        <time>2021-01-03T17:59:09.822Z</time>
      </trkpt>
      <trkpt lat="43.13175" lon="3.10968">
        <ele>53.767467498779</ele>
        <time>2021-01-03T17:59:10.446Z</time>
      </trkpt>
      <trkpt lat="43.13169" lon="3.10972">
        <ele>53.066097259521</ele>
        <time>2021-01-03T17:59:11.071Z</time>
      </trkpt>
      <trkpt lat="43.1316" lon="3.10973">
        <ele>52.854930877686</ele>
        <time>2021-01-03T17:59:11.698Z</time>
      </trkpt>
      <trkpt lat="43.13158" lon="3.10982">
        <ele>51.313423156738</ele>
        <time>2021-01-03T17:59:12.326Z</time>
      </trkpt>
      <trkpt lat="43.1316" lon="3.10987">
        <ele>50.471778869629</ele>
        <time>2021-01-03T17:59:12.955Z</time>
      </trkpt>
      <trkpt lat="43.13159" lon="3.11009">
        <ele>46.300491333008</ele>
        <time>2021-01-03T17:59:13.587Z</time>
      </trkpt>
      <trkpt lat="43.13173" lon="3.11016">
        <ele>44.543598175049</ele>
        <time>2021-01-03T17:59:14.222Z</time>
      </trkpt>
      <trkpt lat="43.13175" lon="3.11047">
        <ele>41.967967987061</ele>
        <time>2021-01-03T17:59:14.862Z</time>
      </trkpt>
      <trkpt lat="43.13168" lon="3.1106">
        <ele>40.905643463135</ele>
        <time>2021-01-03T17:59:15.504Z</time>
      </trkpt>
      <trkpt lat="43.13169" lon="3.11075">
        <ele>40.488441467285</ele>
        <time>2021-01-03T17:59:16.148Z</time>
      </trkpt>
      <trkpt lat="43.13174" lon="3.11084">
        <ele>42.36600112915</ele>
        <time>2021-01-03T17:59:16.794Z</time>
      </trkpt>
      <trkpt lat="43.1317" lon="3.11115">
        <ele>44.069034576416</ele>
        <time>2021-01-03T17:59:17.444Z</time>
      </trkpt>
      <trkpt lat="43.13167" lon="3.11124">
        <ele>43.857265472412</ele>
        <time>2021-01-03T17:59:18.096Z</time>
      </trkpt>
      <trkpt lat="43.13149" lon="3.11136">
        <ele>40.084907531738</ele>
        <time>2021-01-03T17:59:18.752Z</time>
      </trkpt>
      <trkpt lat="43.13128" lon="3.11163">
        <ele>36.359039306641</ele>
        <time>2021-01-03T17:59:19.414Z</time>
      </trkpt>
      <trkpt lat="43.13122" lon="3.11165">
        <ele>35.332172393799</ele>
        <time>2021-01-03T17:59:20.077Z</time>
      </trkpt>
      <trkpt lat="43.13116" lon="3.11174">
        <ele>34.407787322998</ele>
        <time>2021-01-03T17:59:20.742Z</time>
      </trkpt>
      <trkpt lat="43.13102" lon="3.11185">
        <ele>30.381883621216</ele>
        <time>2021-01-03T17:59:21.410Z</time>
      </trkpt>
      <trkpt lat="43.13096" lon="3.11222">
        <ele>32.138263702393</ele>
        <time>2021-01-03T17:59:22.083Z</time>
      </trkpt>
      <trkpt lat="43.13091" lon="3.1124">
        <ele>31.754081726074</ele>
        <time>2021-01-03T17:59:22.759Z</time>
      </trkpt>
      <trkpt lat="43.13091" lon="3.1125">
        <ele>31.754081726074</ele>
        <time>2021-01-03T17:59:23.437Z</time>
      </trkpt>
      <trkpt lat="43.13086" lon="3.11278">
        <ele>29.610504150391</ele>
        <time>2021-01-03T17:59:24.119Z</time>
      </trkpt>
      <trkpt lat="43.13089" lon="3.11323">
        <ele>29.470411300659</ele>
        <time>2021-01-03T17:59:24.808Z</time>
      </trkpt>
      <trkpt lat="43.13105" lon="3.11366">
        <ele>30.279640197754</ele>
        <time>2021-01-03T17:59:25.504Z</time>
      </trkpt>
      <trkpt lat="43.13106" lon="3.11382">
        <ele>28.774913787842</ele>
        <time>2021-01-03T17:59:26.202Z</time>
      </trkpt>
      <trkpt lat="43.13121" lon="3.11444">
        <ele>25.61643409729</ele>
        <time>2021-01-03T17:59:26.910Z</time>
      </trkpt>
      <trkpt lat="43.13122" lon="3.11456">
        <ele>24.9602394104</ele>
        <time>2021-01-03T17:59:27.619Z</time>
      </trkpt>
      <trkpt lat="43.1314" lon="3.11492">
        <ele>26.40013885498</ele>
        <time>2021-01-03T17:59:28.335Z</time>
      </trkpt>
      <trkpt lat="43.13157" lon="3.11542">
        <ele>24.399854660034</ele>
        <time>2021-01-03T17:59:29.059Z</time>
      </trkpt>
      <trkpt lat="43.13163" lon="3.11551">
        <ele>25.023361206055</ele>
        <time>2021-01-03T17:59:29.785Z</time>
      </trkpt>
      <trkpt lat="43.13164" lon="3.11577">
        <ele>24.749305725098</ele>
        <time>2021-01-03T17:59:30.514Z</time>
      </trkpt>
      <trkpt lat="43.13169" lon="3.11616">
        <ele>27.16209602356</ele>
        <time>2021-01-03T17:59:31.249Z</time>
      </trkpt>
      <trkpt lat="43.13167" lon="3.11635">
        <ele>26.916652679443</ele>
        <time>2021-01-03T17:59:31.987Z</time>
      </trkpt>
      <trkpt lat="43.13168" lon="3.11644">
        <ele>27.447601318359</ele>
        <time>2021-01-03T17:59:32.726Z</time>
      </trkpt>
      <trkpt lat="43.13173" lon="3.11648">
        <ele>28.906150817871</ele>
        <time>2021-01-03T17:59:33.467Z</time>
      </trkpt>
      <trkpt lat="43.13173" lon="3.11663">
        <ele>29.37131690979</ele>
        <time>2021-01-03T17:59:34.210Z</time>
      </trkpt>
      <trkpt lat="43.13166" lon="3.11682">
        <ele>28.211717605591</ele>
        <time>2021-01-03T17:59:34.956Z</time>
      </trkpt>
      <trkpt lat="43.13157" lon="3.11724">
        <ele>28.619209289551</ele>
        <time>2021-01-03T17:59:35.708Z</time>
      </trkpt>
      <trkpt lat="43.13156" lon="3.11747">
        <ele>28.859844207764</ele>
        <time>2021-01-03T17:59:36.464Z</time>
      </trkpt>
      <trkpt lat="43.13149" lon="3.11762">
        <ele>27.490699768066</ele>
        <time>2021-01-03T17:59:37.222Z</time>
      </trkpt>
      <trkpt lat="43.1314" lon="3.11777">
        <ele>25.97364616394</ele>
        <time>2021-01-03T17:59:37.983Z</time>
      </trkpt>
      <trkpt lat="43.13132" lon="3.11793">
        <ele>24.567890167236</ele>
        <time>2021-01-03T17:59:38.747Z</time>
      </trkpt>
      <trkpt lat="43.13121" lon="3.11804">
        <ele>22.902547836304</ele>
        <time>2021-01-03T17:59:39.514Z</time>
      </trkpt>
      <trkpt lat="43.13104" lon="3.11861">
        <ele>19.570947647095</ele>
        <time>2021-01-03T17:59:40.290Z</time>
      </trkpt>
      <trkpt lat="43.13101" lon="3.11879">
        <ele>19.008041381836</ele>
        <time>2021-01-03T17:59:41.068Z</time>
      </trkpt>
      <trkpt lat="43.13106" lon="3.1189">
        <ele>20.132043838501</ele>
        <time>2021-01-03T17:59:41.848Z</time>
      </trkpt>
      <trkpt lat="43.13102" lon="3.11913">
        <ele>18.810604095459</ele>
        <time>2021-01-03T17:59:42.632Z</time>
      </trkpt>
      <trkpt lat="43.13103" lon="3.11927">
        <ele>18.034120559692</ele>
        <time>2021-01-03T17:59:43.418Z</time>
      </trkpt>
      <trkpt lat="43.13111" lon="3.11962">
        <ele>17.869972229004</ele>
        <time>2021-01-03T17:59:44.209Z</time>
      </trkpt>
      <trkpt lat="43.1312" lon="3.11986">
        <ele>18.636201858521</ele>
        <time>2021-01-03T17:59:45.004Z</time>
      </trkpt>
      <trkpt lat="43.13119" lon="3.12001">
        <ele>17.49457359314</ele>
        <time>2021-01-03T17:59:45.801Z</time>
      </trkpt>
      <trkpt lat="43.13121" lon="3.12028">
        <ele>15.664374351501</ele>
        <time>2021-01-03T17:59:46.602Z</time>
      </trkpt>
      <trkpt lat="43.13123" lon="3.12038">
        <ele>14.878839492798</ele>
        <time>2021-01-03T17:59:47.405Z</time>
      </trkpt>
      <trkpt lat="43.13127" lon="3.12046">
        <ele>14.632061958313</ele>
        <time>2021-01-03T17:59:48.209Z</time>
      </trkpt>
      <trkpt lat="43.13129" lon="3.12046">
        <ele>14.789229393005</ele>
        <time>2021-01-03T17:59:49.014Z</time>
      </trkpt>
      <trkpt lat="43.13131" lon="3.12043">
        <ele>15.363159179688</ele>
        <time>2021-01-03T17:59:49.819Z</time>
      </trkpt>
      <trkpt lat="43.1313" lon="3.12024">
        <ele>17.316438674927</ele>
        <time>2021-01-03T17:59:50.627Z</time>
      </trkpt>
      <trkpt lat="43.13139" lon="3.11956">
        <ele>22.818218231201</ele>
        <time>2021-01-03T17:59:51.445Z</time>
      </trkpt>
      <trkpt lat="43.13136" lon="3.11943">
        <ele>23.423357009888</ele>
        <time>2021-01-03T17:59:52.265Z</time>
      </trkpt>
      <trkpt lat="43.13137" lon="3.11932">
        <ele>24.235439300537</ele>
        <time>2021-01-03T17:59:53.087Z</time>
      </trkpt>
      <trkpt lat="43.1315" lon="3.11919">
        <ele>26.810371398926</ele>
        <time>2021-01-03T17:59:53.912Z</time>
      </trkpt>
      <trkpt lat="43.1315" lon="3.11913">
        <ele>27.036016464233</ele>
        <time>2021-01-03T17:59:54.738Z</time>
      </trkpt>
      <trkpt lat="43.13153" lon="3.11906">
        <ele>27.609554290771</ele>
        <time>2021-01-03T17:59:55.565Z</time>
      </trkpt>
      <trkpt lat="43.13167" lon="3.11895">
        <ele>28.391788482666</ele>
        <time>2021-01-03T17:59:56.395Z</time>
      </trkpt>
      <trkpt lat="43.13172" lon="3.11888">
        <ele>28.653633117676</ele>
        <time>2021-01-03T17:59:57.227Z</time>
      </trkpt>
      <trkpt lat="43.13177" lon="3.11876">
        <ele>29</ele>
        <time>2021-01-03T17:59:58.061Z</time>
      </trkpt>
      <trkpt lat="43.13182" lon="3.11867">
        <ele>29.663326263428</ele>
        <time>2021-01-03T17:59:58.896Z</time>
      </trkpt>
      <trkpt lat="43.1319" lon="3.11847">
        <ele>31.130886077881</ele>
        <time>2021-01-03T17:59:59.735Z</time>
      </trkpt>
      <trkpt lat="43.13191" lon="3.11836">
        <ele>31.514301300049</ele>
        <time>2021-01-03T18:00:00.575Z</time>
      </trkpt>
      <trkpt lat="43.13202" lon="3.11807">
        <ele>32.561985015869</ele>
        <time>2021-01-03T18:00:01.420Z</time>
      </trkpt>
      <trkpt lat="43.13209" lon="3.11781">
        <ele>33.878353118896</ele>
        <time>2021-01-03T18:00:02.269Z</time>
      </trkpt>
      <trkpt lat="43.13213" lon="3.11778">
        <ele>34.043533325195</ele>
        <time>2021-01-03T18:00:03.119Z</time>
      </trkpt>
      <trkpt lat="43.13224" lon="3.11767">
        <ele>33.697147369385</ele>
        <time>2021-01-03T18:00:03.972Z</time>
      </trkpt>
      <trkpt lat="43.13231" lon="3.1175">
        <ele>34.74137878418</ele>
        <time>2021-01-03T18:00:04.828Z</time>
      </trkpt>
      <trkpt lat="43.1324" lon="3.11722">
        <ele>37.174533843994</ele>
        <time>2021-01-03T18:00:05.688Z</time>
      </trkpt>
      <trkpt lat="43.13243" lon="3.117">
        <ele>39.106826782227</ele>
        <time>2021-01-03T18:00:06.552Z</time>
      </trkpt>
      <trkpt lat="43.13247" lon="3.11685">
        <ele>40.831439971924</ele>
        <time>2021-01-03T18:00:07.418Z</time>
      </trkpt>
      <trkpt lat="43.13254" lon="3.11648">
        <ele>43.048435211182</ele>
        <time>2021-01-03T18:00:08.290Z</time>
      </trkpt>
      <trkpt lat="43.13274" lon="3.11597">
        <ele>46.601535797119</ele>
        <time>2021-01-03T18:00:09.170Z</time>
      </trkpt>
      <trkpt lat="43.13277" lon="3.11566">
        <ele>47.988082885742</ele>
        <time>2021-01-03T18:00:10.055Z</time>
      </trkpt>
      <trkpt lat="43.13284" lon="3.11534">
        <ele>49.28759765625</ele>
        <time>2021-01-03T18:00:10.944Z</time>
      </trkpt>
      <trkpt lat="43.13298" lon="3.11439">
        <ele>52.257808685303</ele>
        <time>2021-01-03T18:00:11.848Z</time>
      </trkpt>
      <trkpt lat="43.13328" lon="3.1136">
        <ele>55.185806274414</ele>
        <time>2021-01-03T18:00:12.765Z</time>
      </trkpt>
      <trkpt lat="43.13345" lon="3.11333">
        <ele>56.600593566895</ele>
        <time>2021-01-03T18:00:13.687Z</time>
      </trkpt>
      <trkpt lat="43.13365" lon="3.11314">
        <ele>57</ele>
        <time>2021-01-03T18:00:14.614Z</time>
      </trkpt>
      <trkpt lat="43.13388" lon="3.11282">
        <ele>58.13697052002</ele>
        <time>2021-01-03T18:00:15.547Z</time>
      </trkpt>
      <trkpt lat="43.13409" lon="3.11243">
        <ele>60.669780731201</ele>
        <time>2021-01-03T18:00:16.487Z</time>
      </trkpt>
      <trkpt lat="43.13421" lon="3.11212">
        <ele>60.981384277344</ele>
        <time>2021-01-03T18:00:17.432Z</time>
      </trkpt>
      <trkpt lat="43.13421" lon="3.11208">
        <ele>61.121658325195</ele>
        <time>2021-01-03T18:00:18.378Z</time>
      </trkpt>
      <trkpt lat="43.13436" lon="3.11188">
        <ele>62.742343902588</ele>
        <time>2021-01-03T18:00:19.328Z</time>
      </trkpt>
      <trkpt lat="43.13442" lon="3.11166">
        <ele>64.865814208984</ele>
        <time>2021-01-03T18:00:20.282Z</time>
      </trkpt>
      <trkpt lat="43.13457" lon="3.11157">
        <ele>66.555137634277</ele>
        <time>2021-01-03T18:00:21.239Z</time>
      </trkpt>
      <trkpt lat="43.13469" lon="3.11147">
        <ele>68.222190856934</ele>
        <time>2021-01-03T18:00:22.199Z</time>
      </trkpt>
      <trkpt lat="43.1347" lon="3.11176">
        <ele>65.555274963379</ele>
        <time>2021-01-03T18:00:23.163Z</time>
      </trkpt>
      <trkpt lat="43.13462" lon="3.11188">
        <ele>64.568489074707</ele>
        <time>2021-01-03T18:00:24.129Z</time>
      </trkpt>
      <trkpt lat="43.13442" lon="3.11227">
        <ele>60.162612915039</ele>
        <time>2021-01-03T18:00:25.102Z</time>
      </trkpt>
      <trkpt lat="43.13437" lon="3.11271">
        <ele>57.025009155273</ele>
        <time>2021-01-03T18:00:26.082Z</time>
      </trkpt>
      <trkpt lat="43.1344" lon="3.11289">
        <ele>54.036113739014</ele>
        <time>2021-01-03T18:00:27.064Z</time>
      </trkpt>
      <trkpt lat="43.13445" lon="3.11295">
        <ele>52.478317260742</ele>
        <time>2021-01-03T18:00:28.048Z</time>
      </trkpt>
      <trkpt lat="43.13454" lon="3.11301">
        <ele>50.261684417725</ele>
        <time>2021-01-03T18:00:29.034Z</time>
      </trkpt>
      <trkpt lat="43.13467" lon="3.11323">
        <ele>45.352996826172</ele>
        <time>2021-01-03T18:00:30.024Z</time>
      </trkpt>
      <trkpt lat="43.1347" lon="3.11327">
        <ele>44.682353973389</ele>
        <time>2021-01-03T18:00:31.015Z</time>
      </trkpt>
      <trkpt lat="43.13475" lon="3.11329">
        <ele>43.938144683838</ele>
        <time>2021-01-03T18:00:32.007Z</time>
      </trkpt>
      <trkpt lat="43.13476" lon="3.11333">
        <ele>43.551109313965</ele>
        <time>2021-01-03T18:00:32.999Z</time>
      </trkpt>
      <trkpt lat="43.13471" lon="3.11359">
        <ele>43.15177154541</ele>
        <time>2021-01-03T18:00:33.995Z</time>
      </trkpt>
      <trkpt lat="43.13472" lon="3.11371">
        <ele>41.699253082275</ele>
        <time>2021-01-03T18:00:34.993Z</time>
      </trkpt>
      <trkpt lat="43.13476" lon="3.11379">
        <ele>40.379772186279</ele>
        <time>2021-01-03T18:00:35.993Z</time>
      </trkpt>
      <trkpt lat="43.13481" lon="3.11385">
        <ele>39.196041107178</ele>
        <time>2021-01-03T18:00:36.994Z</time>
      </trkpt>
      <trkpt lat="43.13492" lon="3.11383">
        <ele>38.371681213379</ele>
        <time>2021-01-03T18:00:37.997Z</time>
      </trkpt>
      <trkpt lat="43.13504" lon="3.11365">
        <ele>38.435264587402</ele>
        <time>2021-01-03T18:00:39.004Z</time>
      </trkpt>
      <trkpt lat="43.13509" lon="3.11362">
        <ele>38.050643920898</ele>
        <time>2021-01-03T18:00:40.012Z</time>
      </trkpt>
      <trkpt lat="43.13517" lon="3.11364">
        <ele>37.095573425293</ele>
        <time>2021-01-03T18:00:41.021Z</time>
      </trkpt>
      <trkpt lat="43.13521" lon="3.11369">
        <ele>36.561542510986</ele>
        <time>2021-01-03T18:00:42.032Z</time>
      </trkpt>
      <trkpt lat="43.13533" lon="3.11372">
        <ele>35.862586975098</ele>
        <time>2021-01-03T18:00:43.045Z</time>
      </trkpt>
      <trkpt lat="43.13546" lon="3.11372">
        <ele>35.236309051514</ele>
        <time>2021-01-03T18:00:44.061Z</time>
      </trkpt>
      <trkpt lat="43.13554" lon="3.11383">
        <ele>35.290328979492</ele>
        <time>2021-01-03T18:00:45.079Z</time>
      </trkpt>
      <trkpt lat="43.13556" lon="3.11393">
        <ele>35.060371398926</ele>
        <time>2021-01-03T18:00:46.098Z</time>
      </trkpt>
      <trkpt lat="43.13551" lon="3.1141">
        <ele>33.703304290771</ele>
        <time>2021-01-03T18:00:47.120Z</time>
      </trkpt>
      <trkpt lat="43.13543" lon="3.11427">
        <ele>33.829792022705</ele>
        <time>2021-01-03T18:00:48.145Z</time>
      </trkpt>
      <trkpt lat="43.13539" lon="3.1143">
        <ele>33.816722869873</ele>
        <time>2021-01-03T18:00:49.171Z</time>
      </trkpt>
      <trkpt lat="43.13533" lon="3.11433">
        <ele>33.154270172119</ele>
        <time>2021-01-03T18:00:50.198Z</time>
      </trkpt>
      <trkpt lat="43.13512" lon="3.11452">
        <ele>32.222820281982</ele>
        <time>2021-01-03T18:00:51.230Z</time>
      </trkpt>
      <trkpt lat="43.13501" lon="3.11464">
        <ele>31.631711959839</ele>
        <time>2021-01-03T18:00:52.265Z</time>
      </trkpt>
      <trkpt lat="43.13483" lon="3.11478">
        <ele>30.155954360962</ele>
        <time>2021-01-03T18:00:53.304Z</time>
      </trkpt>
      <trkpt lat="43.13462" lon="3.11499">
        <ele>28.670099258423</ele>
        <time>2021-01-03T18:00:54.348Z</time>
      </trkpt>
      <trkpt lat="43.1346" lon="3.11513">
        <ele>28.204641342163</ele>
        <time>2021-01-03T18:00:55.394Z</time>
      </trkpt>
      <trkpt lat="43.13472" lon="3.11563">
        <ele>30.802810668945</ele>
        <time>2021-01-03T18:00:56.448Z</time>
      </trkpt>
      <trkpt lat="43.1349" lon="3.11629">
        <ele>34.162422180176</ele>
        <time>2021-01-03T18:00:57.512Z</time>
      </trkpt>
      <trkpt lat="43.13492" lon="3.11644">
        <ele>34.628192901611</ele>
        <time>2021-01-03T18:00:58.579Z</time>
      </trkpt>
      <trkpt lat="43.13491" lon="3.1167">
        <ele>34.209693908691</ele>
        <time>2021-01-03T18:00:59.649Z</time>
      </trkpt>
      <trkpt lat="43.13508" lon="3.11705">
        <ele>37.9626121521</ele>
        <time>2021-01-03T18:01:00.726Z</time>
      </trkpt>
      <trkpt lat="43.13517" lon="3.1171">
        <ele>39.795993804932</ele>
        <time>2021-01-03T18:01:01.804Z</time>
      </trkpt>
      <trkpt lat="43.13522" lon="3.11718">
        <ele>41.393798828125</ele>
        <time>2021-01-03T18:01:02.884Z</time>
      </trkpt>
      <trkpt lat="43.13512" lon="3.11781">
        <ele>42.276954650879</ele>
        <time>2021-01-03T18:01:03.973Z</time>
      </trkpt>
      <trkpt lat="43.13503" lon="3.11825">
        <ele>41.99490737915</ele>
        <time>2021-01-03T18:01:05.069Z</time>
      </trkpt>
      <trkpt lat="43.135" lon="3.11831">
        <ele>41.891136169434</ele>
        <time>2021-01-03T18:01:06.166Z</time>
      </trkpt>
      <trkpt lat="43.13497" lon="3.11838">
        <ele>42.102756500244</ele>
        <time>2021-01-03T18:01:07.264Z</time>
      </trkpt>
      <trkpt lat="43.13472" lon="3.11847">
        <ele>40.642307281494</ele>
        <time>2021-01-03T18:01:08.367Z</time>
      </trkpt>
      <trkpt lat="43.13464" lon="3.11843">
        <ele>39.149971008301</ele>
        <time>2021-01-03T18:01:09.472Z</time>
      </trkpt>
      <trkpt lat="43.13446" lon="3.11843">
        <ele>38.067188262939</ele>
        <time>2021-01-03T18:01:10.581Z</time>
      </trkpt>
      <trkpt lat="43.13441" lon="3.11846">
        <ele>37.993579864502</ele>
        <time>2021-01-03T18:01:11.691Z</time>
      </trkpt>
      <trkpt lat="43.1344" lon="3.11853">
        <ele>38.590839385986</ele>
        <time>2021-01-03T18:01:12.802Z</time>
      </trkpt>
      <trkpt lat="43.13443" lon="3.11859">
        <ele>39.166416168213</ele>
        <time>2021-01-03T18:01:13.914Z</time>
      </trkpt>
      <trkpt lat="43.13448" lon="3.11861">
        <ele>39.731735229492</ele>
        <time>2021-01-03T18:01:15.027Z</time>
      </trkpt>
      <trkpt lat="43.13467" lon="3.11861">
        <ele>41.247673034668</ele>
        <time>2021-01-03T18:01:16.144Z</time>
      </trkpt>
      <trkpt lat="43.13488" lon="3.11858">
        <ele>43.350276947021</ele>
        <time>2021-01-03T18:01:17.265Z</time>
      </trkpt>
      <trkpt lat="43.13498" lon="3.11859">
        <ele>44.237686157227</ele>
        <time>2021-01-03T18:01:18.388Z</time>
      </trkpt>
      <trkpt lat="43.13517" lon="3.1187">
        <ele>46.883392333984</ele>
        <time>2021-01-03T18:01:19.515Z</time>
      </trkpt>
      <trkpt lat="43.13538" lon="3.11876">
        <ele>48.435539245605</ele>
        <time>2021-01-03T18:01:20.646Z</time>
      </trkpt>
      <trkpt lat="43.13547" lon="3.11873">
        <ele>49.253299713135</ele>
        <time>2021-01-03T18:01:21.779Z</time>
      </trkpt>
      <trkpt lat="43.13563" lon="3.11864">
        <ele>50.786960601807</ele>
        <time>2021-01-03T18:01:22.916Z</time>
      </trkpt>
      <trkpt lat="43.13581" lon="3.11858">
        <ele>50.905193328857</ele>
        <time>2021-01-03T18:01:24.056Z</time>
      </trkpt>
      <trkpt lat="43.13597" lon="3.11847">
        <ele>50.387573242188</ele>
        <time>2021-01-03T18:01:25.200Z</time>
      </trkpt>
      <trkpt lat="43.13616" lon="3.11843">
        <ele>48.644390106201</ele>
        <time>2021-01-03T18:01:26.348Z</time>
      </trkpt>
      <trkpt lat="43.13626" lon="3.11831">
        <ele>48.051918029785</ele>
        <time>2021-01-03T18:01:27.499Z</time>
      </trkpt>
      <trkpt lat="43.13636" lon="3.11809">
        <ele>48.501049041748</ele>
        <time>2021-01-03T18:01:28.653Z</time>
      </trkpt>
      <trkpt lat="43.13659" lon="3.11806">
        <ele>48.861541748047</ele>
        <time>2021-01-03T18:01:29.812Z</time>
      </trkpt>
      <trkpt lat="43.13709" lon="3.11806">
        <ele>53.626052856445</ele>
        <time>2021-01-03T18:01:30.981Z</time>
      </trkpt>
      <trkpt lat="43.13729" lon="3.11812">
        <ele>54.672828674316</ele>
        <time>2021-01-03T18:01:32.154Z</time>
      </trkpt>
      <trkpt lat="43.13844" lon="3.11827">
        <ele>60.921604156494</ele>
        <time>2021-01-03T18:01:33.350Z</time>
      </trkpt>
      <trkpt lat="43.13896" lon="3.11837">
        <ele>62.973098754883</ele>
        <time>2021-01-03T18:01:34.557Z</time>
      </trkpt>
      <trkpt lat="43.13919" lon="3.1184">
        <ele>62.777015686035</ele>
        <time>2021-01-03T18:01:35.768Z</time>
      </trkpt>
      <trkpt lat="43.13942" lon="3.11848">
        <ele>62.101623535156</ele>
        <time>2021-01-03T18:01:36.984Z</time>
      </trkpt>
      <trkpt lat="43.1395" lon="3.11849">
        <ele>62.073570251465</ele>
        <time>2021-01-03T18:01:38.202Z</time>
      </trkpt>
      <trkpt lat="43.1396" lon="3.11854">
        <ele>61.782730102539</ele>
        <time>2021-01-03T18:01:39.422Z</time>
      </trkpt>
      <trkpt lat="43.1397" lon="3.11854">
        <ele>62.278873443604</ele>
        <time>2021-01-03T18:01:40.644Z</time>
      </trkpt>
      <trkpt lat="43.13975" lon="3.11857">
        <ele>62.479782104492</ele>
        <time>2021-01-03T18:01:41.867Z</time>
      </trkpt>
      <trkpt lat="43.14011" lon="3.1185">
        <ele>64.768424987793</ele>
        <time>2021-01-03T18:01:43.097Z</time>
      </trkpt>
      <trkpt lat="43.14024" lon="3.11857">
        <ele>65.646591186523</ele>
        <time>2021-01-03T18:01:44.330Z</time>
      </trkpt>
      <trkpt lat="43.14032" lon="3.11864">
        <ele>66.514373779297</ele>
        <time>2021-01-03T18:01:45.565Z</time>
      </trkpt>
      <trkpt lat="43.14028" lon="3.11877">
        <ele>66.053840637207</ele>
        <time>2021-01-03T18:01:46.802Z</time>
      </trkpt>
      <trkpt lat="43.14022" lon="3.11905">
        <ele>64.523139953613</ele>
        <time>2021-01-03T18:01:48.043Z</time>
      </trkpt>
      <trkpt lat="43.14026" lon="3.11906">
        <ele>64.886566162109</ele>
        <time>2021-01-03T18:01:49.285Z</time>
      </trkpt>
      <trkpt lat="43.14035" lon="3.11906">
        <ele>65.814865112305</ele>
        <time>2021-01-03T18:01:50.529Z</time>
      </trkpt>
      <trkpt lat="43.14049" lon="3.11898">
        <ele>67.61791229248</ele>
        <time>2021-01-03T18:01:51.776Z</time>
      </trkpt>
      <trkpt lat="43.14059" lon="3.11887">
        <ele>68.979522705078</ele>
        <time>2021-01-03T18:01:53.025Z</time>
      </trkpt>
      <trkpt lat="43.14067" lon="3.11871">
        <ele>69.259346008301</ele>
        <time>2021-01-03T18:01:54.277Z</time>
      </trkpt>
      <trkpt lat="43.14079" lon="3.11852">
        <ele>70.417861938477</ele>
        <time>2021-01-03T18:01:55.533Z</time>
      </trkpt>
      <trkpt lat="43.14093" lon="3.11843">
        <ele>71.443359375</ele>
        <time>2021-01-03T18:01:56.792Z</time>
      </trkpt>
      <trkpt lat="43.14111" lon="3.11842">
        <ele>71.706520080566</ele>
        <time>2021-01-03T18:01:58.054Z</time>
      </trkpt>
      <trkpt lat="43.14127" lon="3.11848">
        <ele>71.925704956055</ele>
        <time>2021-01-03T18:01:59.320Z</time>
      </trkpt>
      <trkpt lat="43.1414" lon="3.11855">
        <ele>72.665870666504</ele>
        <time>2021-01-03T18:02:00.589Z</time>
      </trkpt>
      <trkpt lat="43.14157" lon="3.11869">
        <ele>73.310523986816</ele>
        <time>2021-01-03T18:02:01.861Z</time>
      </trkpt>
      <trkpt lat="43.14169" lon="3.11876">
        <ele>73.073249816895</ele>
        <time>2021-01-03T18:02:03.136Z</time>
      </trkpt>
      <trkpt lat="43.1419" lon="3.11851">
        <ele>73.590438842773</ele>
        <time>2021-01-03T18:02:04.417Z</time>
      </trkpt>
      <trkpt lat="43.14198" lon="3.11837">
        <ele>73.025115966797</ele>
        <time>2021-01-03T18:02:05.700Z</time>
      </trkpt>
      <trkpt lat="43.14199" lon="3.11826">
        <ele>72.947891235352</ele>
        <time>2021-01-03T18:02:06.985Z</time>
      </trkpt>
      <trkpt lat="43.14214" lon="3.11768">
        <ele>68.846809387207</ele>
        <time>2021-01-03T18:02:08.279Z</time>
      </trkpt>
      <trkpt lat="43.14225" lon="3.11759">
        <ele>67.066986083984</ele>
        <time>2021-01-03T18:02:09.575Z</time>
      </trkpt>
      <trkpt lat="43.14233" lon="3.11761">
        <ele>66.362899780273</ele>
        <time>2021-01-03T18:02:10.873Z</time>
      </trkpt>
      <trkpt lat="43.14236" lon="3.11772">
        <ele>66.827461242676</ele>
        <time>2021-01-03T18:02:12.173Z</time>
      </trkpt>
      <trkpt lat="43.14235" lon="3.11796">
        <ele>68.573501586914</ele>
        <time>2021-01-03T18:02:13.476Z</time>
      </trkpt>
      <trkpt lat="43.14238" lon="3.11821">
        <ele>69.152694702148</ele>
        <time>2021-01-03T18:02:14.783Z</time>
      </trkpt>
      <trkpt lat="43.14231" lon="3.11866">
        <ele>70.639549255371</ele>
        <time>2021-01-03T18:02:16.097Z</time>
      </trkpt>
      <trkpt lat="43.14233" lon="3.11905">
        <ele>70.301300048828</ele>
        <time>2021-01-03T18:02:17.416Z</time>
      </trkpt>
      <trkpt lat="43.14231" lon="3.11911">
        <ele>70.339080810547</ele>
        <time>2021-01-03T18:02:18.736Z</time>
      </trkpt>
      <trkpt lat="43.14213" lon="3.11911">
        <ele>70.839141845703</ele>
        <time>2021-01-03T18:02:20.060Z</time>
      </trkpt>
      <trkpt lat="43.14201" lon="3.11906">
        <ele>71.389404296875</ele>
        <time>2021-01-03T18:02:21.386Z</time>
      </trkpt>
      <trkpt lat="43.14182" lon="3.11885">
        <ele>72.750770568848</ele>
        <time>2021-01-03T18:02:22.717Z</time>
      </trkpt>
      <trkpt lat="43.1417" lon="3.11859">
        <ele>73.690452575684</ele>
        <time>2021-01-03T18:02:24.053Z</time>
      </trkpt>
      <trkpt lat="43.1416" lon="3.11855">
        <ele>73.844909667969</ele>
        <time>2021-01-03T18:02:25.391Z</time>
      </trkpt>
      <trkpt lat="43.14129" lon="3.11833">
        <ele>71.994789123535</ele>
        <time>2021-01-03T18:02:26.736Z</time>
      </trkpt>
      <trkpt lat="43.1411" lon="3.11832">
        <ele>71.327629089355</ele>
        <time>2021-01-03T18:02:28.085Z</time>
      </trkpt>
      <trkpt lat="43.141" lon="3.1183">
        <ele>71.187545776367</ele>
        <time>2021-01-03T18:02:29.436Z</time>
      </trkpt>
      <trkpt lat="43.14074" lon="3.11841">
        <ele>70.064910888672</ele>
        <time>2021-01-03T18:02:30.792Z</time>
      </trkpt>
      <trkpt lat="43.14065" lon="3.11854">
        <ele>69.069297790527</ele>
        <time>2021-01-03T18:02:32.151Z</time>
      </trkpt>
      <trkpt lat="43.14057" lon="3.11873">
        <ele>68.61939239502</ele>
        <time>2021-01-03T18:02:33.513Z</time>
      </trkpt>
      <trkpt lat="43.14049" lon="3.11888">
        <ele>68.005554199219</ele>
        <time>2021-01-03T18:02:34.878Z</time>
      </trkpt>
      <trkpt lat="43.14043" lon="3.11894">
        <ele>67.179298400879</ele>
        <time>2021-01-03T18:02:36.244Z</time>
      </trkpt>
      <trkpt lat="43.14037" lon="3.11894">
        <ele>66.500549316406</ele>
        <time>2021-01-03T18:02:37.611Z</time>
      </trkpt>
      <trkpt lat="43.1403" lon="3.11898">
        <ele>65.565994262695</ele>
        <time>2021-01-03T18:02:38.980Z</time>
      </trkpt>
      <trkpt lat="43.14013" lon="3.11901">
        <ele>63.611274719238</ele>
        <time>2021-01-03T18:02:40.352Z</time>
      </trkpt>
      <trkpt lat="43.13997" lon="3.11916">
        <ele>60.286926269531</ele>
        <time>2021-01-03T18:02:41.728Z</time>
      </trkpt>
      <trkpt lat="43.14013" lon="3.11997">
        <ele>58.048988342285</ele>
        <time>2021-01-03T18:02:43.117Z</time>
      </trkpt>
      <trkpt lat="43.14006" lon="3.12043">
        <ele>56.163467407227</ele>
        <time>2021-01-03T18:02:44.512Z</time>
      </trkpt>
      <trkpt lat="43.13992" lon="3.12073">
        <ele>55.14546585083</ele>
        <time>2021-01-03T18:02:45.913Z</time>
      </trkpt>
      <trkpt lat="43.13977" lon="3.12165">
        <ele>52.540687561035</ele>
        <time>2021-01-03T18:02:47.327Z</time>
      </trkpt>
      <trkpt lat="43.1397" lon="3.12189">
        <ele>52.112968444824</ele>
        <time>2021-01-03T18:02:48.745Z</time>
      </trkpt>
      <trkpt lat="43.13964" lon="3.12205">
        <ele>52</ele>
        <time>2021-01-03T18:02:50.166Z</time>
      </trkpt>
      <trkpt lat="43.13961" lon="3.1218">
        <ele>51.952140808105</ele>
        <time>2021-01-03T18:02:51.591Z</time>
      </trkpt>
      <trkpt lat="43.13958" lon="3.12133">
        <ele>51.723281860352</ele>
        <time>2021-01-03T18:02:53.022Z</time>
      </trkpt>
      <trkpt lat="43.13952" lon="3.12105">
        <ele>51.225536346436</ele>
        <time>2021-01-03T18:02:54.458Z</time>
      </trkpt>
      <trkpt lat="43.13951" lon="3.12083">
        <ele>50.770427703857</ele>
        <time>2021-01-03T18:02:55.897Z</time>
      </trkpt>
      <trkpt lat="43.13932" lon="3.12095">
        <ele>49.80774307251</ele>
        <time>2021-01-03T18:02:57.340Z</time>
      </trkpt>
      <trkpt lat="43.13911" lon="3.12123">
        <ele>48.328948974609</ele>
        <time>2021-01-03T18:02:58.789Z</time>
      </trkpt>
      <trkpt lat="43.13892" lon="3.12143">
        <ele>48.371658325195</ele>
        <time>2021-01-03T18:03:00.243Z</time>
      </trkpt>
      <trkpt lat="43.13874" lon="3.12173">
        <ele>46</ele>
        <time>2021-01-03T18:03:01.703Z</time>
      </trkpt>
      <trkpt lat="43.13855" lon="3.12209">
        <ele>44.300518035889</ele>
        <time>2021-01-03T18:03:03.169Z</time>
      </trkpt>
      <trkpt lat="43.13843" lon="3.12222">
        <ele>43.697460174561</ele>
        <time>2021-01-03T18:03:04.638Z</time>
      </trkpt>
      <trkpt lat="43.13839" lon="3.12232">
        <ele>43.398548126221</ele>
        <time>2021-01-03T18:03:06.109Z</time>
      </trkpt>
      <trkpt lat="43.13831" lon="3.12284">
        <ele>39.911937713623</ele>
        <time>2021-01-03T18:03:07.588Z</time>
      </trkpt>
      <trkpt lat="43.13831" lon="3.12301">
        <ele>38.887817382812</ele>
        <time>2021-01-03T18:03:09.069Z</time>
      </trkpt>
      <trkpt lat="43.13822" lon="3.12311">
        <ele>36.711853027344</ele>
        <time>2021-01-03T18:03:10.553Z</time>
      </trkpt>
      <trkpt lat="43.13809" lon="3.1234">
        <ele>34.663536071777</ele>
        <time>2021-01-03T18:03:12.042Z</time>
      </trkpt>
      <trkpt lat="43.13799" lon="3.12354">
        <ele>32.520046234131</ele>
        <time>2021-01-03T18:03:13.533Z</time>
      </trkpt>
      <trkpt lat="43.13794" lon="3.12366">
        <ele>32</ele>
        <time>2021-01-03T18:03:15.026Z</time>
      </trkpt>
      <trkpt lat="43.13807" lon="3.12382">
        <ele>33.725280761719</ele>
        <time>2021-01-03T18:03:16.523Z</time>
      </trkpt>
      <trkpt lat="43.13809" lon="3.12411">
        <ele>34.86547088623</ele>
        <time>2021-01-03T18:03:18.024Z</time>
      </trkpt>
      <trkpt lat="43.13806" lon="3.12471">
        <ele>34.121875762939</ele>
        <time>2021-01-03T18:03:19.534Z</time>
      </trkpt>
      <trkpt lat="43.13805" lon="3.12545">
        <ele>29.325998306274</ele>
        <time>2021-01-03T18:03:21.055Z</time>
      </trkpt>
      <trkpt lat="43.13802" lon="3.12574">
        <ele>27.169916152954</ele>
        <time>2021-01-03T18:03:22.580Z</time>
      </trkpt>
      <trkpt lat="43.138" lon="3.12575">
        <ele>27.116521835327</ele>
        <time>2021-01-03T18:03:24.105Z</time>
      </trkpt>
      <trkpt lat="43.13797" lon="3.1258">
        <ele>27</ele>
        <time>2021-01-03T18:03:25.631Z</time>
      </trkpt>
      <trkpt lat="43.13789" lon="3.12601">
        <ele>26.536998748779</ele>
        <time>2021-01-03T18:03:27.161Z</time>
      </trkpt>
      <trkpt lat="43.13779" lon="3.12619">
        <ele>25.78910446167</ele>
        <time>2021-01-03T18:03:28.694Z</time>
      </trkpt>
      <trkpt lat="43.13763" lon="3.12653">
        <ele>24.476240158081</ele>
        <time>2021-01-03T18:03:30.233Z</time>
      </trkpt>
      <trkpt lat="43.13755" lon="3.12666">
        <ele>22.861730575562</ele>
        <time>2021-01-03T18:03:31.775Z</time>
      </trkpt>
      <trkpt lat="43.13736" lon="3.12689">
        <ele>19.874410629272</ele>
        <time>2021-01-03T18:03:33.322Z</time>
      </trkpt>
      <trkpt lat="43.13722" lon="3.12711">
        <ele>19.093046188354</ele>
        <time>2021-01-03T18:03:34.873Z</time>
      </trkpt>
      <trkpt lat="43.13723" lon="3.1274">
        <ele>19.57751083374</ele>
        <time>2021-01-03T18:03:36.428Z</time>
      </trkpt>
      <trkpt lat="43.1372" lon="3.12747">
        <ele>19.686714172363</ele>
        <time>2021-01-03T18:03:37.984Z</time>
      </trkpt>
      <trkpt lat="43.13714" lon="3.12753">
        <ele>19.202239990234</ele>
        <time>2021-01-03T18:03:39.542Z</time>
      </trkpt>
      <trkpt lat="43.1371" lon="3.12759">
        <ele>19.171533584595</ele>
        <time>2021-01-03T18:03:41.101Z</time>
      </trkpt>
      <trkpt lat="43.13708" lon="3.12775">
        <ele>19.624223709106</ele>
        <time>2021-01-03T18:03:42.662Z</time>
      </trkpt>
      <trkpt lat="43.13708" lon="3.12801">
        <ele>20.790521621704</ele>
        <time>2021-01-03T18:03:44.227Z</time>
      </trkpt>
      <trkpt lat="43.13712" lon="3.12818">
        <ele>21.772439956665</ele>
        <time>2021-01-03T18:03:45.795Z</time>
      </trkpt>
      <trkpt lat="43.13732" lon="3.1285">
        <ele>24.907800674438</ele>
        <time>2021-01-03T18:03:47.369Z</time>
      </trkpt>
      <trkpt lat="43.13747" lon="3.12865">
        <ele>25.510412216187</ele>
        <time>2021-01-03T18:03:48.947Z</time>
      </trkpt>
      <trkpt lat="43.1376" lon="3.12885">
        <ele>25.209468841553</ele>
        <time>2021-01-03T18:03:50.529Z</time>
      </trkpt>
      <trkpt lat="43.13777" lon="3.12895">
        <ele>25.744647979736</ele>
        <time>2021-01-03T18:03:52.114Z</time>
      </trkpt>
      <trkpt lat="43.1379" lon="3.1289">
        <ele>26.387796401978</ele>
        <time>2021-01-03T18:03:53.702Z</time>
      </trkpt>
      <trkpt lat="43.13791" lon="3.12873">
        <ele>27.26763343811</ele>
        <time>2021-01-03T18:03:55.293Z</time>
      </trkpt>
      <trkpt lat="43.13789" lon="3.12848">
        <ele>28.863842010498</ele>
        <time>2021-01-03T18:03:56.887Z</time>
      </trkpt>
      <trkpt lat="43.13789" lon="3.12827">
        <ele>29.62645149231</ele>
        <time>2021-01-03T18:03:58.484Z</time>
      </trkpt>
      <trkpt lat="43.13786" lon="3.1281">
        <ele>29.654586791992</ele>
        <time>2021-01-03T18:04:00.084Z</time>
      </trkpt>
      <trkpt lat="43.13791" lon="3.12795">
        <ele>29.833236694336</ele>
        <time>2021-01-03T18:04:01.686Z</time>
      </trkpt>
      <trkpt lat="43.13807" lon="3.1279">
        <ele>31.233488082886</ele>
        <time>2021-01-03T18:04:03.291Z</time>
      </trkpt>
      <trkpt lat="43.13842" lon="3.12796">
        <ele>34.993976593018</ele>
        <time>2021-01-03T18:04:04.904Z</time>
      </trkpt>
      <trkpt lat="43.13856" lon="3.12794">
        <ele>36.394878387451</ele>
        <time>2021-01-03T18:04:06.519Z</time>
      </trkpt>
      <trkpt lat="43.13869" lon="3.12795">
        <ele>37.289615631104</ele>
        <time>2021-01-03T18:04:08.137Z</time>
      </trkpt>
      <trkpt lat="43.13895" lon="3.12782">
        <ele>40.16934967041</ele>
        <time>2021-01-03T18:04:09.761Z</time>
      </trkpt>
      <trkpt lat="43.13909" lon="3.12771">
        <ele>41.178119659424</ele>
        <time>2021-01-03T18:04:11.388Z</time>
      </trkpt>
      <trkpt lat="43.13926" lon="3.12762">
        <ele>42.380554199219</ele>
        <time>2021-01-03T18:04:13.018Z</time>
      </trkpt>
      <trkpt lat="43.13943" lon="3.12748">
        <ele>42.311344146729</ele>
        <time>2021-01-03T18:04:14.652Z</time>
      </trkpt>
      <trkpt lat="43.13962" lon="3.12739">
        <ele>43</ele>
        <time>2021-01-03T18:04:16.290Z</time>
      </trkpt>
      <trkpt lat="43.13973" lon="3.12728">
        <ele>43</ele>
        <time>2021-01-03T18:04:17.931Z</time>
      </trkpt>
      <trkpt lat="43.13987" lon="3.12709">
        <ele>44</ele>
        <time>2021-01-03T18:04:19.576Z</time>
      </trkpt>
      <trkpt lat="43.1401" lon="3.12682">
        <ele>45.503753662109</ele>
        <time>2021-01-03T18:04:21.227Z</time>
      </trkpt>
      <trkpt lat="43.14018" lon="3.12647">
        <ele>46.333652496338</ele>
        <time>2021-01-03T18:04:22.883Z</time>
      </trkpt>
      <trkpt lat="43.14016" lon="3.12633">
        <ele>46.756286621094</ele>
        <time>2021-01-03T18:04:24.542Z</time>
      </trkpt>
      <trkpt lat="43.14012" lon="3.12622">
        <ele>46.356071472168</ele>
        <time>2021-01-03T18:04:26.202Z</time>
      </trkpt>
      <trkpt lat="43.14008" lon="3.126">
        <ele>45.977783203125</ele>
        <time>2021-01-03T18:04:27.866Z</time>
      </trkpt>
      <trkpt lat="43.14009" lon="3.12573">
        <ele>46.006740570068</ele>
        <time>2021-01-03T18:04:29.534Z</time>
      </trkpt>
      <trkpt lat="43.14021" lon="3.12516">
        <ele>46.161552429199</ele>
        <time>2021-01-03T18:04:31.210Z</time>
      </trkpt>
      <trkpt lat="43.1403" lon="3.12495">
        <ele>46.522605895996</ele>
        <time>2021-01-03T18:04:32.890Z</time>
      </trkpt>
      <trkpt lat="43.14047" lon="3.12469">
        <ele>49.138946533203</ele>
        <time>2021-01-03T18:04:34.575Z</time>
      </trkpt>
      <trkpt lat="43.14066" lon="3.12432">
        <ele>51.182422637939</ele>
        <time>2021-01-03T18:04:36.267Z</time>
      </trkpt>
      <trkpt lat="43.14083" lon="3.12404">
        <ele>52.621288299561</ele>
        <time>2021-01-03T18:04:37.964Z</time>
      </trkpt>
      <trkpt lat="43.14102" lon="3.12418">
        <ele>54.074001312256</ele>
        <time>2021-01-03T18:04:39.665Z</time>
      </trkpt>
      <trkpt lat="43.1413" lon="3.12431">
        <ele>56.026161193848</ele>
        <time>2021-01-03T18:04:41.372Z</time>
      </trkpt>
      <trkpt lat="43.14156" lon="3.12446">
        <ele>56.551235198975</ele>
        <time>2021-01-03T18:04:43.085Z</time>
      </trkpt>
      <trkpt lat="43.14177" lon="3.12464">
        <ele>56.742931365967</ele>
        <time>2021-01-03T18:04:44.803Z</time>
      </trkpt>
      <trkpt lat="43.14195" lon="3.12472">
        <ele>56.636241912842</ele>
        <time>2021-01-03T18:04:46.524Z</time>
      </trkpt>
      <trkpt lat="43.14205" lon="3.12468">
        <ele>56.266700744629</ele>
        <time>2021-01-03T18:04:48.248Z</time>
      </trkpt>
      <trkpt lat="43.14209" lon="3.12464">
        <ele>56.111343383789</ele>
        <time>2021-01-03T18:04:49.973Z</time>
      </trkpt>
      <trkpt lat="43.14213" lon="3.12464">
        <ele>55.893058776855</ele>
        <time>2021-01-03T18:04:51.698Z</time>
      </trkpt>
      <trkpt lat="43.14216" lon="3.12469">
        <ele>55.407379150391</ele>
        <time>2021-01-03T18:04:53.424Z</time>
      </trkpt>
      <trkpt lat="43.14215" lon="3.12479">
        <ele>55.473743438721</ele>
        <time>2021-01-03T18:04:55.152Z</time>
      </trkpt>
      <trkpt lat="43.14208" lon="3.12515">
        <ele>57.065971374512</ele>
        <time>2021-01-03T18:04:56.885Z</time>
      </trkpt>
      <trkpt lat="43.14192" lon="3.12538">
        <ele>58.239799499512</ele>
        <time>2021-01-03T18:04:58.623Z</time>
      </trkpt>
      <trkpt lat="43.14177" lon="3.12589">
        <ele>57.305320739746</ele>
        <time>2021-01-03T18:05:00.369Z</time>
      </trkpt>
      <trkpt lat="43.14174" lon="3.12608">
        <ele>56.171222686768</ele>
        <time>2021-01-03T18:05:02.118Z</time>
      </trkpt>
      <trkpt lat="43.14173" lon="3.12639">
        <ele>53.677364349365</ele>
        <time>2021-01-03T18:05:03.871Z</time>
      </trkpt>
      <trkpt lat="43.14168" lon="3.12662">
        <ele>51.587985992432</ele>
        <time>2021-01-03T18:05:05.628Z</time>
      </trkpt>
      <trkpt lat="43.1417" lon="3.12682">
        <ele>50.173175811768</ele>
        <time>2021-01-03T18:05:07.388Z</time>
      </trkpt>
      <trkpt lat="43.1418" lon="3.12687">
        <ele>49.880851745605</ele>
        <time>2021-01-03T18:05:09.150Z</time>
      </trkpt>
      <trkpt lat="43.14186" lon="3.12696">
        <ele>49.42573928833</ele>
        <time>2021-01-03T18:05:10.914Z</time>
      </trkpt>
      <trkpt lat="43.14191" lon="3.12718">
        <ele>48.317722320557</ele>
        <time>2021-01-03T18:05:12.681Z</time>
      </trkpt>
      <trkpt lat="43.14195" lon="3.12724">
        <ele>47.830234527588</ele>
        <time>2021-01-03T18:05:14.449Z</time>
      </trkpt>
      <trkpt lat="43.14202" lon="3.12721">
        <ele>47.39221572876</ele>
        <time>2021-01-03T18:05:16.219Z</time>
      </trkpt>
      <trkpt lat="43.14209" lon="3.12704">
        <ele>47.515598297119</ele>
        <time>2021-01-03T18:05:17.992Z</time>
      </trkpt>
      <trkpt lat="43.14216" lon="3.12702">
        <ele>47.004608154297</ele>
        <time>2021-01-03T18:05:19.766Z</time>
      </trkpt>
      <trkpt lat="43.14223" lon="3.1275">
        <ele>44.474903106689</ele>
        <time>2021-01-03T18:05:21.547Z</time>
      </trkpt>
      <trkpt lat="43.14229" lon="3.12754">
        <ele>43.668853759766</ele>
        <time>2021-01-03T18:05:23.330Z</time>
      </trkpt>
      <trkpt lat="43.14235" lon="3.12768">
        <ele>42.781959533691</ele>
        <time>2021-01-03T18:05:25.115Z</time>
      </trkpt>
      <trkpt lat="43.14226" lon="3.12777">
        <ele>43.962074279785</ele>
        <time>2021-01-03T18:05:26.902Z</time>
      </trkpt>
      <trkpt lat="43.14214" lon="3.12819">
        <ele>45.712059020996</ele>
        <time>2021-01-03T18:05:28.696Z</time>
      </trkpt>
      <trkpt lat="43.14209" lon="3.12844">
        <ele>44.602855682373</ele>
        <time>2021-01-03T18:05:30.494Z</time>
      </trkpt>
      <trkpt lat="43.14206" lon="3.12869">
        <ele>43.798145294189</ele>
        <time>2021-01-03T18:05:32.295Z</time>
      </trkpt>
      <trkpt lat="43.14208" lon="3.12895">
        <ele>41.991325378418</ele>
        <time>2021-01-03T18:05:34.100Z</time>
      </trkpt>
      <trkpt lat="43.14197" lon="3.12914">
        <ele>41.592254638672</ele>
        <time>2021-01-03T18:05:35.909Z</time>
      </trkpt>
      <trkpt lat="43.1419" lon="3.12933">
        <ele>40.684242248535</ele>
        <time>2021-01-03T18:05:37.721Z</time>
      </trkpt>
      <trkpt lat="43.14192" lon="3.12943">
        <ele>39.747974395752</ele>
        <time>2021-01-03T18:05:39.534Z</time>
      </trkpt>
      <trkpt lat="43.14192" lon="3.12962">
        <ele>37.778705596924</ele>
        <time>2021-01-03T18:05:41.350Z</time>
      </trkpt>
      <trkpt lat="43.14187" lon="3.1298">
        <ele>35.866199493408</ele>
        <time>2021-01-03T18:05:43.169Z</time>
      </trkpt>
      <trkpt lat="43.14191" lon="3.12999">
        <ele>33.432357788086</ele>
        <time>2021-01-03T18:05:44.991Z</time>
      </trkpt>
      <trkpt lat="43.14192" lon="3.13022">
        <ele>31.658569335938</ele>
        <time>2021-01-03T18:05:46.816Z</time>
      </trkpt>
      <trkpt lat="43.1419" lon="3.13037">
        <ele>29.718343734741</ele>
        <time>2021-01-03T18:05:48.643Z</time>
      </trkpt>
      <trkpt lat="43.14184" lon="3.13048">
        <ele>28.674488067627</ele>
        <time>2021-01-03T18:05:50.472Z</time>
      </trkpt>
      <trkpt lat="43.14182" lon="3.13056">
        <ele>27.442487716675</ele>
        <time>2021-01-03T18:05:52.303Z</time>
      </trkpt>
      <trkpt lat="43.1418" lon="3.1307">
        <ele>25.326917648315</ele>
        <time>2021-01-03T18:05:54.136Z</time>
      </trkpt>
      <trkpt lat="43.14182" lon="3.13083">
        <ele>23.531959533691</ele>
        <time>2021-01-03T18:05:55.971Z</time>
      </trkpt>
      <trkpt lat="43.14176" lon="3.13102">
        <ele>20.627765655518</ele>
        <time>2021-01-03T18:05:57.809Z</time>
      </trkpt>
      <trkpt lat="43.14169" lon="3.13109">
        <ele>19.866363525391</ele>
        <time>2021-01-03T18:05:59.648Z</time>
      </trkpt>
      <trkpt lat="43.1416" lon="3.13134">
        <ele>16.766357421875</ele>
        <time>2021-01-03T18:06:01.492Z</time>
      </trkpt>
      <trkpt lat="43.14155" lon="3.13142">
        <ele>15.45636177063</ele>
        <time>2021-01-03T18:06:03.337Z</time>
      </trkpt>
      <trkpt lat="43.14139" lon="3.13154">
        <ele>13.026081085205</ele>
        <time>2021-01-03T18:06:05.186Z</time>
      </trkpt>
      <trkpt lat="43.14119" lon="3.13148">
        <ele>13.514342308044</ele>
        <time>2021-01-03T18:06:07.039Z</time>
      </trkpt>
      <trkpt lat="43.14097" lon="3.13129">
        <ele>16.790016174316</ele>
        <time>2021-01-03T18:06:08.897Z</time>
      </trkpt>
      <trkpt lat="43.14091" lon="3.13115">
        <ele>19.53858757019</ele>
        <time>2021-01-03T18:06:10.758Z</time>
      </trkpt>
      <trkpt lat="43.14079" lon="3.13103">
        <ele>21.687948226929</ele>
        <time>2021-01-03T18:06:12.621Z</time>
      </trkpt>
      <trkpt lat="43.14072" lon="3.1309">
        <ele>23.355751037598</ele>
        <time>2021-01-03T18:06:14.487Z</time>
      </trkpt>
      <trkpt lat="43.14045" lon="3.13068">
        <ele>23.848262786865</ele>
        <time>2021-01-03T18:06:16.359Z</time>
      </trkpt>
      <trkpt lat="43.1404" lon="3.13054">
        <ele>26.082391738892</ele>
        <time>2021-01-03T18:06:18.233Z</time>
      </trkpt>
      <trkpt lat="43.14036" lon="3.13026">
        <ele>31.079698562622</ele>
        <time>2021-01-03T18:06:20.111Z</time>
      </trkpt>
      <trkpt lat="43.14012" lon="3.12999">
        <ele>32.533008575439</ele>
        <time>2021-01-03T18:06:21.996Z</time>
      </trkpt>
      <trkpt lat="43.14002" lon="3.12986">
        <ele>33.137134552002</ele>
        <time>2021-01-03T18:06:23.883Z</time>
      </trkpt>
      <trkpt lat="43.13993" lon="3.1298">
        <ele>32.88011932373</ele>
        <time>2021-01-03T18:06:25.772Z</time>
      </trkpt>
      <trkpt lat="43.13981" lon="3.12961">
        <ele>33.438022613525</ele>
        <time>2021-01-03T18:06:27.665Z</time>
      </trkpt>
      <trkpt lat="43.13965" lon="3.12959">
        <ele>32.55354309082</ele>
        <time>2021-01-03T18:06:29.561Z</time>
      </trkpt>
      <trkpt lat="43.13948" lon="3.12949">
        <ele>31.951454162598</ele>
        <time>2021-01-03T18:06:31.461Z</time>
      </trkpt>
      <trkpt lat="43.13934" lon="3.12946">
        <ele>30.205419540405</ele>
        <time>2021-01-03T18:06:33.364Z</time>
      </trkpt>
      <trkpt lat="43.13907" lon="3.12946">
        <ele>26.299463272095</ele>
        <time>2021-01-03T18:06:35.272Z</time>
      </trkpt>
      <trkpt lat="43.13849" lon="3.12959">
        <ele>21.361330032349</ele>
        <time>2021-01-03T18:06:37.192Z</time>
      </trkpt>
      <trkpt lat="43.13845" lon="3.12962">
        <ele>20.809886932373</ele>
        <time>2021-01-03T18:06:39.113Z</time>
      </trkpt>
      <trkpt lat="43.13832" lon="3.12985">
        <ele>18.097503662109</ele>
        <time>2021-01-03T18:06:41.038Z</time>
      </trkpt>
      <trkpt lat="43.13803" lon="3.13013">
        <ele>13.976539611816</ele>
        <time>2021-01-03T18:06:42.970Z</time>
      </trkpt>
      <trkpt lat="43.13788" lon="3.13016">
        <ele>13.248930931091</ele>
        <time>2021-01-03T18:06:44.905Z</time>
      </trkpt>
      <trkpt lat="43.13746" lon="3.13006">
        <ele>13.099858283997</ele>
        <time>2021-01-03T18:06:46.849Z</time>
      </trkpt>
      <trkpt lat="43.13725" lon="3.12988">
        <ele>13.479696273804</ele>
        <time>2021-01-03T18:06:48.798Z</time>
      </trkpt>
      <trkpt lat="43.13709" lon="3.12979">
        <ele>12.566618919373</ele>
        <time>2021-01-03T18:06:50.750Z</time>
      </trkpt>
      <trkpt lat="43.13684" lon="3.12959">
        <ele>12.149335861206</ele>
        <time>2021-01-03T18:06:52.708Z</time>
      </trkpt>
      <trkpt lat="43.1367" lon="3.12947">
        <ele>11.464000701904</ele>
        <time>2021-01-03T18:06:54.669Z</time>
      </trkpt>
      <trkpt lat="43.13661" lon="3.12938">
        <ele>11.253089904785</ele>
        <time>2021-01-03T18:06:56.633Z</time>
      </trkpt>
      <trkpt lat="43.13644" lon="3.12928">
        <ele>9.5561275482178</ele>
        <time>2021-01-03T18:06:58.600Z</time>
      </trkpt>
      <trkpt lat="43.13639" lon="3.12921">
        <ele>9.3745250701904</ele>
        <time>2021-01-03T18:07:00.569Z</time>
      </trkpt>
      <trkpt lat="43.13634" lon="3.12898">
        <ele>10.27018737793</ele>
        <time>2021-01-03T18:07:02.541Z</time>
      </trkpt>
      <trkpt lat="43.13629" lon="3.12888">
        <ele>9.7615814208984</ele>
        <time>2021-01-03T18:07:04.515Z</time>
      </trkpt>
      <trkpt lat="43.13628" lon="3.1285">
        <ele>10.853524208069</ele>
        <time>2021-01-03T18:07:06.495Z</time>
      </trkpt>
      <trkpt lat="43.13633" lon="3.12836">
        <ele>11.700782775879</ele>
        <time>2021-01-03T18:07:08.477Z</time>
      </trkpt>
      <trkpt lat="43.13639" lon="3.12828">
        <ele>12.688934326172</ele>
        <time>2021-01-03T18:07:10.461Z</time>
      </trkpt>
      <trkpt lat="43.13648" lon="3.12827">
        <ele>13.953210830688</ele>
        <time>2021-01-03T18:07:12.446Z</time>
      </trkpt>
      <trkpt lat="43.13656" lon="3.12832">
        <ele>15.298936843872</ele>
        <time>2021-01-03T18:07:14.433Z</time>
      </trkpt>
      <trkpt lat="43.13664" lon="3.12842">
        <ele>16.416704177856</ele>
        <time>2021-01-03T18:07:16.422Z</time>
      </trkpt>
      <trkpt lat="43.13679" lon="3.12873">
        <ele>17.675350189209</ele>
        <time>2021-01-03T18:07:18.417Z</time>
      </trkpt>
      <trkpt lat="43.13699" lon="3.12933">
        <ele>15.687259674072</ele>
        <time>2021-01-03T18:07:20.421Z</time>
      </trkpt>
      <trkpt lat="43.13702" lon="3.12937">
        <ele>15.597509384155</ele>
        <time>2021-01-03T18:07:22.426Z</time>
      </trkpt>
      <trkpt lat="43.13713" lon="3.12948">
        <ele>15.696996688843</ele>
        <time>2021-01-03T18:07:24.434Z</time>
      </trkpt>
      <trkpt lat="43.13753" lon="3.12964">
        <ele>19.057411193848</ele>
        <time>2021-01-03T18:07:26.450Z</time>
      </trkpt>
      <trkpt lat="43.13762" lon="3.12964">
        <ele>20.00252532959</ele>
        <time>2021-01-03T18:07:28.468Z</time>
      </trkpt>
      <trkpt lat="43.13766" lon="3.12962">
        <ele>20.728330612183</ele>
        <time>2021-01-03T18:07:30.487Z</time>
      </trkpt>
      <trkpt lat="43.13777" lon="3.12952">
        <ele>22.076417922974</ele>
        <time>2021-01-03T18:07:32.509Z</time>
      </trkpt>
      <trkpt lat="43.13784" lon="3.12932">
        <ele>24.087930679321</ele>
        <time>2021-01-03T18:07:34.534Z</time>
      </trkpt>
      <trkpt lat="43.13785" lon="3.12913">
        <ele>25.12579536438</ele>
        <time>2021-01-03T18:07:36.562Z</time>
      </trkpt>
      <trkpt lat="43.13785" lon="3.12885">
        <ele>26.415550231934</ele>
        <time>2021-01-03T18:07:38.594Z</time>
      </trkpt>
      <trkpt lat="43.13783" lon="3.12862">
        <ele>27.757234573364</ele>
        <time>2021-01-03T18:07:40.629Z</time>
      </trkpt>
      <trkpt lat="43.13782" lon="3.12838">
        <ele>28.973045349121</ele>
        <time>2021-01-03T18:07:42.668Z</time>
      </trkpt>
      <trkpt lat="43.13799" lon="3.12836">
        <ele>29.630373001099</ele>
        <time>2021-01-03T18:07:44.710Z</time>
      </trkpt>
      <trkpt lat="43.13881" lon="3.12843">
        <ele>35.863361358643</ele>
        <time>2021-01-03T18:07:46.769Z</time>
      </trkpt>
      <trkpt lat="43.13893" lon="3.12847">
        <ele>37.328845977783</ele>
        <time>2021-01-03T18:07:48.830Z</time>
      </trkpt>
      <trkpt lat="43.13916" lon="3.12866">
        <ele>38.522701263428</ele>
        <time>2021-01-03T18:07:50.896Z</time>
      </trkpt>
      <trkpt lat="43.13958" lon="3.12914">
        <ele>36.895401000977</ele>
        <time>2021-01-03T18:07:52.973Z</time>
      </trkpt>
      <trkpt lat="43.13982" lon="3.12937">
        <ele>36.116504669189</ele>
        <time>2021-01-03T18:07:55.056Z</time>
      </trkpt>
      <trkpt lat="43.13995" lon="3.12945">
        <ele>36.409843444824</ele>
        <time>2021-01-03T18:07:57.142Z</time>
      </trkpt>
      <trkpt lat="43.14013" lon="3.1295">
        <ele>37.263320922852</ele>
        <time>2021-01-03T18:07:59.232Z</time>
      </trkpt>
      <trkpt lat="43.14025" lon="3.12946">
        <ele>38.375843048096</ele>
        <time>2021-01-03T18:08:01.324Z</time>
      </trkpt>
      <trkpt lat="43.1405" lon="3.12936">
        <ele>41.106792449951</ele>
        <time>2021-01-03T18:08:03.422Z</time>
      </trkpt>
      <trkpt lat="43.14067" lon="3.12921">
        <ele>41.754020690918</ele>
        <time>2021-01-03T18:08:05.523Z</time>
      </trkpt>
      <trkpt lat="43.14106" lon="3.12879">
        <ele>43.167503356934</ele>
        <time>2021-01-03T18:08:07.634Z</time>
      </trkpt>
      <trkpt lat="43.14142" lon="3.12847">
        <ele>45</ele>
        <time>2021-01-03T18:08:09.754Z</time>
      </trkpt>
      <trkpt lat="43.14154" lon="3.12826">
        <ele>45.793815612793</ele>
        <time>2021-01-03T18:08:11.878Z</time>
      </trkpt>
      <trkpt lat="43.14173" lon="3.12808">
        <ele>47.11238861084</ele>
        <time>2021-01-03T18:08:14.006Z</time>
      </trkpt>
      <trkpt lat="43.1419" lon="3.12796">
        <ele>47.584403991699</ele>
        <time>2021-01-03T18:08:16.138Z</time>
      </trkpt>
      <trkpt lat="43.14231" lon="3.12783">
        <ele>43.310478210449</ele>
        <time>2021-01-03T18:08:18.279Z</time>
      </trkpt>
      <trkpt lat="43.14243" lon="3.12771">
        <ele>41.402759552002</ele>
        <time>2021-01-03T18:08:20.423Z</time>
      </trkpt>
      <trkpt lat="43.14235" lon="3.12749">
        <ele>42.725246429443</ele>
        <time>2021-01-03T18:08:22.570Z</time>
      </trkpt>
      <trkpt lat="43.1423" lon="3.12742">
        <ele>43.462516784668</ele>
        <time>2021-01-03T18:08:24.719Z</time>
      </trkpt>
      <trkpt lat="43.14221" lon="3.12699">
        <ele>46.524356842041</ele>
        <time>2021-01-03T18:08:26.874Z</time>
      </trkpt>
      <trkpt lat="43.14217" lon="3.12691">
        <ele>47.193447113037</ele>
        <time>2021-01-03T18:08:29.031Z</time>
      </trkpt>
      <trkpt lat="43.1421" lon="3.12692">
        <ele>47.868244171143</ele>
        <time>2021-01-03T18:08:31.189Z</time>
      </trkpt>
      <trkpt lat="43.142" lon="3.12711">
        <ele>47.950897216797</ele>
        <time>2021-01-03T18:08:33.351Z</time>
      </trkpt>
      <trkpt lat="43.14195" lon="3.12713">
        <ele>48.186199188232</ele>
        <time>2021-01-03T18:08:35.514Z</time>
      </trkpt>
      <trkpt lat="43.14194" lon="3.127">
        <ele>48.725574493408</ele>
        <time>2021-01-03T18:08:37.678Z</time>
      </trkpt>
      <trkpt lat="43.14188" lon="3.12686">
        <ele>49.674308776855</ele>
        <time>2021-01-03T18:08:39.845Z</time>
      </trkpt>
      <trkpt lat="43.14181" lon="3.12682">
        <ele>50.169555664062</ele>
        <time>2021-01-03T18:08:42.013Z</time>
      </trkpt>
      <trkpt lat="43.14175" lon="3.12675">
        <ele>50.655841827393</ele>
        <time>2021-01-03T18:08:44.183Z</time>
      </trkpt>
      <trkpt lat="43.14181" lon="3.12603">
        <ele>56.754039764404</ele>
        <time>2021-01-03T18:08:46.363Z</time>
      </trkpt>
      <trkpt lat="43.14187" lon="3.12575">
        <ele>58.552947998047</ele>
        <time>2021-01-03T18:08:48.548Z</time>
      </trkpt>
      <trkpt lat="43.14194" lon="3.12554">
        <ele>57.999881744385</ele>
        <time>2021-01-03T18:08:50.736Z</time>
      </trkpt>
      <trkpt lat="43.14203" lon="3.12534">
        <ele>57.34211730957</ele>
        <time>2021-01-03T18:08:52.927Z</time>
      </trkpt>
      <trkpt lat="43.14213" lon="3.12517">
        <ele>56.796432495117</ele>
        <time>2021-01-03T18:08:55.122Z</time>
      </trkpt>
      <trkpt lat="43.1422" lon="3.12484">
        <ele>54.702991485596</ele>
        <time>2021-01-03T18:08:57.322Z</time>
      </trkpt>
      <trkpt lat="43.14221" lon="3.12472">
        <ele>54.476741790771</ele>
        <time>2021-01-03T18:08:59.524Z</time>
      </trkpt>
      <trkpt lat="43.14219" lon="3.12461">
        <ele>54.767848968506</ele>
        <time>2021-01-03T18:09:01.727Z</time>
      </trkpt>
      <trkpt lat="43.14211" lon="3.12452">
        <ele>56.076080322266</ele>
        <time>2021-01-03T18:09:03.932Z</time>
      </trkpt>
      <trkpt lat="43.14218" lon="3.12407">
        <ele>55.138759613037</ele>
        <time>2021-01-03T18:09:06.144Z</time>
      </trkpt>
      <trkpt lat="43.14224" lon="3.12332">
        <ele>56.813865661621</ele>
        <time>2021-01-03T18:09:08.367Z</time>
      </trkpt>
      <trkpt lat="43.14233" lon="3.12315">
        <ele>56.742130279541</ele>
        <time>2021-01-03T18:09:10.593Z</time>
      </trkpt>
      <trkpt lat="43.14238" lon="3.12293">
        <ele>56.269088745117</ele>
        <time>2021-01-03T18:09:12.822Z</time>
      </trkpt>
      <trkpt lat="43.14232" lon="3.1226">
        <ele>58.439853668213</ele>
        <time>2021-01-03T18:09:15.057Z</time>
      </trkpt>
      <trkpt lat="43.14232" lon="3.12194">
        <ele>60.505363464355</ele>
        <time>2021-01-03T18:09:17.301Z</time>
      </trkpt>
      <trkpt lat="43.14229" lon="3.12183">
        <ele>61.000095367432</ele>
        <time>2021-01-03T18:09:19.547Z</time>
      </trkpt>
      <trkpt lat="43.14233" lon="3.12157">
        <ele>61.682823181152</ele>
        <time>2021-01-03T18:09:21.797Z</time>
      </trkpt>
      <trkpt lat="43.14245" lon="3.1213">
        <ele>62.737987518311</ele>
        <time>2021-01-03T18:09:24.051Z</time>
      </trkpt>
      <trkpt lat="43.1426" lon="3.12118">
        <ele>61.45955657959</ele>
        <time>2021-01-03T18:09:26.309Z</time>
      </trkpt>
      <trkpt lat="43.14265" lon="3.12121">
        <ele>60.643550872803</ele>
        <time>2021-01-03T18:09:28.568Z</time>
      </trkpt>
      <trkpt lat="43.14275" lon="3.1212">
        <ele>59.068832397461</ele>
        <time>2021-01-03T18:09:30.829Z</time>
      </trkpt>
      <trkpt lat="43.14319" lon="3.12108">
        <ele>55.663524627686</ele>
        <time>2021-01-03T18:09:33.099Z</time>
      </trkpt>
      <trkpt lat="43.14347" lon="3.12125">
        <ele>51.673793792725</ele>
        <time>2021-01-03T18:09:35.375Z</time>
      </trkpt>
      <trkpt lat="43.14361" lon="3.12127">
        <ele>50.106678009033</ele>
        <time>2021-01-03T18:09:37.654Z</time>
      </trkpt>
      <trkpt lat="43.14373" lon="3.12134">
        <ele>48.039813995361</ele>
        <time>2021-01-03T18:09:39.935Z</time>
      </trkpt>
      <trkpt lat="43.1439" lon="3.12151">
        <ele>44.327529907227</ele>
        <time>2021-01-03T18:09:42.221Z</time>
      </trkpt>
      <trkpt lat="43.14421" lon="3.12187">
        <ele>38.235347747803</ele>
        <time>2021-01-03T18:09:44.515Z</time>
      </trkpt>
      <trkpt lat="43.14431" lon="3.12196">
        <ele>36.498966217041</ele>
        <time>2021-01-03T18:09:46.811Z</time>
      </trkpt>
      <trkpt lat="43.14437" lon="3.12198">
        <ele>35.825771331787</ele>
        <time>2021-01-03T18:09:49.108Z</time>
      </trkpt>
      <trkpt lat="43.14443" lon="3.12197">
        <ele>35.487300872803</ele>
        <time>2021-01-03T18:09:51.407Z</time>
      </trkpt>
      <trkpt lat="43.14448" lon="3.12193">
        <ele>35.386547088623</ele>
        <time>2021-01-03T18:09:53.707Z</time>
      </trkpt>
      <trkpt lat="43.14451" lon="3.12188">
        <ele>35.496353149414</ele>
        <time>2021-01-03T18:09:56.008Z</time>
      </trkpt>
      <trkpt lat="43.14464" lon="3.12153">
        <ele>36.077453613281</ele>
        <time>2021-01-03T18:09:58.314Z</time>
      </trkpt>
      <trkpt lat="43.1447" lon="3.12146">
        <ele>36.123908996582</ele>
        <time>2021-01-03T18:10:00.622Z</time>
      </trkpt>
      <trkpt lat="43.14478" lon="3.12144">
        <ele>35.894039154053</ele>
        <time>2021-01-03T18:10:02.932Z</time>
      </trkpt>
      <trkpt lat="43.14488" lon="3.12144">
        <ele>35.51424407959</ele>
        <time>2021-01-03T18:10:05.244Z</time>
      </trkpt>
      <trkpt lat="43.1452" lon="3.12152">
        <ele>38.471828460693</ele>
        <time>2021-01-03T18:10:07.562Z</time>
      </trkpt>
      <trkpt lat="43.14523" lon="3.12151">
        <ele>39.179836273193</ele>
        <time>2021-01-03T18:10:09.881Z</time>
      </trkpt>
      <trkpt lat="43.14525" lon="3.12143">
        <ele>39.758129119873</ele>
        <time>2021-01-03T18:10:12.201Z</time>
      </trkpt>
      <trkpt lat="43.14515" lon="3.12105">
        <ele>40.308269500732</ele>
        <time>2021-01-03T18:10:14.527Z</time>
      </trkpt>
      <trkpt lat="43.14508" lon="3.12086">
        <ele>39.902763366699</ele>
        <time>2021-01-03T18:10:16.856Z</time>
      </trkpt>
      <trkpt lat="43.14479" lon="3.12025">
        <ele>38.324882507324</ele>
        <time>2021-01-03T18:10:19.196Z</time>
      </trkpt>
      <trkpt lat="43.14464" lon="3.1198">
        <ele>39.748008728027</ele>
        <time>2021-01-03T18:10:21.543Z</time>
      </trkpt>
      <trkpt lat="43.14461" lon="3.11945">
        <ele>42.751735687256</ele>
        <time>2021-01-03T18:10:23.895Z</time>
      </trkpt>
      <trkpt lat="43.14475" lon="3.11923">
        <ele>44.796813964844</ele>
        <time>2021-01-03T18:10:26.251Z</time>
      </trkpt>
      <trkpt lat="43.14536" lon="3.11852">
        <ele>50.538272857666</ele>
        <time>2021-01-03T18:10:28.623Z</time>
      </trkpt>
      <trkpt lat="43.14555" lon="3.11823">
        <ele>53.007823944092</ele>
        <time>2021-01-03T18:10:31.001Z</time>
      </trkpt>
      <trkpt lat="43.14569" lon="3.11809">
        <ele>53.819797515869</ele>
        <time>2021-01-03T18:10:33.383Z</time>
      </trkpt>
      <trkpt lat="43.14567" lon="3.11801">
        <ele>54.343185424805</ele>
        <time>2021-01-03T18:10:35.766Z</time>
      </trkpt>
      <trkpt lat="43.14563" lon="3.11796">
        <ele>54.55103302002</ele>
        <time>2021-01-03T18:10:38.150Z</time>
      </trkpt>
      <trkpt lat="43.14556" lon="3.11782">
        <ele>54.853603363037</ele>
        <time>2021-01-03T18:10:40.536Z</time>
      </trkpt>
      <trkpt lat="43.14551" lon="3.11778">
        <ele>54.802318572998</ele>
        <time>2021-01-03T18:10:42.924Z</time>
      </trkpt>
      <trkpt lat="43.14537" lon="3.11776">
        <ele>54.38692855835</ele>
        <time>2021-01-03T18:10:45.314Z</time>
      </trkpt>
      <trkpt lat="43.14524" lon="3.11723">
        <ele>58.282253265381</ele>
        <time>2021-01-03T18:10:47.713Z</time>
      </trkpt>
      <trkpt lat="43.14514" lon="3.11708">
        <ele>59.198837280273</ele>
        <time>2021-01-03T18:10:50.115Z</time>
      </trkpt>
      <trkpt lat="43.14507" lon="3.11719">
        <ele>57.812385559082</ele>
        <time>2021-01-03T18:10:52.519Z</time>
      </trkpt>
      <trkpt lat="43.145" lon="3.11726">
        <ele>56.868175506592</ele>
        <time>2021-01-03T18:10:54.924Z</time>
      </trkpt>
      <trkpt lat="43.14501" lon="3.11724">
        <ele>57.030170440674</ele>
        <time>2021-01-03T18:10:57.329Z</time>
      </trkpt>
      <trkpt lat="43.14502" lon="3.11738">
        <ele>55.597263336182</ele>
        <time>2021-01-03T18:10:59.736Z</time>
      </trkpt>
      <trkpt lat="43.145" lon="3.11743">
        <ele>55.123310089111</ele>
        <time>2021-01-03T18:11:02.144Z</time>
      </trkpt>
      <trkpt lat="43.14463" lon="3.11803">
        <ele>49.426071166992</ele>
        <time>2021-01-03T18:11:04.564Z</time>
      </trkpt>
      <trkpt lat="43.14451" lon="3.11818">
        <ele>49.625827789307</ele>
        <time>2021-01-03T18:11:06.987Z</time>
      </trkpt>
      <trkpt lat="43.14439" lon="3.11839">
        <ele>49.683380126953</ele>
        <time>2021-01-03T18:11:09.414Z</time>
      </trkpt>
      <trkpt lat="43.1442" lon="3.11902">
        <ele>46.320823669434</ele>
        <time>2021-01-03T18:11:11.851Z</time>
      </trkpt>
      <trkpt lat="43.14425" lon="3.11928">
        <ele>44.405254364014</ele>
        <time>2021-01-03T18:11:14.292Z</time>
      </trkpt>
      <trkpt lat="43.14426" lon="3.11946">
        <ele>42.644947052002</ele>
        <time>2021-01-03T18:11:16.736Z</time>
      </trkpt>
      <trkpt lat="43.14419" lon="3.11951">
        <ele>42.682933807373</ele>
        <time>2021-01-03T18:11:19.181Z</time>
      </trkpt>
      <trkpt lat="43.14389" lon="3.11961">
        <ele>48.368946075439</ele>
        <time>2021-01-03T18:11:21.632Z</time>
      </trkpt>
      <trkpt lat="43.1439" lon="3.11974">
        <ele>48.228645324707</ele>
        <time>2021-01-03T18:11:24.085Z</time>
      </trkpt>
      <trkpt lat="43.14402" lon="3.11999">
        <ele>45.747627258301</ele>
        <time>2021-01-03T18:11:26.543Z</time>
      </trkpt>
      <trkpt lat="43.14411" lon="3.12037">
        <ele>44.01838684082</ele>
        <time>2021-01-03T18:11:29.007Z</time>
      </trkpt>
      <trkpt lat="43.14413" lon="3.12055">
        <ele>43.809398651123</ele>
        <time>2021-01-03T18:11:31.473Z</time>
      </trkpt>
      <trkpt lat="43.1441" lon="3.12058">
        <ele>44.683925628662</ele>
        <time>2021-01-03T18:11:33.940Z</time>
      </trkpt>
      <trkpt lat="43.14408" lon="3.12056">
        <ele>45.091171264648</ele>
        <time>2021-01-03T18:11:36.407Z</time>
      </trkpt>
      <trkpt lat="43.14404" lon="3.12045">
        <ele>46.006561279297</ele>
        <time>2021-01-03T18:11:38.876Z</time>
      </trkpt>
      <trkpt lat="43.1438" lon="3.11994">
        <ele>53.73023223877</ele>
        <time>2021-01-03T18:11:41.354Z</time>
      </trkpt>
      <trkpt lat="43.14367" lon="3.11977">
        <ele>56.625949859619</ele>
        <time>2021-01-03T18:11:43.836Z</time>
      </trkpt>
      <trkpt lat="43.14357" lon="3.1196">
        <ele>57.867408752441</ele>
        <time>2021-01-03T18:11:46.321Z</time>
      </trkpt>
      <trkpt lat="43.14347" lon="3.11933">
        <ele>57.627277374268</ele>
        <time>2021-01-03T18:11:48.810Z</time>
      </trkpt>
      <trkpt lat="43.1434" lon="3.11901">
        <ele>58.124118804932</ele>
        <time>2021-01-03T18:11:51.304Z</time>
      </trkpt>
      <trkpt lat="43.14333" lon="3.11824">
        <ele>57.345901489258</ele>
        <time>2021-01-03T18:11:53.810Z</time>
      </trkpt>
      <trkpt lat="43.14337" lon="3.11807">
        <ele>56.998989105225</ele>
        <time>2021-01-03T18:11:56.318Z</time>
      </trkpt>
      <trkpt lat="43.14354" lon="3.11796">
        <ele>55.852725982666</ele>
        <time>2021-01-03T18:11:58.830Z</time>
      </trkpt>
      <trkpt lat="43.14369" lon="3.11801">
        <ele>55.142910003662</ele>
        <time>2021-01-03T18:12:01.345Z</time>
      </trkpt>
      <trkpt lat="43.14394" lon="3.11835">
        <ele>52.726619720459</ele>
        <time>2021-01-03T18:12:03.867Z</time>
      </trkpt>
      <trkpt lat="43.14404" lon="3.11829">
        <ele>53.342014312744</ele>
        <time>2021-01-03T18:12:06.391Z</time>
      </trkpt>
      <trkpt lat="43.14476" lon="3.11722">
        <ele>57.91870880127</ele>
        <time>2021-01-03T18:12:08.936Z</time>
      </trkpt>
      <trkpt lat="43.14483" lon="3.11716">
        <ele>58.106647491455</ele>
        <time>2021-01-03T18:12:11.483Z</time>
      </trkpt>
      <trkpt lat="43.14482" lon="3.11713">
        <ele>58.435764312744</ele>
        <time>2021-01-03T18:12:14.030Z</time>
      </trkpt>
      <trkpt lat="43.14471" lon="3.11661">
        <ele>64.028549194336</ele>
        <time>2021-01-03T18:12:16.585Z</time>
      </trkpt>
      <trkpt lat="43.14455" lon="3.11647">
        <ele>65.846290588379</ele>
        <time>2021-01-03T18:12:19.144Z</time>
      </trkpt>
      <trkpt lat="43.14428" lon="3.11638">
        <ele>67.636909484863</ele>
        <time>2021-01-03T18:12:21.709Z</time>
      </trkpt>
      <trkpt lat="43.14417" lon="3.11643">
        <ele>67.482452392578</ele>
        <time>2021-01-03T18:12:24.276Z</time>
      </trkpt>
      <trkpt lat="43.1441" lon="3.11641">
        <ele>67.553344726562</ele>
        <time>2021-01-03T18:12:26.844Z</time>
      </trkpt>
      <trkpt lat="43.14397" lon="3.11654">
        <ele>66.751014709473</ele>
        <time>2021-01-03T18:12:29.416Z</time>
      </trkpt>
      <trkpt lat="43.1439" lon="3.11667">
        <ele>65.23624420166</ele>
        <time>2021-01-03T18:12:31.990Z</time>
      </trkpt>
      <trkpt lat="43.1437" lon="3.11696">
        <ele>62.66535949707</ele>
        <time>2021-01-03T18:12:34.570Z</time>
      </trkpt>
      <trkpt lat="43.14358" lon="3.11697">
        <ele>62.786491394043</ele>
        <time>2021-01-03T18:12:37.152Z</time>
      </trkpt>
      <trkpt lat="43.14352" lon="3.11686">
        <ele>63.838695526123</ele>
        <time>2021-01-03T18:12:39.736Z</time>
      </trkpt>
      <trkpt lat="43.1434" lon="3.11678">
        <ele>63.583766937256</ele>
        <time>2021-01-03T18:12:42.323Z</time>
      </trkpt>
      <trkpt lat="43.14345" lon="3.11665">
        <ele>63.761749267578</ele>
        <time>2021-01-03T18:12:44.912Z</time>
      </trkpt>
      <trkpt lat="43.14421" lon="3.11598">
        <ele>67.410835266113</ele>
        <time>2021-01-03T18:12:47.519Z</time>
      </trkpt>
      <trkpt lat="43.14448" lon="3.11571">
        <ele>66.950981140137</ele>
        <time>2021-01-03T18:12:50.133Z</time>
      </trkpt>
      <trkpt lat="43.14473" lon="3.11553">
        <ele>65.724143981934</ele>
        <time>2021-01-03T18:12:52.753Z</time>
      </trkpt>
      <trkpt lat="43.14481" lon="3.11505">
        <ele>66.089935302734</ele>
        <time>2021-01-03T18:12:55.380Z</time>
      </trkpt>
      <trkpt lat="43.14499" lon="3.11475">
        <ele>67.307548522949</ele>
        <time>2021-01-03T18:12:58.013Z</time>
      </trkpt>
      <trkpt lat="43.14507" lon="3.11466">
        <ele>67.162673950195</ele>
        <time>2021-01-03T18:13:00.648Z</time>
      </trkpt>
      <trkpt lat="43.14511" lon="3.1144">
        <ele>67</ele>
        <time>2021-01-03T18:13:03.287Z</time>
      </trkpt>
      <trkpt lat="43.14514" lon="3.11435">
        <ele>67</ele>
        <time>2021-01-03T18:13:05.927Z</time>
      </trkpt>
      <trkpt lat="43.14519" lon="3.11432">
        <ele>67.23412322998</ele>
        <time>2021-01-03T18:13:08.568Z</time>
      </trkpt>
      <trkpt lat="43.14512" lon="3.11421">
        <ele>67.665840148926</ele>
        <time>2021-01-03T18:13:11.211Z</time>
      </trkpt>
      <trkpt lat="43.1451" lon="3.11406">
        <ele>68.312873840332</ele>
        <time>2021-01-03T18:13:13.856Z</time>
      </trkpt>
      <trkpt lat="43.14509" lon="3.11397">
        <ele>68.97412109375</ele>
        <time>2021-01-03T18:13:16.502Z</time>
      </trkpt>
      <trkpt lat="43.1452" lon="3.11351">
        <ele>71.081016540527</ele>
        <time>2021-01-03T18:13:19.156Z</time>
      </trkpt>
      <trkpt lat="43.14514" lon="3.11337">
        <ele>70.667091369629</ele>
        <time>2021-01-03T18:13:21.812Z</time>
      </trkpt>
      <trkpt lat="43.14511" lon="3.11322">
        <ele>70.252624511719</ele>
        <time>2021-01-03T18:13:24.470Z</time>
      </trkpt>
      <trkpt lat="43.1451" lon="3.11299">
        <ele>70.291534423828</ele>
        <time>2021-01-03T18:13:27.132Z</time>
      </trkpt>
      <trkpt lat="43.14537" lon="3.11263">
        <ele>72.266777038574</ele>
        <time>2021-01-03T18:13:29.801Z</time>
      </trkpt>
      <trkpt lat="43.14569" lon="3.11213">
        <ele>75.067237854004</ele>
        <time>2021-01-03T18:13:32.480Z</time>
      </trkpt>
      <trkpt lat="43.14616" lon="3.1117">
        <ele>76.912872314453</ele>
        <time>2021-01-03T18:13:35.170Z</time>
      </trkpt>
      <trkpt lat="43.1465" lon="3.11134">
        <ele>79.07396697998</ele>
        <time>2021-01-03T18:13:37.869Z</time>
      </trkpt>
      <trkpt lat="43.14677" lon="3.11096">
        <ele>82.487373352051</ele>
        <time>2021-01-03T18:13:40.576Z</time>
      </trkpt>
      <trkpt lat="43.1469" lon="3.11087">
        <ele>84.218460083008</ele>
        <time>2021-01-03T18:13:43.285Z</time>
      </trkpt>
      <trkpt lat="43.14695" lon="3.11071">
        <ele>86.077590942383</ele>
        <time>2021-01-03T18:13:45.997Z</time>
      </trkpt>
      <trkpt lat="43.14704" lon="3.11062">
        <ele>86.778656005859</ele>
        <time>2021-01-03T18:13:48.711Z</time>
      </trkpt>
      <trkpt lat="43.14711" lon="3.11052">
        <ele>87.47972869873</ele>
        <time>2021-01-03T18:13:51.427Z</time>
      </trkpt>
      <trkpt lat="43.14718" lon="3.11027">
        <ele>89.024955749512</ele>
        <time>2021-01-03T18:13:54.147Z</time>
      </trkpt>
      <trkpt lat="43.14713" lon="3.11014">
        <ele>89.396141052246</ele>
        <time>2021-01-03T18:13:56.869Z</time>
      </trkpt>
      <trkpt lat="43.14703" lon="3.11001">
        <ele>90.774444580078</ele>
        <time>2021-01-03T18:13:59.594Z</time>
      </trkpt>
      <trkpt lat="43.14692" lon="3.10999">
        <ele>91.074760437012</ele>
        <time>2021-01-03T18:14:02.321Z</time>
      </trkpt>
      <trkpt lat="43.14678" lon="3.10984">
        <ele>92.13801574707</ele>
        <time>2021-01-03T18:14:05.052Z</time>
      </trkpt>
      <trkpt lat="43.14679" lon="3.10959">
        <ele>93.875648498535</ele>
        <time>2021-01-03T18:14:07.786Z</time>
      </trkpt>
      <trkpt lat="43.14678" lon="3.1094">
        <ele>95.089485168457</ele>
        <time>2021-01-03T18:14:10.523Z</time>
      </trkpt>
      <trkpt lat="43.14676" lon="3.10932">
        <ele>95.402946472168</ele>
        <time>2021-01-03T18:14:13.262Z</time>
      </trkpt>
      <trkpt lat="43.14677" lon="3.10919">
        <ele>96.164001464844</ele>
        <time>2021-01-03T18:14:16.002Z</time>
      </trkpt>
      <trkpt lat="43.14697" lon="3.10892">
        <ele>98.901344299316</ele>
        <time>2021-01-03T18:14:18.748Z</time>
      </trkpt>
      <trkpt lat="43.14712" lon="3.10879">
        <ele>100.97045135498</ele>
        <time>2021-01-03T18:14:21.498Z</time>
      </trkpt>
      <trkpt lat="43.1473" lon="3.10858">
        <ele>104.67191314697</ele>
        <time>2021-01-03T18:14:24.253Z</time>
      </trkpt>
      <trkpt lat="43.14747" lon="3.10848">
        <ele>108.4662399292</ele>
        <time>2021-01-03T18:14:27.011Z</time>
      </trkpt>
      <trkpt lat="43.14758" lon="3.10791">
        <ele>113.39503479004</ele>
        <time>2021-01-03T18:14:29.778Z</time>
      </trkpt>
      <trkpt lat="43.14758" lon="3.10783">
        <ele>113.11448669434</ele>
        <time>2021-01-03T18:14:32.546Z</time>
      </trkpt>
      <trkpt lat="43.14765" lon="3.10759">
        <ele>113.56251525879</ele>
        <time>2021-01-03T18:14:35.318Z</time>
      </trkpt>
      <trkpt lat="43.1475" lon="3.10767">
        <ele>110.51775360107</ele>
        <time>2021-01-03T18:14:38.093Z</time>
      </trkpt>
      <trkpt lat="43.14744" lon="3.10753">
        <ele>108.41786956787</ele>
        <time>2021-01-03T18:14:40.870Z</time>
      </trkpt>
      <trkpt lat="43.14733" lon="3.10752">
        <ele>105.65552520752</ele>
        <time>2021-01-03T18:14:43.649Z</time>
      </trkpt>
      <trkpt lat="43.14729" lon="3.10746">
        <ele>104.33876037598</ele>
        <time>2021-01-03T18:14:46.429Z</time>
      </trkpt>
      <trkpt lat="43.14729" lon="3.10744">
        <ele>104.24523925781</ele>
        <time>2021-01-03T18:14:49.210Z</time>
      </trkpt>
      <trkpt lat="43.14707" lon="3.10741">
        <ele>99.128898620605</ele>
        <time>2021-01-03T18:14:51.995Z</time>
      </trkpt>
      <trkpt lat="43.14698" lon="3.10769">
        <ele>98.382751464844</ele>
        <time>2021-01-03T18:14:54.785Z</time>
      </trkpt>
      <trkpt lat="43.14697" lon="3.10769">
        <ele>98.06600189209</ele>
        <time>2021-01-03T18:14:57.575Z</time>
      </trkpt>
      <trkpt lat="43.14674" lon="3.10805">
        <ele>93.358497619629</ele>
        <time>2021-01-03T18:15:00.372Z</time>
      </trkpt>
      <trkpt lat="43.14652" lon="3.1082">
        <ele>89.581230163574</ele>
        <time>2021-01-03T18:15:03.174Z</time>
      </trkpt>
      <trkpt lat="43.14633" lon="3.10827">
        <ele>87.692359924316</ele>
        <time>2021-01-03T18:15:05.980Z</time>
      </trkpt>
      <trkpt lat="43.14581" lon="3.10876">
        <ele>83.004890441895</ele>
        <time>2021-01-03T18:15:08.798Z</time>
      </trkpt>
      <trkpt lat="43.14548" lon="3.10925">
        <ele>79.622169494629</ele>
        <time>2021-01-03T18:15:11.626Z</time>
      </trkpt>
      <trkpt lat="43.14542" lon="3.1093">
        <ele>78.800819396973</ele>
        <time>2021-01-03T18:15:14.456Z</time>
      </trkpt>
      <trkpt lat="43.14532" lon="3.10943">
        <ele>77.195388793945</ele>
        <time>2021-01-03T18:15:17.288Z</time>
      </trkpt>
      <trkpt lat="43.14529" lon="3.10944">
        <ele>76.823432922363</ele>
        <time>2021-01-03T18:15:20.121Z</time>
      </trkpt>
      <trkpt lat="43.14517" lon="3.10959">
        <ele>75.011764526367</ele>
        <time>2021-01-03T18:15:22.957Z</time>
      </trkpt>
      <trkpt lat="43.14503" lon="3.10961">
        <ele>73.950202941895</ele>
        <time>2021-01-03T18:15:25.796Z</time>
      </trkpt>
      <trkpt lat="43.14486" lon="3.10961">
        <ele>72.849273681641</ele>
        <time>2021-01-03T18:15:28.638Z</time>
      </trkpt>
      <trkpt lat="43.14477" lon="3.10947">
        <ele>73.044151306152</ele>
        <time>2021-01-03T18:15:31.483Z</time>
      </trkpt>
      <trkpt lat="43.14452" lon="3.10932">
        <ele>71.162040710449</ele>
        <time>2021-01-03T18:15:34.334Z</time>
      </trkpt>
      <trkpt lat="43.14441" lon="3.10902">
        <ele>69.132614135742</ele>
        <time>2021-01-03T18:15:37.189Z</time>
      </trkpt>
      <trkpt lat="43.14423" lon="3.10865">
        <ele>66.472328186035</ele>
        <time>2021-01-03T18:15:40.051Z</time>
      </trkpt>
      <trkpt lat="43.14416" lon="3.10844">
        <ele>64.712448120117</ele>
        <time>2021-01-03T18:15:42.916Z</time>
      </trkpt>
      <trkpt lat="43.14423" lon="3.10824">
        <ele>65.317741394043</ele>
        <time>2021-01-03T18:15:45.785Z</time>
      </trkpt>
      <trkpt lat="43.14431" lon="3.10817">
        <ele>66.35546875</ele>
        <time>2021-01-03T18:15:48.656Z</time>
      </trkpt>
      <trkpt lat="43.1444" lon="3.10799">
        <ele>67.077651977539</ele>
        <time>2021-01-03T18:15:51.530Z</time>
      </trkpt>
      <trkpt lat="43.14442" lon="3.10781">
        <ele>67.12525177002</ele>
        <time>2021-01-03T18:15:54.406Z</time>
      </trkpt>
      <trkpt lat="43.14442" lon="3.10764">
        <ele>66.773628234863</ele>
        <time>2021-01-03T18:15:57.285Z</time>
      </trkpt>
      <trkpt lat="43.14453" lon="3.10742">
        <ele>69.421257019043</ele>
        <time>2021-01-03T18:16:00.168Z</time>
      </trkpt>
      <trkpt lat="43.14454" lon="3.1071">
        <ele>70.398712158203</ele>
        <time>2021-01-03T18:16:03.056Z</time>
      </trkpt>
      <trkpt lat="43.14448" lon="3.10698">
        <ele>69.41739654541</ele>
        <time>2021-01-03T18:16:05.946Z</time>
      </trkpt>
      <trkpt lat="43.14429" lon="3.10706">
        <ele>63.332946777344</ele>
        <time>2021-01-03T18:16:08.840Z</time>
      </trkpt>
      <trkpt lat="43.14415" lon="3.10722">
        <ele>60.486198425293</ele>
        <time>2021-01-03T18:16:11.737Z</time>
      </trkpt>
      <trkpt lat="43.14412" lon="3.10758">
        <ele>60.605556488037</ele>
        <time>2021-01-03T18:16:14.640Z</time>
      </trkpt>
      <trkpt lat="43.14409" lon="3.10765">
        <ele>60.414901733398</ele>
        <time>2021-01-03T18:16:17.544Z</time>
      </trkpt>
      <trkpt lat="43.14385" lon="3.10756">
        <ele>57.663940429688</ele>
        <time>2021-01-03T18:16:20.453Z</time>
      </trkpt>
      <trkpt lat="43.14379" lon="3.10751">
        <ele>56.849285125732</ele>
        <time>2021-01-03T18:16:23.363Z</time>
      </trkpt>
      <trkpt lat="43.14342" lon="3.1075">
        <ele>55.257465362549</ele>
        <time>2021-01-03T18:16:26.281Z</time>
      </trkpt>
      <trkpt lat="43.14323" lon="3.10759">
        <ele>54.970180511475</ele>
        <time>2021-01-03T18:16:29.203Z</time>
      </trkpt>
      <trkpt lat="43.14312" lon="3.10753">
        <ele>54.585556030273</ele>
        <time>2021-01-03T18:16:32.127Z</time>
      </trkpt>
      <trkpt lat="43.14296" lon="3.10747">
        <ele>54.291030883789</ele>
        <time>2021-01-03T18:16:35.054Z</time>
      </trkpt>
      <trkpt lat="43.1427" lon="3.10747">
        <ele>53.363109588623</ele>
        <time>2021-01-03T18:16:37.987Z</time>
      </trkpt>
      <trkpt lat="43.14248" lon="3.10769">
        <ele>53.27721786499</ele>
        <time>2021-01-03T18:16:40.925Z</time>
      </trkpt>
      <trkpt lat="43.14232" lon="3.10793">
        <ele>52.422592163086</ele>
        <time>2021-01-03T18:16:43.868Z</time>
      </trkpt>
      <trkpt lat="43.14227" lon="3.10796">
        <ele>52.060592651367</ele>
        <time>2021-01-03T18:16:46.812Z</time>
      </trkpt>
      <trkpt lat="43.14219" lon="3.10809">
        <ele>51.472347259521</ele>
        <time>2021-01-03T18:16:49.758Z</time>
      </trkpt>
      <trkpt lat="43.14217" lon="3.10814">
        <ele>51.336597442627</ele>
        <time>2021-01-03T18:16:52.705Z</time>
      </trkpt>
      <trkpt lat="43.1422" lon="3.10833">
        <ele>51.844268798828</ele>
        <time>2021-01-03T18:16:55.655Z</time>
      </trkpt>
      <trkpt lat="43.1422" lon="3.10852">
        <ele>51.844268798828</ele>
        <time>2021-01-03T18:16:58.608Z</time>
      </trkpt>
      <trkpt lat="43.14199" lon="3.10879">
        <ele>49.603504180908</ele>
        <time>2021-01-03T18:17:01.567Z</time>
      </trkpt>
      <trkpt lat="43.14181" lon="3.10906">
        <ele>48.635143280029</ele>
        <time>2021-01-03T18:17:04.531Z</time>
      </trkpt>
      <trkpt lat="43.14163" lon="3.10941">
        <ele>49.486545562744</ele>
        <time>2021-01-03T18:17:07.501Z</time>
      </trkpt>
      <trkpt lat="43.14154" lon="3.10946">
        <ele>49.310676574707</ele>
        <time>2021-01-03T18:17:10.473Z</time>
      </trkpt>
      <trkpt lat="43.14134" lon="3.1095">
        <ele>49.183788299561</ele>
        <time>2021-01-03T18:17:13.449Z</time>
      </trkpt>
      <trkpt lat="43.14119" lon="3.10946">
        <ele>49.198051452637</ele>
        <time>2021-01-03T18:17:16.428Z</time>
      </trkpt>
      <trkpt lat="43.14111" lon="3.10933">
        <ele>48.575717926025</ele>
        <time>2021-01-03T18:17:19.410Z</time>
      </trkpt>
      <trkpt lat="43.14092" lon="3.1092">
        <ele>47.717876434326</ele>
        <time>2021-01-03T18:17:22.396Z</time>
      </trkpt>
      <trkpt lat="43.14085" lon="3.10939">
        <ele>48.620429992676</ele>
        <time>2021-01-03T18:17:25.385Z</time>
      </trkpt>
      <trkpt lat="43.14084" lon="3.10984">
        <ele>51.259063720703</ele>
        <time>2021-01-03T18:17:28.381Z</time>
      </trkpt>
      <trkpt lat="43.1408" lon="3.10995">
        <ele>51.954334259033</ele>
        <time>2021-01-03T18:17:31.378Z</time>
      </trkpt>
      <trkpt lat="43.14075" lon="3.11005">
        <ele>52</ele>
        <time>2021-01-03T18:17:34.377Z</time>
      </trkpt>
      <trkpt lat="43.14063" lon="3.11006">
        <ele>51.625812530518</ele>
        <time>2021-01-03T18:17:37.379Z</time>
      </trkpt>
      <trkpt lat="43.1405" lon="3.11014">
        <ele>52.612365722656</ele>
        <time>2021-01-03T18:17:40.383Z</time>
      </trkpt>
      <trkpt lat="43.14047" lon="3.11019">
        <ele>53</ele>
        <time>2021-01-03T18:17:43.388Z</time>
      </trkpt>
      <trkpt lat="43.14039" lon="3.11042">
        <ele>52.897235870361</ele>
        <time>2021-01-03T18:17:46.397Z</time>
      </trkpt>
      <trkpt lat="43.14036" lon="3.11058">
        <ele>53.477035522461</ele>
        <time>2021-01-03T18:17:49.409Z</time>
      </trkpt>
      <trkpt lat="43.14035" lon="3.11074">
        <ele>54.038131713867</ele>
        <time>2021-01-03T18:17:52.423Z</time>
      </trkpt>
      <trkpt lat="43.1404" lon="3.11086">
        <ele>54.468002319336</ele>
        <time>2021-01-03T18:17:55.439Z</time>
      </trkpt>
      <trkpt lat="43.14053" lon="3.11105">
        <ele>55.2785987854</ele>
        <time>2021-01-03T18:17:58.459Z</time>
      </trkpt>
      <trkpt lat="43.14059" lon="3.11132">
        <ele>56</ele>
        <time>2021-01-03T18:18:01.483Z</time>
      </trkpt>
      <trkpt lat="43.14058" lon="3.11148">
        <ele>55.746906280518</ele>
        <time>2021-01-03T18:18:04.509Z</time>
      </trkpt>
      <trkpt lat="43.14069" lon="3.11161">
        <ele>55.85417175293</ele>
        <time>2021-01-03T18:18:07.538Z</time>
      </trkpt>
      <trkpt lat="43.14078" lon="3.11167">
        <ele>56.170921325684</ele>
        <time>2021-01-03T18:18:10.569Z</time>
      </trkpt>
      <trkpt lat="43.14089" lon="3.11183">
        <ele>56.565498352051</ele>
        <time>2021-01-03T18:18:13.603Z</time>
      </trkpt>
      <trkpt lat="43.1409" lon="3.11187">
        <ele>56.718639373779</ele>
        <time>2021-01-03T18:18:16.638Z</time>
      </trkpt>
      <trkpt lat="43.14084" lon="3.11216">
        <ele>56.940258026123</ele>
        <time>2021-01-03T18:18:19.677Z</time>
      </trkpt>
      <trkpt lat="43.14082" lon="3.11254">
        <ele>58.819129943848</ele>
        <time>2021-01-03T18:18:22.722Z</time>
      </trkpt>
      <trkpt lat="43.14087" lon="3.11261">
        <ele>59.299983978271</ele>
        <time>2021-01-03T18:18:25.768Z</time>
      </trkpt>
      <trkpt lat="43.14093" lon="3.11277">
        <ele>60.061386108398</ele>
        <time>2021-01-03T18:18:28.817Z</time>
      </trkpt>
      <trkpt lat="43.14095" lon="3.11322">
        <ele>61.753723144531</ele>
        <time>2021-01-03T18:18:31.872Z</time>
      </trkpt>
      <trkpt lat="43.14122" lon="3.11334">
        <ele>62.412662506104</ele>
        <time>2021-01-03T18:18:34.933Z</time>
      </trkpt>
      <trkpt lat="43.14152" lon="3.11343">
        <ele>62.812297821045</ele>
        <time>2021-01-03T18:18:38.000Z</time>
      </trkpt>
      <trkpt lat="43.14178" lon="3.11365">
        <ele>63</ele>
        <time>2021-01-03T18:18:41.073Z</time>
      </trkpt>
      <trkpt lat="43.14193" lon="3.11381">
        <ele>63.411445617676</ele>
        <time>2021-01-03T18:18:44.150Z</time>
      </trkpt>
      <trkpt lat="43.14205" lon="3.11402">
        <ele>64.587936401367</ele>
        <time>2021-01-03T18:18:47.231Z</time>
      </trkpt>
      <trkpt lat="43.14206" lon="3.11417">
        <ele>64.772514343262</ele>
        <time>2021-01-03T18:18:50.314Z</time>
      </trkpt>
      <trkpt lat="43.14212" lon="3.11429">
        <ele>64.995750427246</ele>
        <time>2021-01-03T18:18:53.399Z</time>
      </trkpt>
      <trkpt lat="43.1423" lon="3.11452">
        <ele>66.954483032227</ele>
        <time>2021-01-03T18:18:56.489Z</time>
      </trkpt>
      <trkpt lat="43.14228" lon="3.11481">
        <ele>67.279106140137</ele>
        <time>2021-01-03T18:18:59.584Z</time>
      </trkpt>
      <trkpt lat="43.14225" lon="3.11503">
        <ele>67.461212158203</ele>
        <time>2021-01-03T18:19:02.682Z</time>
      </trkpt>
      <trkpt lat="43.14216" lon="3.11527">
        <ele>66.64331817627</ele>
        <time>2021-01-03T18:19:05.784Z</time>
      </trkpt>
      <trkpt lat="43.14213" lon="3.1157">
        <ele>65.948173522949</ele>
        <time>2021-01-03T18:19:08.892Z</time>
      </trkpt>
      <trkpt lat="43.14204" lon="3.11623">
        <ele>64.188346862793</ele>
        <time>2021-01-03T18:19:12.008Z</time>
      </trkpt>
      <trkpt lat="43.14193" lon="3.1164">
        <ele>64</ele>
        <time>2021-01-03T18:19:15.127Z</time>
      </trkpt>
      <trkpt lat="43.14182" lon="3.11648">
        <ele>64.089942932129</ele>
        <time>2021-01-03T18:19:18.249Z</time>
      </trkpt>
      <trkpt lat="43.14166" lon="3.11656">
        <ele>65.330947875977</ele>
        <time>2021-01-03T18:19:21.374Z</time>
      </trkpt>
      <trkpt lat="43.14136" lon="3.11667">
        <ele>66.745483398438</ele>
        <time>2021-01-03T18:19:24.506Z</time>
      </trkpt>
      <trkpt lat="43.14125" lon="3.11666">
        <ele>67.140663146973</ele>
        <time>2021-01-03T18:19:27.640Z</time>
      </trkpt>
      <trkpt lat="43.14115" lon="3.11663">
        <ele>67.49934387207</ele>
        <time>2021-01-03T18:19:30.776Z</time>
      </trkpt>
      <trkpt lat="43.14097" lon="3.11659">
        <ele>67.880332946777</ele>
        <time>2021-01-03T18:19:33.916Z</time>
      </trkpt>
      <trkpt lat="43.1407" lon="3.11639">
        <ele>68.10962677002</ele>
        <time>2021-01-03T18:19:37.062Z</time>
      </trkpt>
      <trkpt lat="43.14059" lon="3.11626">
        <ele>68.44979095459</ele>
        <time>2021-01-03T18:19:40.211Z</time>
      </trkpt>
      <trkpt lat="43.1404" lon="3.11599">
        <ele>67.863388061523</ele>
        <time>2021-01-03T18:19:43.365Z</time>
      </trkpt>
      <trkpt lat="43.14029" lon="3.11586">
        <ele>66.937881469727</ele>
        <time>2021-01-03T18:19:46.522Z</time>
      </trkpt>
      <trkpt lat="43.14018" lon="3.11558">
        <ele>64.928352355957</ele>
        <time>2021-01-03T18:19:49.684Z</time>
      </trkpt>
      <trkpt lat="43.14016" lon="3.11545">
        <ele>64.143478393555</ele>
        <time>2021-01-03T18:19:52.848Z</time>
      </trkpt>
      <trkpt lat="43.14019" lon="3.11535">
        <ele>63.552181243896</ele>
        <time>2021-01-03T18:19:56.013Z</time>
      </trkpt>
      <trkpt lat="43.1402" lon="3.11525">
        <ele>63.096363067627</ele>
        <time>2021-01-03T18:19:59.180Z</time>
      </trkpt>
      <trkpt lat="43.1402" lon="3.11507">
        <ele>62.829578399658</ele>
        <time>2021-01-03T18:20:02.349Z</time>
      </trkpt>
      <trkpt lat="43.14018" lon="3.11497">
        <ele>62.965324401855</ele>
        <time>2021-01-03T18:20:05.520Z</time>
      </trkpt>
      <trkpt lat="43.14023" lon="3.11469">
        <ele>61.669933319092</ele>
        <time>2021-01-03T18:20:08.695Z</time>
      </trkpt>
      <trkpt lat="43.14025" lon="3.11454">
        <ele>61.246837615967</ele>
        <time>2021-01-03T18:20:11.872Z</time>
      </trkpt>
      <trkpt lat="43.14023" lon="3.11439">
        <ele>60.777751922607</ele>
        <time>2021-01-03T18:20:15.051Z</time>
      </trkpt>
      <trkpt lat="43.1402" lon="3.11433">
        <ele>60.786197662354</ele>
        <time>2021-01-03T18:20:18.232Z</time>
      </trkpt>
      <trkpt lat="43.14023" lon="3.11415">
        <ele>59.960842132568</ele>
        <time>2021-01-03T18:20:21.415Z</time>
      </trkpt>
      <trkpt lat="43.1402" lon="3.11394">
        <ele>59.38285446167</ele>
        <time>2021-01-03T18:20:24.601Z</time>
      </trkpt>
      <trkpt lat="43.14013" lon="3.11381">
        <ele>59.797058105469</ele>
        <time>2021-01-03T18:20:27.790Z</time>
      </trkpt>
      <trkpt lat="43.14006" lon="3.11373">
        <ele>60.563888549805</ele>
        <time>2021-01-03T18:20:30.981Z</time>
      </trkpt>
      <trkpt lat="43.14002" lon="3.11365">
        <ele>60.773845672607</ele>
        <time>2021-01-03T18:20:34.173Z</time>
      </trkpt>
      <trkpt lat="43.13999" lon="3.11351">
        <ele>61.072010040283</ele>
        <time>2021-01-03T18:20:37.367Z</time>
      </trkpt>
      <trkpt lat="43.13999" lon="3.11338">
        <ele>60.109104156494</ele>
        <time>2021-01-03T18:20:40.563Z</time>
      </trkpt>
      <trkpt lat="43.14016" lon="3.11285">
        <ele>56.878574371338</ele>
        <time>2021-01-03T18:20:43.767Z</time>
      </trkpt>
      <trkpt lat="43.1402" lon="3.11285">
        <ele>56.715641021729</ele>
        <time>2021-01-03T18:20:46.972Z</time>
      </trkpt>
      <trkpt lat="43.14034" lon="3.11295">
        <ele>57.560905456543</ele>
        <time>2021-01-03T18:20:50.180Z</time>
      </trkpt>
      <trkpt lat="43.14062" lon="3.11286">
        <ele>58.873607635498</ele>
        <time>2021-01-03T18:20:53.394Z</time>
      </trkpt>
      <trkpt lat="43.14067" lon="3.11286">
        <ele>59.261547088623</ele>
        <time>2021-01-03T18:20:56.609Z</time>
      </trkpt>
      <trkpt lat="43.14075" lon="3.11291">
        <ele>59.909042358398</ele>
        <time>2021-01-03T18:20:59.826Z</time>
      </trkpt>
      <trkpt lat="43.14083" lon="3.11303">
        <ele>60.640277862549</ele>
        <time>2021-01-03T18:21:03.045Z</time>
      </trkpt>
      <trkpt lat="43.14087" lon="3.11318">
        <ele>61.299415588379</ele>
        <time>2021-01-03T18:21:06.267Z</time>
      </trkpt>
      <trkpt lat="43.1409" lon="3.11321">
        <ele>61.551609039307</ele>
        <time>2021-01-03T18:21:09.489Z</time>
      </trkpt>
      <trkpt lat="43.14101" lon="3.11318">
        <ele>61.818881988525</ele>
        <time>2021-01-03T18:21:12.714Z</time>
      </trkpt>
      <trkpt lat="43.14098" lon="3.11288">
        <ele>60.646312713623</ele>
        <time>2021-01-03T18:21:15.943Z</time>
      </trkpt>
      <trkpt lat="43.14099" lon="3.11281">
        <ele>60.42911529541</ele>
        <time>2021-01-03T18:21:19.173Z</time>
      </trkpt>
      <trkpt lat="43.14097" lon="3.11268">
        <ele>59.868015289307</ele>
        <time>2021-01-03T18:21:22.405Z</time>
      </trkpt>
      <trkpt lat="43.14089" lon="3.11251">
        <ele>59.000431060791</ele>
        <time>2021-01-03T18:21:25.640Z</time>
      </trkpt>
      <trkpt lat="43.14088" lon="3.11244">
        <ele>58.70630645752</ele>
        <time>2021-01-03T18:21:28.876Z</time>
      </trkpt>
      <trkpt lat="43.14089" lon="3.11216">
        <ele>57.307685852051</ele>
        <time>2021-01-03T18:21:32.116Z</time>
      </trkpt>
      <trkpt lat="43.14096" lon="3.11183">
        <ele>56.808338165283</ele>
        <time>2021-01-03T18:21:35.361Z</time>
      </trkpt>
      <trkpt lat="43.14092" lon="3.11175">
        <ele>56.685562133789</ele>
        <time>2021-01-03T18:21:38.608Z</time>
      </trkpt>
      <trkpt lat="43.14083" lon="3.11162">
        <ele>56.342868804932</ele>
        <time>2021-01-03T18:21:41.857Z</time>
      </trkpt>
      <trkpt lat="43.14065" lon="3.11144">
        <ele>56</ele>
        <time>2021-01-03T18:21:45.111Z</time>
      </trkpt>
      <trkpt lat="43.14065" lon="3.11134">
        <ele>56</ele>
        <time>2021-01-03T18:21:48.366Z</time>
      </trkpt>
      <trkpt lat="43.1406" lon="3.11105">
        <ele>55.534408569336</ele>
        <time>2021-01-03T18:21:51.625Z</time>
      </trkpt>
      <trkpt lat="43.14048" lon="3.11088">
        <ele>54.647655487061</ele>
        <time>2021-01-03T18:21:54.888Z</time>
      </trkpt>
      <trkpt lat="43.14042" lon="3.11074">
        <ele>54.060150146484</ele>
        <time>2021-01-03T18:21:58.153Z</time>
      </trkpt>
      <trkpt lat="43.1403" lon="3.11077">
        <ele>54.172370910645</ele>
        <time>2021-01-03T18:22:01.421Z</time>
      </trkpt>
      <trkpt lat="43.14018" lon="3.11055">
        <ele>53.368434906006</ele>
        <time>2021-01-03T18:22:04.693Z</time>
      </trkpt>
      <trkpt lat="43.14002" lon="3.11033">
        <ele>52.582901000977</ele>
        <time>2021-01-03T18:22:07.969Z</time>
      </trkpt>
      <trkpt lat="43.13996" lon="3.11014">
        <ele>51.791416168213</ele>
        <time>2021-01-03T18:22:11.248Z</time>
      </trkpt>
      <trkpt lat="43.13987" lon="3.11007">
        <ele>51.179763793945</ele>
        <time>2021-01-03T18:22:14.529Z</time>
      </trkpt>
      <trkpt lat="43.13963" lon="3.10999">
        <ele>49.708847045898</ele>
        <time>2021-01-03T18:22:17.815Z</time>
      </trkpt>
      <trkpt lat="43.13951" lon="3.11007">
        <ele>49.865127563477</ele>
        <time>2021-01-03T18:22:21.104Z</time>
      </trkpt>
      <trkpt lat="43.1394" lon="3.11008">
        <ele>49.111873626709</ele>
        <time>2021-01-03T18:22:24.395Z</time>
      </trkpt>
      <trkpt lat="43.13926" lon="3.11017">
        <ele>49.031707763672</ele>
        <time>2021-01-03T18:22:27.689Z</time>
      </trkpt>
      <trkpt lat="43.13916" lon="3.11033">
        <ele>50.818134307861</ele>
        <time>2021-01-03T18:22:30.986Z</time>
      </trkpt>
      <trkpt lat="43.13903" lon="3.11048">
        <ele>51.143901824951</ele>
        <time>2021-01-03T18:22:34.287Z</time>
      </trkpt>
      <trkpt lat="43.13893" lon="3.11057">
        <ele>51.300163269043</ele>
        <time>2021-01-03T18:22:37.590Z</time>
      </trkpt>
      <trkpt lat="43.13884" lon="3.1106">
        <ele>50.31517791748</ele>
        <time>2021-01-03T18:22:40.895Z</time>
      </trkpt>
      <trkpt lat="43.13876" lon="3.11059">
        <ele>49.334968566895</ele>
        <time>2021-01-03T18:22:44.202Z</time>
      </trkpt>
      <trkpt lat="43.13864" lon="3.11065">
        <ele>49.115055084229</ele>
        <time>2021-01-03T18:22:47.511Z</time>
      </trkpt>
      <trkpt lat="43.13832" lon="3.11112">
        <ele>56.440090179443</ele>
        <time>2021-01-03T18:22:50.830Z</time>
      </trkpt>
      <trkpt lat="43.13824" lon="3.11109">
        <ele>55.431324005127</ele>
        <time>2021-01-03T18:22:54.150Z</time>
      </trkpt>
      <trkpt lat="43.13814" lon="3.11109">
        <ele>55.778526306152</ele>
        <time>2021-01-03T18:22:57.472Z</time>
      </trkpt>
      <trkpt lat="43.13783" lon="3.11087">
        <ele>51.02702331543</ele>
        <time>2021-01-03T18:23:00.801Z</time>
      </trkpt>
      <trkpt lat="43.13771" lon="3.11089">
        <ele>51.532009124756</ele>
        <time>2021-01-03T18:23:04.133Z</time>
      </trkpt>
      <trkpt lat="43.13764" lon="3.11107">
        <ele>55.245845794678</ele>
        <time>2021-01-03T18:23:07.468Z</time>
      </trkpt>
      <trkpt lat="43.13751" lon="3.11132">
        <ele>57.998313903809</ele>
        <time>2021-01-03T18:23:10.807Z</time>
      </trkpt>
      <trkpt lat="43.13741" lon="3.11159">
        <ele>59.501636505127</ele>
        <time>2021-01-03T18:23:14.151Z</time>
      </trkpt>
      <trkpt lat="43.13733" lon="3.11206">
        <ele>60.866279602051</ele>
        <time>2021-01-03T18:23:17.502Z</time>
      </trkpt>
      <trkpt lat="43.13732" lon="3.11233">
        <ele>61.554260253906</ele>
        <time>2021-01-03T18:23:20.857Z</time>
      </trkpt>
      <trkpt lat="43.13702" lon="3.1126">
        <ele>55.917053222656</ele>
        <time>2021-01-03T18:23:24.219Z</time>
      </trkpt>
      <trkpt lat="43.13703" lon="3.11269">
        <ele>56.566940307617</ele>
        <time>2021-01-03T18:23:27.582Z</time>
      </trkpt>
      <trkpt lat="43.13716" lon="3.11291">
        <ele>59.685977935791</ele>
        <time>2021-01-03T18:23:30.949Z</time>
      </trkpt>
      <trkpt lat="43.13714" lon="3.11292">
        <ele>59.266662597656</ele>
        <time>2021-01-03T18:23:34.317Z</time>
      </trkpt>
      <trkpt lat="43.13702" lon="3.11282">
        <ele>56.476139068604</ele>
        <time>2021-01-03T18:23:37.688Z</time>
      </trkpt>
      <trkpt lat="43.1369" lon="3.11269">
        <ele>53.44380569458</ele>
        <time>2021-01-03T18:23:41.062Z</time>
      </trkpt>
      <trkpt lat="43.13686" lon="3.11267">
        <ele>52.453037261963</ele>
        <time>2021-01-03T18:23:44.437Z</time>
      </trkpt>
      <trkpt lat="43.13664" lon="3.11269">
        <ele>46.964248657227</ele>
        <time>2021-01-03T18:23:47.816Z</time>
      </trkpt>
      <trkpt lat="43.13658" lon="3.11255">
        <ele>44.505680084229</ele>
        <time>2021-01-03T18:23:51.197Z</time>
      </trkpt>
      <trkpt lat="43.1365" lon="3.11248">
        <ele>42.740634918213</ele>
        <time>2021-01-03T18:23:54.580Z</time>
      </trkpt>
      <trkpt lat="43.13645" lon="3.11245">
        <ele>41.663089752197</ele>
        <time>2021-01-03T18:23:57.965Z</time>
      </trkpt>
      <trkpt lat="43.13633" lon="3.11245">
        <ele>40.007553100586</ele>
        <time>2021-01-03T18:24:01.352Z</time>
      </trkpt>
      <trkpt lat="43.1362" lon="3.1125">
        <ele>39.799873352051</ele>
        <time>2021-01-03T18:24:04.742Z</time>
      </trkpt>
      <trkpt lat="43.13609" lon="3.11261">
        <ele>39.580131530762</ele>
        <time>2021-01-03T18:24:08.134Z</time>
      </trkpt>
      <trkpt lat="43.136" lon="3.11277">
        <ele>39.364795684814</ele>
        <time>2021-01-03T18:24:11.529Z</time>
      </trkpt>
      <trkpt lat="43.13591" lon="3.11289">
        <ele>39.849967956543</ele>
        <time>2021-01-03T18:24:14.927Z</time>
      </trkpt>
      <trkpt lat="43.13586" lon="3.11319">
        <ele>39.47046661377</ele>
        <time>2021-01-03T18:24:18.329Z</time>
      </trkpt>
      <trkpt lat="43.13583" lon="3.11347">
        <ele>38.810718536377</ele>
        <time>2021-01-03T18:24:21.735Z</time>
      </trkpt>
      <trkpt lat="43.13578" lon="3.11352">
        <ele>37.760021209717</ele>
        <time>2021-01-03T18:24:25.143Z</time>
      </trkpt>
      <trkpt lat="43.13575" lon="3.11352">
        <ele>37.307521820068</ele>
        <time>2021-01-03T18:24:28.551Z</time>
      </trkpt>
      <trkpt lat="43.1357" lon="3.11349">
        <ele>36.998027801514</ele>
        <time>2021-01-03T18:24:31.960Z</time>
      </trkpt>
      <trkpt lat="43.13574" lon="3.11279">
        <ele>39.609844207764</ele>
        <time>2021-01-03T18:24:35.380Z</time>
      </trkpt>
      <trkpt lat="43.13574" lon="3.1127">
        <ele>39.92749786377</ele>
        <time>2021-01-03T18:24:38.801Z</time>
      </trkpt>
      <trkpt lat="43.13571" lon="3.11261">
        <ele>40.682888031006</ele>
        <time>2021-01-03T18:24:42.223Z</time>
      </trkpt>
      <trkpt lat="43.13572" lon="3.11256">
        <ele>40.69917678833</ele>
        <time>2021-01-03T18:24:45.646Z</time>
      </trkpt>
      <trkpt lat="43.1358" lon="3.11239">
        <ele>40.543727874756</ele>
        <time>2021-01-03T18:24:49.072Z</time>
      </trkpt>
      <trkpt lat="43.1359" lon="3.1123">
        <ele>40.453830718994</ele>
        <time>2021-01-03T18:24:52.501Z</time>
      </trkpt>
      <trkpt lat="43.13601" lon="3.11216">
        <ele>39.873798370361</ele>
        <time>2021-01-03T18:24:55.933Z</time>
      </trkpt>
      <trkpt lat="43.13617" lon="3.11199">
        <ele>40.302883148193</ele>
        <time>2021-01-03T18:24:59.368Z</time>
      </trkpt>
      <trkpt lat="43.13635" lon="3.11175">
        <ele>40.743171691895</ele>
        <time>2021-01-03T18:25:02.809Z</time>
      </trkpt>
      <trkpt lat="43.13661" lon="3.11151">
        <ele>42.744617462158</ele>
        <time>2021-01-03T18:25:06.256Z</time>
      </trkpt>
      <trkpt lat="43.13681" lon="3.1112">
        <ele>44.90650177002</ele>
        <time>2021-01-03T18:25:09.709Z</time>
      </trkpt>
      <trkpt lat="43.13694" lon="3.11104">
        <ele>44.965339660645</ele>
        <time>2021-01-03T18:25:13.166Z</time>
      </trkpt>
      <trkpt lat="43.137" lon="3.11089">
        <ele>45.759113311768</ele>
        <time>2021-01-03T18:25:16.625Z</time>
      </trkpt>
      <trkpt lat="43.13706" lon="3.11077">
        <ele>44.793083190918</ele>
        <time>2021-01-03T18:25:20.086Z</time>
      </trkpt>
      <trkpt lat="43.13713" lon="3.11052">
        <ele>44.730209350586</ele>
        <time>2021-01-03T18:25:23.551Z</time>
      </trkpt>
      <trkpt lat="43.13718" lon="3.11039">
        <ele>45.200122833252</ele>
        <time>2021-01-03T18:25:27.018Z</time>
      </trkpt>
      <trkpt lat="43.13731" lon="3.11019">
        <ele>44.018783569336</ele>
        <time>2021-01-03T18:25:30.489Z</time>
      </trkpt>
      <trkpt lat="43.13739" lon="3.1101">
        <ele>42.681251525879</ele>
        <time>2021-01-03T18:25:33.962Z</time>
      </trkpt>
      <trkpt lat="43.13769" lon="3.10994">
        <ele>42.057266235352</ele>
        <time>2021-01-03T18:25:37.442Z</time>
      </trkpt>
      <trkpt lat="43.13772" lon="3.10987">
        <ele>42.412563323975</ele>
        <time>2021-01-03T18:25:40.923Z</time>
      </trkpt>
      <trkpt lat="43.13778" lon="3.10984">
        <ele>42.949222564697</ele>
        <time>2021-01-03T18:25:44.405Z</time>
      </trkpt>
      <trkpt lat="43.13789" lon="3.10971">
        <ele>43.755947113037</ele>
        <time>2021-01-03T18:25:47.890Z</time>
      </trkpt>
      <trkpt lat="43.13782" lon="3.10958">
        <ele>43.73323059082</ele>
        <time>2021-01-03T18:25:51.377Z</time>
      </trkpt>
      <trkpt lat="43.13771" lon="3.10952">
        <ele>43.793563842773</ele>
        <time>2021-01-03T18:25:54.867Z</time>
      </trkpt>
      <trkpt lat="43.13772" lon="3.10933">
        <ele>45.079555511475</ele>
        <time>2021-01-03T18:25:58.359Z</time>
      </trkpt>
      <trkpt lat="43.13767" lon="3.10923">
        <ele>46.304088592529</ele>
        <time>2021-01-03T18:26:01.853Z</time>
      </trkpt>
      <trkpt lat="43.13758" lon="3.10892">
        <ele>50.954875946045</ele>
        <time>2021-01-03T18:26:05.352Z</time>
      </trkpt>
      <trkpt lat="43.13747" lon="3.10891">
        <ele>52.447479248047</ele>
        <time>2021-01-03T18:26:08.853Z</time>
      </trkpt>
      <trkpt lat="43.13733" lon="3.10894">
        <ele>54.272682189941</ele>
        <time>2021-01-03T18:26:12.357Z</time>
      </trkpt>
      <trkpt lat="43.13702" lon="3.10873">
        <ele>62.23469543457</ele>
        <time>2021-01-03T18:26:15.868Z</time>
      </trkpt>
      <trkpt lat="43.13698" lon="3.10861">
        <ele>62.013717651367</ele>
        <time>2021-01-03T18:26:19.381Z</time>
      </trkpt>
      <trkpt lat="43.13684" lon="3.10853">
        <ele>63.2702293396</ele>
        <time>2021-01-03T18:26:22.897Z</time>
      </trkpt>
      <trkpt lat="43.13669" lon="3.10833">
        <ele>63.491546630859</ele>
        <time>2021-01-03T18:26:26.417Z</time>
      </trkpt>
      <trkpt lat="43.13658" lon="3.1081">
        <ele>63.473747253418</ele>
        <time>2021-01-03T18:26:29.941Z</time>
      </trkpt>
      <trkpt lat="43.13647" lon="3.10799">
        <ele>64.236152648926</ele>
        <time>2021-01-03T18:26:33.468Z</time>
      </trkpt>
      <trkpt lat="43.13622" lon="3.108">
        <ele>67.553733825684</ele>
        <time>2021-01-03T18:26:37.000Z</time>
      </trkpt>
      <trkpt lat="43.13612" lon="3.10797">
        <ele>69.120574951172</ele>
        <time>2021-01-03T18:26:40.534Z</time>
      </trkpt>
      <trkpt lat="43.136" lon="3.10802">
        <ele>71.284538269043</ele>
        <time>2021-01-03T18:26:44.070Z</time>
      </trkpt>
      <trkpt lat="43.13589" lon="3.10801">
        <ele>71.660415649414</ele>
        <time>2021-01-03T18:26:47.609Z</time>
      </trkpt>
      <trkpt lat="43.13579" lon="3.10799">
        <ele>71.928894042969</ele>
        <time>2021-01-03T18:26:51.150Z</time>
      </trkpt>
      <trkpt lat="43.13565" lon="3.10811">
        <ele>72.568428039551</ele>
        <time>2021-01-03T18:26:54.694Z</time>
      </trkpt>
      <trkpt lat="43.13551" lon="3.10828">
        <ele>72.573249816895</ele>
        <time>2021-01-03T18:26:58.242Z</time>
      </trkpt>
      <trkpt lat="43.13539" lon="3.10847">
        <ele>71.909225463867</ele>
        <time>2021-01-03T18:27:01.793Z</time>
      </trkpt>
      <trkpt lat="43.13542" lon="3.10911">
        <ele>74.306816101074</ele>
        <time>2021-01-03T18:27:05.354Z</time>
      </trkpt>
      <trkpt lat="43.13541" lon="3.10931">
        <ele>74.198417663574</ele>
        <time>2021-01-03T18:27:08.918Z</time>
      </trkpt>
      <trkpt lat="43.13543" lon="3.10964">
        <ele>74.777755737305</ele>
        <time>2021-01-03T18:27:12.487Z</time>
      </trkpt>
      <trkpt lat="43.13554" lon="3.10979">
        <ele>74.679504394531</ele>
        <time>2021-01-03T18:27:16.059Z</time>
      </trkpt>
      <trkpt lat="43.13558" lon="3.10996">
        <ele>74.040748596191</ele>
        <time>2021-01-03T18:27:19.633Z</time>
      </trkpt>
      <trkpt lat="43.13561" lon="3.11003">
        <ele>73.445266723633</ele>
        <time>2021-01-03T18:27:23.209Z</time>
      </trkpt>
      <trkpt lat="43.13562" lon="3.11017">
        <ele>72.848205566406</ele>
        <time>2021-01-03T18:27:26.787Z</time>
      </trkpt>
      <trkpt lat="43.13559" lon="3.11034">
        <ele>71.81371307373</ele>
        <time>2021-01-03T18:27:30.367Z</time>
      </trkpt>
      <trkpt lat="43.1355" lon="3.11043">
        <ele>71.818542480469</ele>
        <time>2021-01-03T18:27:33.949Z</time>
      </trkpt>
      <trkpt lat="43.13529" lon="3.11071">
        <ele>70.633544921875</ele>
        <time>2021-01-03T18:27:37.537Z</time>
      </trkpt>
      <trkpt lat="43.13519" lon="3.11078">
        <ele>70.55005645752</ele>
        <time>2021-01-03T18:27:41.128Z</time>
      </trkpt>
      <trkpt lat="43.13511" lon="3.11085">
        <ele>70.074851989746</ele>
        <time>2021-01-03T18:27:44.720Z</time>
      </trkpt>
      <trkpt lat="43.13504" lon="3.11096">
        <ele>69.966918945312</ele>
        <time>2021-01-03T18:27:48.314Z</time>
      </trkpt>
      <trkpt lat="43.13479" lon="3.11114">
        <ele>70.513275146484</ele>
        <time>2021-01-03T18:27:51.914Z</time>
      </trkpt>
      <trkpt lat="43.13466" lon="3.11112">
        <ele>70.597442626953</ele>
        <time>2021-01-03T18:27:55.517Z</time>
      </trkpt>
      <trkpt lat="43.13445" lon="3.11114">
        <ele>69.638648986816</ele>
        <time>2021-01-03T18:27:59.124Z</time>
      </trkpt>
      <trkpt lat="43.13412" lon="3.11112">
        <ele>67.910308837891</ele>
        <time>2021-01-03T18:28:02.738Z</time>
      </trkpt>
      <trkpt lat="43.1339" lon="3.11106">
        <ele>68.381469726562</ele>
        <time>2021-01-03T18:28:06.356Z</time>
      </trkpt>
      <trkpt lat="43.1338" lon="3.11106">
        <ele>68.196128845215</ele>
        <time>2021-01-03T18:28:09.976Z</time>
      </trkpt>
      <trkpt lat="43.13368" lon="3.11117">
        <ele>66.263359069824</ele>
        <time>2021-01-03T18:28:13.599Z</time>
      </trkpt>
      <trkpt lat="43.13364" lon="3.11123">
        <ele>65.549766540527</ele>
        <time>2021-01-03T18:28:17.223Z</time>
      </trkpt>
      <trkpt lat="43.13348" lon="3.11142">
        <ele>63.998760223389</ele>
        <time>2021-01-03T18:28:20.851Z</time>
      </trkpt>
      <trkpt lat="43.13322" lon="3.11157">
        <ele>62.959701538086</ele>
        <time>2021-01-03T18:28:24.485Z</time>
      </trkpt>
      <trkpt lat="43.13307" lon="3.11169">
        <ele>62.527717590332</ele>
        <time>2021-01-03T18:28:28.122Z</time>
      </trkpt>
      <trkpt lat="43.13297" lon="3.11174">
        <ele>62.347927093506</ele>
        <time>2021-01-03T18:28:31.762Z</time>
      </trkpt>
      <trkpt lat="43.13276" lon="3.11171">
        <ele>62.455921173096</ele>
        <time>2021-01-03T18:28:35.406Z</time>
      </trkpt>
      <trkpt lat="43.13267" lon="3.11147">
        <ele>62.97912979126</ele>
        <time>2021-01-03T18:28:39.054Z</time>
      </trkpt>
      <trkpt lat="43.13262" lon="3.11146">
        <ele>62.78214263916</ele>
        <time>2021-01-03T18:28:42.703Z</time>
      </trkpt>
      <trkpt lat="43.13258" lon="3.11149">
        <ele>62.874313354492</ele>
        <time>2021-01-03T18:28:46.353Z</time>
      </trkpt>
      <trkpt lat="43.13252" lon="3.11149">
        <ele>63.100563049316</ele>
        <time>2021-01-03T18:28:50.004Z</time>
      </trkpt>
      <trkpt lat="43.13246" lon="3.11154">
        <ele>63.675231933594</ele>
        <time>2021-01-03T18:28:53.656Z</time>
      </trkpt>
      <trkpt lat="43.13243" lon="3.11166">
        <ele>63.54076385498</ele>
        <time>2021-01-03T18:28:57.310Z</time>
      </trkpt>
      <trkpt lat="43.1323" lon="3.11183">
        <ele>63.324951171875</ele>
        <time>2021-01-03T18:29:00.968Z</time>
      </trkpt>
      <trkpt lat="43.13223" lon="3.11201">
        <ele>63.203189849854</ele>
        <time>2021-01-03T18:29:04.629Z</time>
      </trkpt>
      <trkpt lat="43.13219" lon="3.11208">
        <ele>63.513904571533</ele>
        <time>2021-01-03T18:29:08.291Z</time>
      </trkpt>
      <trkpt lat="43.13215" lon="3.11214">
        <ele>63.696796417236</ele>
        <time>2021-01-03T18:29:11.954Z</time>
      </trkpt>
      <trkpt lat="43.13197" lon="3.1123">
        <ele>60.324573516846</ele>
        <time>2021-01-03T18:29:15.622Z</time>
      </trkpt>
      <trkpt lat="43.13191" lon="3.11239">
        <ele>59.723655700684</ele>
        <time>2021-01-03T18:29:19.291Z</time>
      </trkpt>
      <trkpt lat="43.13174" lon="3.11254">
        <ele>56.682540893555</ele>
        <time>2021-01-03T18:29:22.964Z</time>
      </trkpt>
      <trkpt lat="43.13169" lon="3.11251">
        <ele>55.75220489502</ele>
        <time>2021-01-03T18:29:26.638Z</time>
      </trkpt>
      <trkpt lat="43.13166" lon="3.11239">
        <ele>54.969547271729</ele>
        <time>2021-01-03T18:29:30.314Z</time>
      </trkpt>
      <trkpt lat="43.1316" lon="3.11237">
        <ele>53.537845611572</ele>
        <time>2021-01-03T18:29:33.992Z</time>
      </trkpt>
      <trkpt lat="43.13153" lon="3.1124">
        <ele>51.961223602295</ele>
        <time>2021-01-03T18:29:37.671Z</time>
      </trkpt>
      <trkpt lat="43.13147" lon="3.11247">
        <ele>50.358779907227</ele>
        <time>2021-01-03T18:29:41.352Z</time>
      </trkpt>
      <trkpt lat="43.13141" lon="3.1127">
        <ele>48.490924835205</ele>
        <time>2021-01-03T18:29:45.036Z</time>
      </trkpt>
      <trkpt lat="43.13133" lon="3.11289">
        <ele>45.419372558594</ele>
        <time>2021-01-03T18:29:48.723Z</time>
      </trkpt>
      <trkpt lat="43.13128" lon="3.11308">
        <ele>43.304405212402</ele>
        <time>2021-01-03T18:29:52.413Z</time>
      </trkpt>
      <trkpt lat="43.13119" lon="3.11326">
        <ele>39.04373550415</ele>
        <time>2021-01-03T18:29:56.107Z</time>
      </trkpt>
      <trkpt lat="43.1311" lon="3.1135">
        <ele>33.725692749023</ele>
        <time>2021-01-03T18:29:59.804Z</time>
      </trkpt>
      <trkpt lat="43.13107" lon="3.11351">
        <ele>32.703643798828</ele>
        <time>2021-01-03T18:30:03.502Z</time>
      </trkpt>
      <trkpt lat="43.13106" lon="3.11354">
        <ele>31.959136962891</ele>
        <time>2021-01-03T18:30:07.201Z</time>
      </trkpt>
      <trkpt lat="43.13127" lon="3.11447">
        <ele>26.786289215088</ele>
        <time>2021-01-03T18:30:10.914Z</time>
      </trkpt>
      <trkpt lat="43.13135" lon="3.11473">
        <ele>26.487415313721</ele>
        <time>2021-01-03T18:30:14.631Z</time>
      </trkpt>
      <trkpt lat="43.13128" lon="3.11474">
        <ele>25.348180770874</ele>
        <time>2021-01-03T18:30:18.349Z</time>
      </trkpt>
      <trkpt lat="43.13105" lon="3.11471">
        <ele>21.403009414673</ele>
        <time>2021-01-03T18:30:22.072Z</time>
      </trkpt>
      <trkpt lat="43.13091" lon="3.11479">
        <ele>19.661098480225</ele>
        <time>2021-01-03T18:30:25.798Z</time>
      </trkpt>
      <trkpt lat="43.13083" lon="3.11479">
        <ele>18.812852859497</ele>
        <time>2021-01-03T18:30:29.526Z</time>
      </trkpt>
      <trkpt lat="43.13079" lon="3.11476">
        <ele>18.597164154053</ele>
        <time>2021-01-03T18:30:33.255Z</time>
      </trkpt>
      <trkpt lat="43.13063" lon="3.11472">
        <ele>17.882892608643</ele>
        <time>2021-01-03T18:30:36.987Z</time>
      </trkpt>
      <trkpt lat="43.13043" lon="3.11472">
        <ele>17.622840881348</ele>
        <time>2021-01-03T18:30:40.723Z</time>
      </trkpt>
      <trkpt lat="43.13022" lon="3.11477">
        <ele>17.442747116089</ele>
        <time>2021-01-03T18:30:44.463Z</time>
      </trkpt>
      <trkpt lat="43.12976" lon="3.11513">
        <ele>14.800427436829</ele>
        <time>2021-01-03T18:30:48.214Z</time>
      </trkpt>
      <trkpt lat="43.12972" lon="3.11511">
        <ele>14.800427436829</ele>
        <time>2021-01-03T18:30:51.966Z</time>
      </trkpt>
      <trkpt lat="43.1296" lon="3.11476">
        <ele>16.957893371582</ele>
        <time>2021-01-03T18:30:55.723Z</time>
      </trkpt>
      <trkpt lat="43.12952" lon="3.11465">
        <ele>17.749462127686</ele>
        <time>2021-01-03T18:30:59.482Z</time>
      </trkpt>
      <trkpt lat="43.12933" lon="3.11471">
        <ele>17.74135017395</ele>
        <time>2021-01-03T18:31:03.245Z</time>
      </trkpt>
      <trkpt lat="43.12905" lon="3.11493">
        <ele>18.734340667725</ele>
        <time>2021-01-03T18:31:07.015Z</time>
      </trkpt>
      <trkpt lat="43.12896" lon="3.11492">
        <ele>18.806137084961</ele>
        <time>2021-01-03T18:31:10.787Z</time>
      </trkpt>
      <trkpt lat="43.12874" lon="3.11439">
        <ele>18.505828857422</ele>
        <time>2021-01-03T18:31:14.568Z</time>
      </trkpt>
      <trkpt lat="43.12863" lon="3.11391">
        <ele>17.439189910889</ele>
        <time>2021-01-03T18:31:18.356Z</time>
      </trkpt>
      <trkpt lat="43.12851" lon="3.1137">
        <ele>17.301305770874</ele>
        <time>2021-01-03T18:31:22.148Z</time>
      </trkpt>
      <trkpt lat="43.12842" lon="3.11342">
        <ele>17.367040634155</ele>
        <time>2021-01-03T18:31:25.944Z</time>
      </trkpt>
      <trkpt lat="43.12833" lon="3.11332">
        <ele>16.719064712524</ele>
        <time>2021-01-03T18:31:29.743Z</time>
      </trkpt>
      <trkpt lat="43.12803" lon="3.11328">
        <ele>14.559748649597</ele>
        <time>2021-01-03T18:31:33.548Z</time>
      </trkpt>
      <trkpt lat="43.1278" lon="3.11318">
        <ele>13.286780357361</ele>
        <time>2021-01-03T18:31:37.357Z</time>
      </trkpt>
      <trkpt lat="43.12766" lon="3.11324">
        <ele>13</ele>
        <time>2021-01-03T18:31:41.169Z</time>
      </trkpt>
      <trkpt lat="43.12752" lon="3.11324">
        <ele>13</ele>
        <time>2021-01-03T18:31:44.984Z</time>
      </trkpt>
      <trkpt lat="43.1274" lon="3.11317">
        <ele>13</ele>
        <time>2021-01-03T18:31:48.802Z</time>
      </trkpt>
      <trkpt lat="43.12736" lon="3.11279">
        <ele>11.99338722229</ele>
        <time>2021-01-03T18:31:52.625Z</time>
      </trkpt>
      <trkpt lat="43.12739" lon="3.11259">
        <ele>10.734892845154</ele>
        <time>2021-01-03T18:31:56.451Z</time>
      </trkpt>
      <trkpt lat="43.12741" lon="3.11225">
        <ele>10</ele>
        <time>2021-01-03T18:32:00.282Z</time>
      </trkpt>
      <trkpt lat="43.12732" lon="3.11167">
        <ele>12.199632644653</ele>
        <time>2021-01-03T18:32:04.122Z</time>
      </trkpt>
      <trkpt lat="43.12738" lon="3.11124">
        <ele>15.456957817078</ele>
        <time>2021-01-03T18:32:07.968Z</time>
      </trkpt>
      <trkpt lat="43.12719" lon="3.111">
        <ele>18.730623245239</ele>
        <time>2021-01-03T18:32:11.820Z</time>
      </trkpt>
      <trkpt lat="43.12709" lon="3.11072">
        <ele>21.66254234314</ele>
        <time>2021-01-03T18:32:15.676Z</time>
      </trkpt>
      <trkpt lat="43.12702" lon="3.11063">
        <ele>21.272188186646</ele>
        <time>2021-01-03T18:32:19.534Z</time>
      </trkpt>
      <trkpt lat="43.12679" lon="3.10996">
        <ele>22.374155044556</ele>
        <time>2021-01-03T18:32:23.403Z</time>
      </trkpt>
      <trkpt lat="43.12672" lon="3.10973">
        <ele>22.031400680542</ele>
        <time>2021-01-03T18:32:27.276Z</time>
      </trkpt>
      <trkpt lat="43.12664" lon="3.10936">
        <ele>20.832265853882</ele>
        <time>2021-01-03T18:32:31.154Z</time>
      </trkpt>
      <trkpt lat="43.12658" lon="3.10886">
        <ele>18.350158691406</ele>
        <time>2021-01-03T18:32:35.040Z</time>
      </trkpt>
      <trkpt lat="43.12656" lon="3.1086">
        <ele>17.259656906128</ele>
        <time>2021-01-03T18:32:38.930Z</time>
      </trkpt>
      <trkpt lat="43.12663" lon="3.10842">
        <ele>17.422225952148</ele>
        <time>2021-01-03T18:32:42.823Z</time>
      </trkpt>
      <trkpt lat="43.12674" lon="3.10835">
        <ele>18.641437530518</ele>
        <time>2021-01-03T18:32:46.718Z</time>
      </trkpt>
      <trkpt lat="43.12682" lon="3.10815">
        <ele>19.655378341675</ele>
        <time>2021-01-03T18:32:50.616Z</time>
      </trkpt>
      <trkpt lat="43.12683" lon="3.10804">
        <ele>19.801685333252</ele>
        <time>2021-01-03T18:32:54.516Z</time>
      </trkpt>
      <trkpt lat="43.12677" lon="3.10733">
        <ele>20.71625328064</ele>
        <time>2021-01-03T18:32:58.426Z</time>
      </trkpt>
      <trkpt lat="43.12656" lon="3.1068">
        <ele>19.031902313232</ele>
        <time>2021-01-03T18:33:02.345Z</time>
      </trkpt>
      <trkpt lat="43.1264" lon="3.10663">
        <ele>16.828542709351</ele>
        <time>2021-01-03T18:33:06.268Z</time>
      </trkpt>
      <trkpt lat="43.12636" lon="3.10652">
        <ele>16.459909439087</ele>
        <time>2021-01-03T18:33:10.193Z</time>
      </trkpt>
      <trkpt lat="43.12629" lon="3.10617">
        <ele>16.142381668091</ele>
        <time>2021-01-03T18:33:14.123Z</time>
      </trkpt>
      <trkpt lat="43.12624" lon="3.10579">
        <ele>14.653351783752</ele>
        <time>2021-01-03T18:33:18.059Z</time>
      </trkpt>
      <trkpt lat="43.12618" lon="3.10565">
        <ele>13.202646255493</ele>
        <time>2021-01-03T18:33:21.997Z</time>
      </trkpt>
      <trkpt lat="43.12617" lon="3.10539">
        <ele>12.560564041138</ele>
        <time>2021-01-03T18:33:25.939Z</time>
      </trkpt>
      <trkpt lat="43.12607" lon="3.10526">
        <ele>11.601572036743</ele>
        <time>2021-01-03T18:33:29.884Z</time>
      </trkpt>
      <trkpt lat="43.1259" lon="3.10515">
        <ele>10.746901512146</ele>
        <time>2021-01-03T18:33:33.833Z</time>
      </trkpt>
      <trkpt lat="43.12575" lon="3.10498">
        <ele>11.420518875122</ele>
        <time>2021-01-03T18:33:37.786Z</time>
      </trkpt>
      <trkpt lat="43.12579" lon="3.10471">
        <ele>13.26873588562</ele>
        <time>2021-01-03T18:33:41.743Z</time>
      </trkpt>
      <trkpt lat="43.12592" lon="3.10433">
        <ele>15.024166107178</ele>
        <time>2021-01-03T18:33:45.706Z</time>
      </trkpt>
      <trkpt lat="43.12601" lon="3.10397">
        <ele>17.934823989868</ele>
        <time>2021-01-03T18:33:49.674Z</time>
      </trkpt>
      <trkpt lat="43.12602" lon="3.10362">
        <ele>21.062139511108</ele>
        <time>2021-01-03T18:33:53.648Z</time>
      </trkpt>
      <trkpt lat="43.12596" lon="3.10329">
        <ele>24.029415130615</ele>
        <time>2021-01-03T18:33:57.627Z</time>
      </trkpt>
      <trkpt lat="43.12592" lon="3.10313">
        <ele>25.005805969238</ele>
        <time>2021-01-03T18:34:01.608Z</time>
      </trkpt>
      <trkpt lat="43.12615" lon="3.10288">
        <ele>23.524333953857</ele>
        <time>2021-01-03T18:34:05.595Z</time>
      </trkpt>
      <trkpt lat="43.12637" lon="3.1025">
        <ele>24.254955291748</ele>
        <time>2021-01-03T18:34:09.589Z</time>
      </trkpt>
      <trkpt lat="43.12663" lon="3.10214">
        <ele>27.775588989258</ele>
        <time>2021-01-03T18:34:13.590Z</time>
      </trkpt>
      <trkpt lat="43.12695" lon="3.10189">
        <ele>28.59564781189</ele>
        <time>2021-01-03T18:34:17.599Z</time>
      </trkpt>
      <trkpt lat="43.12712" lon="3.10189">
        <ele>27.458070755005</ele>
        <time>2021-01-03T18:34:21.611Z</time>
      </trkpt>
      <trkpt lat="43.12733" lon="3.10197">
        <ele>25.796375274658</ele>
        <time>2021-01-03T18:34:25.628Z</time>
      </trkpt>
      <trkpt lat="43.12757" lon="3.10215">
        <ele>24.33595085144</ele>
        <time>2021-01-03T18:34:29.650Z</time>
      </trkpt>
      <trkpt lat="43.12808" lon="3.1025">
        <ele>23.601634979248</ele>
        <time>2021-01-03T18:34:33.683Z</time>
      </trkpt>
      <trkpt lat="43.12822" lon="3.10254">
        <ele>23.447484970093</ele>
        <time>2021-01-03T18:34:37.719Z</time>
      </trkpt>
      <trkpt lat="43.12841" lon="3.10254">
        <ele>22.811626434326</ele>
        <time>2021-01-03T18:34:41.759Z</time>
      </trkpt>
      <trkpt lat="43.12852" lon="3.10257">
        <ele>22.363319396973</ele>
        <time>2021-01-03T18:34:45.801Z</time>
      </trkpt>
      <trkpt lat="43.12862" lon="3.1027">
        <ele>22</ele>
        <time>2021-01-03T18:34:49.846Z</time>
      </trkpt>
      <trkpt lat="43.12904" lon="3.10277">
        <ele>22.366106033325</ele>
        <time>2021-01-03T18:34:53.900Z</time>
      </trkpt>
      <trkpt lat="43.12923" lon="3.10289">
        <ele>22.20531463623</ele>
        <time>2021-01-03T18:34:57.958Z</time>
      </trkpt>
      <trkpt lat="43.12943" lon="3.10289">
        <ele>22</ele>
        <time>2021-01-03T18:35:02.020Z</time>
      </trkpt>
      <trkpt lat="43.12961" lon="3.10282">
        <ele>22</ele>
        <time>2021-01-03T18:35:06.086Z</time>
      </trkpt>
      <trkpt lat="43.12978" lon="3.1028">
        <ele>22</ele>
        <time>2021-01-03T18:35:10.155Z</time>
      </trkpt>
      <trkpt lat="43.13003" lon="3.10288">
        <ele>22.468242645264</ele>
        <time>2021-01-03T18:35:14.229Z</time>
      </trkpt>
      <trkpt lat="43.13027" lon="3.10293">
        <ele>23.058921813965</ele>
        <time>2021-01-03T18:35:18.308Z</time>
      </trkpt>
      <trkpt lat="43.13043" lon="3.10292">
        <ele>23.105571746826</ele>
        <time>2021-01-03T18:35:22.390Z</time>
      </trkpt>
      <trkpt lat="43.13064" lon="3.10324">
        <ele>22.728839874268</ele>
        <time>2021-01-03T18:35:26.478Z</time>
      </trkpt>
      <trkpt lat="43.1308" lon="3.10337">
        <ele>23.99142074585</ele>
        <time>2021-01-03T18:35:30.570Z</time>
      </trkpt>
      <trkpt lat="43.1311" lon="3.10371">
        <ele>27.428890228271</ele>
        <time>2021-01-03T18:35:34.670Z</time>
      </trkpt>
      <trkpt lat="43.13128" lon="3.10381">
        <ele>29.007200241089</ele>
        <time>2021-01-03T18:35:38.774Z</time>
      </trkpt>
      <trkpt lat="43.13152" lon="3.10403">
        <ele>30.722314834595</ele>
        <time>2021-01-03T18:35:42.884Z</time>
      </trkpt>
      <trkpt lat="43.13149" lon="3.10427">
        <ele>31.446485519409</ele>
        <time>2021-01-03T18:35:46.997Z</time>
      </trkpt>
      <trkpt lat="43.13135" lon="3.10462">
        <ele>32.238166809082</ele>
        <time>2021-01-03T18:35:51.116Z</time>
      </trkpt>
      <trkpt lat="43.13133" lon="3.10484">
        <ele>33.506992340088</ele>
        <time>2021-01-03T18:35:55.238Z</time>
      </trkpt>
      <trkpt lat="43.13135" lon="3.10502">
        <ele>33.523670196533</ele>
        <time>2021-01-03T18:35:59.363Z</time>
      </trkpt>
      <trkpt lat="43.13141" lon="3.10507">
        <ele>33.135726928711</ele>
        <time>2021-01-03T18:36:03.489Z</time>
      </trkpt>
      <trkpt lat="43.13155" lon="3.10512">
        <ele>32.242015838623</ele>
        <time>2021-01-03T18:36:07.618Z</time>
      </trkpt>
      <trkpt lat="43.13164" lon="3.10502">
        <ele>32.253177642822</ele>
        <time>2021-01-03T18:36:11.749Z</time>
      </trkpt>
      <trkpt lat="43.13185" lon="3.10515">
        <ele>31.092748641968</ele>
        <time>2021-01-03T18:36:15.885Z</time>
      </trkpt>
      <trkpt lat="43.13222" lon="3.10518">
        <ele>32.35888671875</ele>
        <time>2021-01-03T18:36:20.028Z</time>
      </trkpt>
      <trkpt lat="43.13269" lon="3.10564">
        <ele>35.041572570801</ele>
        <time>2021-01-03T18:36:24.183Z</time>
      </trkpt>
      <trkpt lat="43.13311" lon="3.10576">
        <ele>35.862049102783</ele>
        <time>2021-01-03T18:36:28.347Z</time>
      </trkpt>
      <trkpt lat="43.13319" lon="3.10575">
        <ele>35.908809661865</ele>
        <time>2021-01-03T18:36:32.512Z</time>
      </trkpt>
      <trkpt lat="43.1334" lon="3.10553">
        <ele>37.388244628906</ele>
        <time>2021-01-03T18:36:36.683Z</time>
      </trkpt>
      <trkpt lat="43.13351" lon="3.10547">
        <ele>37.016593933105</ele>
        <time>2021-01-03T18:36:40.856Z</time>
      </trkpt>
      <trkpt lat="43.13363" lon="3.10552">
        <ele>37.839832305908</ele>
        <time>2021-01-03T18:36:45.031Z</time>
      </trkpt>
      <trkpt lat="43.13399" lon="3.10596">
        <ele>40.39697265625</ele>
        <time>2021-01-03T18:36:49.216Z</time>
      </trkpt>
      <trkpt lat="43.13415" lon="3.10609">
        <ele>41.558681488037</ele>
        <time>2021-01-03T18:36:53.405Z</time>
      </trkpt>
      <trkpt lat="43.13431" lon="3.10607">
        <ele>42.723785400391</ele>
        <time>2021-01-03T18:36:57.597Z</time>
      </trkpt>
      <trkpt lat="43.13448" lon="3.10607">
        <ele>43.984741210938</ele>
        <time>2021-01-03T18:37:01.792Z</time>
      </trkpt>
      <trkpt lat="43.13439" lon="3.10633">
        <ele>43.287223815918</ele>
        <time>2021-01-03T18:37:05.992Z</time>
      </trkpt>
      <trkpt lat="43.1344" lon="3.10643">
        <ele>43.130054473877</ele>
        <time>2021-01-03T18:37:10.193Z</time>
      </trkpt>
      <trkpt lat="43.13445" lon="3.10653">
        <ele>43.241367340088</ele>
        <time>2021-01-03T18:37:14.396Z</time>
      </trkpt>
      <trkpt lat="43.13432" lon="3.10652">
        <ele>41.930637359619</ele>
        <time>2021-01-03T18:37:18.601Z</time>
      </trkpt>
      <trkpt lat="43.13434" lon="3.10656">
        <ele>41.996028900146</ele>
        <time>2021-01-03T18:37:22.807Z</time>
      </trkpt>
      <trkpt lat="43.13443" lon="3.10666">
        <ele>42.662353515625</ele>
        <time>2021-01-03T18:37:27.015Z</time>
      </trkpt>
      <trkpt lat="43.13468" lon="3.10687">
        <ele>44.219985961914</ele>
        <time>2021-01-03T18:37:31.229Z</time>
      </trkpt>
      <trkpt lat="43.13484" lon="3.10702">
        <ele>44.801898956299</ele>
        <time>2021-01-03T18:37:35.447Z</time>
      </trkpt>
      <trkpt lat="43.1348" lon="3.10745">
        <ele>46.392440795898</ele>
        <time>2021-01-03T18:37:39.672Z</time>
      </trkpt>
      <trkpt lat="43.13464" lon="3.10783">
        <ele>47.826099395752</ele>
        <time>2021-01-03T18:37:43.903Z</time>
      </trkpt>
      <trkpt lat="43.13465" lon="3.10867">
        <ele>55.534309387207</ele>
        <time>2021-01-03T18:37:48.146Z</time>
      </trkpt>
      <trkpt lat="43.13457" lon="3.10906">
        <ele>54.437320709229</ele>
        <time>2021-01-03T18:37:52.395Z</time>
      </trkpt>
      <trkpt lat="43.13448" lon="3.10932">
        <ele>54.474426269531</ele>
        <time>2021-01-03T18:37:56.648Z</time>
      </trkpt>
      <trkpt lat="43.13441" lon="3.10948">
        <ele>54.954456329346</ele>
        <time>2021-01-03T18:38:00.904Z</time>
      </trkpt>
      <trkpt lat="43.13435" lon="3.10941">
        <ele>53.58610534668</ele>
        <time>2021-01-03T18:38:05.162Z</time>
      </trkpt>
      <trkpt lat="43.13428" lon="3.10928">
        <ele>52.370208740234</ele>
        <time>2021-01-03T18:38:09.422Z</time>
      </trkpt>
      <trkpt lat="43.13416" lon="3.10916">
        <ele>51.10774230957</ele>
        <time>2021-01-03T18:38:13.685Z</time>
      </trkpt>
      <trkpt lat="43.13398" lon="3.10914">
        <ele>50.552108764648</ele>
        <time>2021-01-03T18:38:17.952Z</time>
      </trkpt>
      <trkpt lat="43.13384" lon="3.10909">
        <ele>49.574718475342</ele>
        <time>2021-01-03T18:38:22.222Z</time>
      </trkpt>
      <trkpt lat="43.13379" lon="3.10894">
        <ele>48.587650299072</ele>
        <time>2021-01-03T18:38:26.494Z</time>
      </trkpt>
      <trkpt lat="43.13377" lon="3.10874">
        <ele>47.868465423584</ele>
        <time>2021-01-03T18:38:30.769Z</time>
      </trkpt>
      <trkpt lat="43.13365" lon="3.10857">
        <ele>47.251258850098</ele>
        <time>2021-01-03T18:38:35.047Z</time>
      </trkpt>
      <trkpt lat="43.13351" lon="3.10847">
        <ele>46.744735717773</ele>
        <time>2021-01-03T18:38:39.329Z</time>
      </trkpt>
      <trkpt lat="43.13335" lon="3.1084">
        <ele>45.902160644531</ele>
        <time>2021-01-03T18:38:43.614Z</time>
      </trkpt>
      <trkpt lat="43.13323" lon="3.1083">
        <ele>44.806793212891</ele>
        <time>2021-01-03T18:38:47.902Z</time>
      </trkpt>
      <trkpt lat="43.13309" lon="3.10824">
        <ele>43.639049530029</ele>
        <time>2021-01-03T18:38:52.193Z</time>
      </trkpt>
      <trkpt lat="43.13295" lon="3.1082">
        <ele>42.867855072021</ele>
        <time>2021-01-03T18:38:56.487Z</time>
      </trkpt>
      <trkpt lat="43.13257" lon="3.10773">
        <ele>42.178852081299</ele>
        <time>2021-01-03T18:39:00.791Z</time>
      </trkpt>
      <trkpt lat="43.13244" lon="3.1076">
        <ele>42.194538116455</ele>
        <time>2021-01-03T18:39:05.098Z</time>
      </trkpt>
      <trkpt lat="43.1323" lon="3.10756">
        <ele>43.251949310303</ele>
        <time>2021-01-03T18:39:09.408Z</time>
      </trkpt>
      <trkpt lat="43.13219" lon="3.10745">
        <ele>43.661609649658</ele>
        <time>2021-01-03T18:39:13.721Z</time>
      </trkpt>
      <trkpt lat="43.13214" lon="3.10724">
        <ele>42.671848297119</ele>
        <time>2021-01-03T18:39:18.037Z</time>
      </trkpt>
      <trkpt lat="43.13215" lon="3.10704">
        <ele>40.948318481445</ele>
        <time>2021-01-03T18:39:22.356Z</time>
      </trkpt>
      <trkpt lat="43.13197" lon="3.10663">
        <ele>38.450534820557</ele>
        <time>2021-01-03T18:39:26.682Z</time>
      </trkpt>
      <trkpt lat="43.13174" lon="3.10624">
        <ele>37.687606811523</ele>
        <time>2021-01-03T18:39:31.015Z</time>
      </trkpt>
      <trkpt lat="43.13164" lon="3.10613">
        <ele>37.573577880859</ele>
        <time>2021-01-03T18:39:35.351Z</time>
      </trkpt>
      <trkpt lat="43.13153" lon="3.10605">
        <ele>37.640281677246</ele>
        <time>2021-01-03T18:39:39.689Z</time>
      </trkpt>
      <trkpt lat="43.1313" lon="3.10595">
        <ele>37.597038269043</ele>
        <time>2021-01-03T18:39:44.032Z</time>
      </trkpt>
      <trkpt lat="43.13092" lon="3.10585">
        <ele>38.892501831055</ele>
        <time>2021-01-03T18:39:48.383Z</time>
      </trkpt>
      <trkpt lat="43.13059" lon="3.10585">
        <ele>38.892501831055</ele>
        <time>2021-01-03T18:39:52.740Z</time>
      </trkpt>
      <trkpt lat="43.13035" lon="3.10591">
        <ele>39.427062988281</ele>
        <time>2021-01-03T18:39:57.102Z</time>
      </trkpt>
      <trkpt lat="43.13019" lon="3.10603">
        <ele>41.210777282715</ele>
        <time>2021-01-03T18:40:01.468Z</time>
      </trkpt>
      <trkpt lat="43.13014" lon="3.1062">
        <ele>42.315246582031</ele>
        <time>2021-01-03T18:40:05.837Z</time>
      </trkpt>
      <trkpt lat="43.13004" lon="3.10623">
        <ele>42.420276641846</ele>
        <time>2021-01-03T18:40:10.208Z</time>
      </trkpt>
      <trkpt lat="43.12996" lon="3.10621">
        <ele>42.210315704346</ele>
        <time>2021-01-03T18:40:14.580Z</time>
      </trkpt>
      <trkpt lat="43.12984" lon="3.1061">
        <ele>41.032012939453</ele>
        <time>2021-01-03T18:40:18.955Z</time>
      </trkpt>
      <trkpt lat="43.12966" lon="3.10596">
        <ele>39.586738586426</ele>
        <time>2021-01-03T18:40:23.334Z</time>
      </trkpt>
      <trkpt lat="43.1294" lon="3.10585">
        <ele>37.859813690186</ele>
        <time>2021-01-03T18:40:27.719Z</time>
      </trkpt>
      <trkpt lat="43.12893" lon="3.10572">
        <ele>37.482624053955</ele>
        <time>2021-01-03T18:40:32.113Z</time>
      </trkpt>
      <trkpt lat="43.12871" lon="3.10591">
        <ele>39.586345672607</ele>
        <time>2021-01-03T18:40:36.512Z</time>
      </trkpt>
      <trkpt lat="43.12853" lon="3.10592">
        <ele>40.310340881348</ele>
        <time>2021-01-03T18:40:40.915Z</time>
      </trkpt>
      <trkpt lat="43.12838" lon="3.10599">
        <ele>40.476985931396</ele>
        <time>2021-01-03T18:40:45.321Z</time>
      </trkpt>
      <trkpt lat="43.12837" lon="3.10574">
        <ele>39.088264465332</ele>
        <time>2021-01-03T18:40:49.731Z</time>
      </trkpt>
      <trkpt lat="43.12825" lon="3.10561">
        <ele>37.729652404785</ele>
        <time>2021-01-03T18:40:54.144Z</time>
      </trkpt>
      <trkpt lat="43.12797" lon="3.10483">
        <ele>29.728605270386</ele>
        <time>2021-01-03T18:40:58.570Z</time>
      </trkpt>
      <trkpt lat="43.12788" lon="3.10466">
        <ele>28.904315948486</ele>
        <time>2021-01-03T18:41:02.999Z</time>
      </trkpt>
      <trkpt lat="43.12762" lon="3.10457">
        <ele>26.918308258057</ele>
        <time>2021-01-03T18:41:07.433Z</time>
      </trkpt>
      <trkpt lat="43.12754" lon="3.10443">
        <ele>24.80624961853</ele>
        <time>2021-01-03T18:41:11.870Z</time>
      </trkpt>
      <trkpt lat="43.12757" lon="3.10416">
        <ele>22.329662322998</ele>
        <time>2021-01-03T18:41:16.311Z</time>
      </trkpt>
      <trkpt lat="43.12762" lon="3.104">
        <ele>20.81418800354</ele>
        <time>2021-01-03T18:41:20.754Z</time>
      </trkpt>
      <trkpt lat="43.12769" lon="3.10392">
        <ele>20.053781509399</ele>
        <time>2021-01-03T18:41:25.199Z</time>
      </trkpt>
      <trkpt lat="43.12798" lon="3.10387">
        <ele>20.774391174316</ele>
        <time>2021-01-03T18:41:29.650Z</time>
      </trkpt>
      <trkpt lat="43.12813" lon="3.10402">
        <ele>21.250719070435</ele>
        <time>2021-01-03T18:41:34.104Z</time>
      </trkpt>
      <trkpt lat="43.12849" lon="3.1043">
        <ele>20.075750350952</ele>
        <time>2021-01-03T18:41:38.567Z</time>
      </trkpt>
      <trkpt lat="43.12856" lon="3.1042">
        <ele>20</ele>
        <time>2021-01-03T18:41:43.032Z</time>
      </trkpt>
      <trkpt lat="43.12858" lon="3.10409">
        <ele>20.158363342285</ele>
        <time>2021-01-03T18:41:47.498Z</time>
      </trkpt>
      <trkpt lat="43.12843" lon="3.10376">
        <ele>20.666585922241</ele>
        <time>2021-01-03T18:41:51.970Z</time>
      </trkpt>
      <trkpt lat="43.12845" lon="3.10363">
        <ele>20.589668273926</ele>
        <time>2021-01-03T18:41:56.444Z</time>
      </trkpt>
      <trkpt lat="43.12873" lon="3.10337">
        <ele>22.561952590942</ele>
        <time>2021-01-03T18:42:00.925Z</time>
      </trkpt>
      <trkpt lat="43.12886" lon="3.1035">
        <ele>22.998552322388</ele>
        <time>2021-01-03T18:42:05.409Z</time>
      </trkpt>
      <trkpt lat="43.12893" lon="3.10385">
        <ele>22</ele>
        <time>2021-01-03T18:42:09.898Z</time>
      </trkpt>
      <trkpt lat="43.12913" lon="3.10407">
        <ele>22.254888534546</ele>
        <time>2021-01-03T18:42:14.392Z</time>
      </trkpt>
      <trkpt lat="43.12931" lon="3.10416">
        <ele>23.262748718262</ele>
        <time>2021-01-03T18:42:18.890Z</time>
      </trkpt>
      <trkpt lat="43.12955" lon="3.10413">
        <ele>24.025960922241</ele>
        <time>2021-01-03T18:42:23.393Z</time>
      </trkpt>
      <trkpt lat="43.12963" lon="3.10426">
        <ele>24.808519363403</ele>
        <time>2021-01-03T18:42:27.899Z</time>
      </trkpt>
      <trkpt lat="43.12979" lon="3.10427">
        <ele>26.019100189209</ele>
        <time>2021-01-03T18:42:32.408Z</time>
      </trkpt>
      <trkpt lat="43.12994" lon="3.10421">
        <ele>26.24619102478</ele>
        <time>2021-01-03T18:42:36.920Z</time>
      </trkpt>
      <trkpt lat="43.13007" lon="3.10421">
        <ele>26.714977264404</ele>
        <time>2021-01-03T18:42:41.434Z</time>
      </trkpt>
      <trkpt lat="43.13021" lon="3.10449">
        <ele>28.671579360962</ele>
        <time>2021-01-03T18:42:45.953Z</time>
      </trkpt>
      <trkpt lat="43.13031" lon="3.10462">
        <ele>29.511112213135</ele>
        <time>2021-01-03T18:42:50.475Z</time>
      </trkpt>
      <trkpt lat="43.1305" lon="3.10472">
        <ele>30.547933578491</ele>
        <time>2021-01-03T18:42:55.001Z</time>
      </trkpt>
      <trkpt lat="43.13071" lon="3.10481">
        <ele>31.447416305542</ele>
        <time>2021-01-03T18:42:59.532Z</time>
      </trkpt>
      <trkpt lat="43.13089" lon="3.10492">
        <ele>32.816184997559</ele>
        <time>2021-01-03T18:43:04.067Z</time>
      </trkpt>
      <trkpt lat="43.13127" lon="3.10526">
        <ele>34.066516876221</ele>
        <time>2021-01-03T18:43:08.611Z</time>
      </trkpt>
      <trkpt lat="43.13137" lon="3.10558">
        <ele>34.385967254639</ele>
        <time>2021-01-03T18:43:13.160Z</time>
      </trkpt>
      <trkpt lat="43.13151" lon="3.10581">
        <ele>35.3203125</ele>
        <time>2021-01-03T18:43:17.713Z</time>
      </trkpt>
      <trkpt lat="43.13161" lon="3.10586">
        <ele>35.009727478027</ele>
        <time>2021-01-03T18:43:22.268Z</time>
      </trkpt>
      <trkpt lat="43.13164" lon="3.10585">
        <ele>34.585285186768</ele>
        <time>2021-01-03T18:43:26.824Z</time>
      </trkpt>
      <trkpt lat="43.13169" lon="3.1058">
        <ele>33.648094177246</ele>
        <time>2021-01-03T18:43:31.381Z</time>
      </trkpt>
      <trkpt lat="43.13171" lon="3.10565">
        <ele>32.382308959961</ele>
        <time>2021-01-03T18:43:35.940Z</time>
      </trkpt>
      <trkpt lat="43.13172" lon="3.10548">
        <ele>31.589031219482</ele>
        <time>2021-01-03T18:43:40.502Z</time>
      </trkpt>
      <trkpt lat="43.13165" lon="3.10534">
        <ele>31.705404281616</ele>
        <time>2021-01-03T18:43:45.066Z</time>
      </trkpt>
      <trkpt lat="43.13155" lon="3.10522">
        <ele>32.109466552734</ele>
        <time>2021-01-03T18:43:49.633Z</time>
      </trkpt>
      <trkpt lat="43.1315" lon="3.10511">
        <ele>32.484130859375</ele>
        <time>2021-01-03T18:43:54.202Z</time>
      </trkpt>
      <trkpt lat="43.13149" lon="3.10502">
        <ele>32.793758392334</ele>
        <time>2021-01-03T18:43:58.772Z</time>
      </trkpt>
      <trkpt lat="43.13152" lon="3.10497">
        <ele>32.857711791992</ele>
        <time>2021-01-03T18:44:03.343Z</time>
      </trkpt>
      <trkpt lat="43.1316" lon="3.10492">
        <ele>32.779582977295</ele>
        <time>2021-01-03T18:44:07.916Z</time>
      </trkpt>
      <trkpt lat="43.13171" lon="3.10491">
        <ele>32.394054412842</ele>
        <time>2021-01-03T18:44:12.491Z</time>
      </trkpt>
      <trkpt lat="43.13188" lon="3.10504">
        <ele>31.585065841675</ele>
        <time>2021-01-03T18:44:17.070Z</time>
      </trkpt>
      <trkpt lat="43.13209" lon="3.10503">
        <ele>32.369693756104</ele>
        <time>2021-01-03T18:44:21.653Z</time>
      </trkpt>
      <trkpt lat="43.13206" lon="3.10485">
        <ele>32.923854827881</ele>
        <time>2021-01-03T18:44:26.239Z</time>
      </trkpt>
      <trkpt lat="43.13192" lon="3.10439">
        <ele>32.283752441406</ele>
        <time>2021-01-03T18:44:30.832Z</time>
      </trkpt>
      <trkpt lat="43.1318" lon="3.10409">
        <ele>31.856897354126</ele>
        <time>2021-01-03T18:44:35.430Z</time>
      </trkpt>
      <trkpt lat="43.1317" lon="3.10397">
        <ele>31.172397613525</ele>
        <time>2021-01-03T18:44:40.031Z</time>
      </trkpt>
      <trkpt lat="43.13158" lon="3.1039">
        <ele>30.473743438721</ele>
        <time>2021-01-03T18:44:44.635Z</time>
      </trkpt>
      <trkpt lat="43.13148" lon="3.10379">
        <ele>29.741903305054</ele>
        <time>2021-01-03T18:44:49.241Z</time>
      </trkpt>
      <trkpt lat="43.13132" lon="3.10366">
        <ele>28.695428848267</ele>
        <time>2021-01-03T18:44:53.851Z</time>
      </trkpt>
      <trkpt lat="43.13104" lon="3.1035">
        <ele>26.174266815186</ele>
        <time>2021-01-03T18:44:58.467Z</time>
      </trkpt>
      <trkpt lat="43.13096" lon="3.10348">
        <ele>25.569128036499</ele>
        <time>2021-01-03T18:45:03.084Z</time>
      </trkpt>
      <trkpt lat="43.131" lon="3.10339">
        <ele>25.535945892334</ele>
        <time>2021-01-03T18:45:07.703Z</time>
      </trkpt>
      <trkpt lat="43.13102" lon="3.10329">
        <ele>25.328399658203</ele>
        <time>2021-01-03T18:45:12.323Z</time>
      </trkpt>
      <trkpt lat="43.13101" lon="3.1031">
        <ele>25.011127471924</ele>
        <time>2021-01-03T18:45:16.946Z</time>
      </trkpt>
      <trkpt lat="43.13106" lon="3.10309">
        <ele>25.34718132019</ele>
        <time>2021-01-03T18:45:21.570Z</time>
      </trkpt>
      <trkpt lat="43.13158" lon="3.10334">
        <ele>28.536623001099</ele>
        <time>2021-01-03T18:45:26.205Z</time>
      </trkpt>
      <trkpt lat="43.13173" lon="3.10346">
        <ele>30.030466079712</ele>
        <time>2021-01-03T18:45:30.844Z</time>
      </trkpt>
      <trkpt lat="43.13184" lon="3.10347">
        <ele>30.815698623657</ele>
        <time>2021-01-03T18:45:35.485Z</time>
      </trkpt>
      <trkpt lat="43.1319" lon="3.10344">
        <ele>31.002542495728</ele>
        <time>2021-01-03T18:45:40.127Z</time>
      </trkpt>
      <trkpt lat="43.13198" lon="3.10345">
        <ele>31.337692260742</ele>
        <time>2021-01-03T18:45:44.771Z</time>
      </trkpt>
      <trkpt lat="43.13204" lon="3.10337">
        <ele>31.218233108521</ele>
        <time>2021-01-03T18:45:49.416Z</time>
      </trkpt>
      <trkpt lat="43.13229" lon="3.10309">
        <ele>31.621032714844</ele>
        <time>2021-01-03T18:45:54.068Z</time>
      </trkpt>
      <trkpt lat="43.13256" lon="3.10286">
        <ele>33.192630767822</ele>
        <time>2021-01-03T18:45:58.726Z</time>
      </trkpt>
      <trkpt lat="43.13268" lon="3.10283">
        <ele>34.433475494385</ele>
        <time>2021-01-03T18:46:03.387Z</time>
      </trkpt>
      <trkpt lat="43.13278" lon="3.10282">
        <ele>35.160186767578</ele>
        <time>2021-01-03T18:46:08.050Z</time>
      </trkpt>
      <trkpt lat="43.13288" lon="3.10286">
        <ele>35.730274200439</ele>
        <time>2021-01-03T18:46:12.715Z</time>
      </trkpt>
      <trkpt lat="43.13312" lon="3.10317">
        <ele>35.786178588867</ele>
        <time>2021-01-03T18:46:17.386Z</time>
      </trkpt>
      <trkpt lat="43.13324" lon="3.10317">
        <ele>36</ele>
        <time>2021-01-03T18:46:22.060Z</time>
      </trkpt>
      <trkpt lat="43.13379" lon="3.10305">
        <ele>36.377285003662</ele>
        <time>2021-01-03T18:46:26.745Z</time>
      </trkpt>
      <trkpt lat="43.13399" lon="3.10288">
        <ele>36.226043701172</ele>
        <time>2021-01-03T18:46:31.435Z</time>
      </trkpt>
      <trkpt lat="43.13407" lon="3.10287">
        <ele>36.339542388916</ele>
        <time>2021-01-03T18:46:36.126Z</time>
      </trkpt>
      <trkpt lat="43.13418" lon="3.1029">
        <ele>36.950412750244</ele>
        <time>2021-01-03T18:46:40.819Z</time>
      </trkpt>
      <trkpt lat="43.13439" lon="3.1029">
        <ele>38.182861328125</ele>
        <time>2021-01-03T18:46:45.517Z</time>
      </trkpt>
      <trkpt lat="43.13469" lon="3.10293">
        <ele>39.057716369629</ele>
        <time>2021-01-03T18:46:50.221Z</time>
      </trkpt>
      <trkpt lat="43.13484" lon="3.10289">
        <ele>39.183811187744</ele>
        <time>2021-01-03T18:46:54.928Z</time>
      </trkpt>
      <trkpt lat="43.13504" lon="3.10277">
        <ele>38.588745117188</ele>
        <time>2021-01-03T18:46:59.639Z</time>
      </trkpt>
      <trkpt lat="43.13535" lon="3.1028">
        <ele>38</ele>
        <time>2021-01-03T18:47:04.356Z</time>
      </trkpt>
      <trkpt lat="43.13551" lon="3.10276">
        <ele>38.399662017822</ele>
        <time>2021-01-03T18:47:09.077Z</time>
      </trkpt>
      <trkpt lat="43.1356" lon="3.10268">
        <ele>39.02169418335</ele>
        <time>2021-01-03T18:47:13.800Z</time>
      </trkpt>
      <trkpt lat="43.13565" lon="3.10258">
        <ele>40.005390167236</ele>
        <time>2021-01-03T18:47:18.524Z</time>
      </trkpt>
      <trkpt lat="43.1357" lon="3.10226">
        <ele>42.126811981201</ele>
        <time>2021-01-03T18:47:23.253Z</time>
      </trkpt>
      <trkpt lat="43.13572" lon="3.10196">
        <ele>44.942844390869</ele>
        <time>2021-01-03T18:47:27.987Z</time>
      </trkpt>
      <trkpt lat="43.13576" lon="3.10172">
        <ele>46.74361038208</ele>
        <time>2021-01-03T18:47:32.724Z</time>
      </trkpt>
      <trkpt lat="43.13576" lon="3.10152">
        <ele>47.346492767334</ele>
        <time>2021-01-03T18:47:37.464Z</time>
      </trkpt>
      <trkpt lat="43.13571" lon="3.10123">
        <ele>47.886016845703</ele>
        <time>2021-01-03T18:47:42.209Z</time>
      </trkpt>
      <trkpt lat="43.13579" lon="3.10097">
        <ele>49.209201812744</ele>
        <time>2021-01-03T18:47:46.958Z</time>
      </trkpt>
      <trkpt lat="43.13592" lon="3.10065">
        <ele>49.684623718262</ele>
        <time>2021-01-03T18:47:51.712Z</time>
      </trkpt>
      <trkpt lat="43.13597" lon="3.1005">
        <ele>50.492893218994</ele>
        <time>2021-01-03T18:47:56.469Z</time>
      </trkpt>
      <trkpt lat="43.13604" lon="3.10033">
        <ele>51.658222198486</ele>
        <time>2021-01-03T18:48:01.229Z</time>
      </trkpt>
      <trkpt lat="43.13607" lon="3.09989">
        <ele>52.431709289551</ele>
        <time>2021-01-03T18:48:05.995Z</time>
      </trkpt>
      <trkpt lat="43.13604" lon="3.09964">
        <ele>53.154800415039</ele>
        <time>2021-01-03T18:48:10.765Z</time>
      </trkpt>
      <trkpt lat="43.136" lon="3.09946">
        <ele>52.953269958496</ele>
        <time>2021-01-03T18:48:15.537Z</time>
      </trkpt>
      <trkpt lat="43.13574" lon="3.09908">
        <ele>51.96354675293</ele>
        <time>2021-01-03T18:48:20.317Z</time>
      </trkpt>
      <trkpt lat="43.13564" lon="3.0987">
        <ele>52.29178237915</ele>
        <time>2021-01-03T18:48:25.103Z</time>
      </trkpt>
      <trkpt lat="43.13557" lon="3.09851">
        <ele>52.95092010498</ele>
        <time>2021-01-03T18:48:29.892Z</time>
      </trkpt>
      <trkpt lat="43.13548" lon="3.09831">
        <ele>54.332939147949</ele>
        <time>2021-01-03T18:48:34.684Z</time>
      </trkpt>
      <trkpt lat="43.13537" lon="3.09818">
        <ele>55.143100738525</ele>
        <time>2021-01-03T18:48:39.480Z</time>
      </trkpt>
      <trkpt lat="43.13527" lon="3.09802">
        <ele>55.718372344971</ele>
        <time>2021-01-03T18:48:44.279Z</time>
      </trkpt>
      <trkpt lat="43.13521" lon="3.09786">
        <ele>56</ele>
        <time>2021-01-03T18:48:49.080Z</time>
      </trkpt>
      <trkpt lat="43.13514" lon="3.09764">
        <ele>56.024780273438</ele>
        <time>2021-01-03T18:48:53.885Z</time>
      </trkpt>
      <trkpt lat="43.13516" lon="3.09742">
        <ele>56</ele>
        <time>2021-01-03T18:48:58.693Z</time>
      </trkpt>
      <trkpt lat="43.1352" lon="3.09722">
        <ele>56.727096557617</ele>
        <time>2021-01-03T18:49:03.504Z</time>
      </trkpt>
      <trkpt lat="43.1352" lon="3.09701">
        <ele>57.172771453857</ele>
        <time>2021-01-03T18:49:08.318Z</time>
      </trkpt>
      <trkpt lat="43.13516" lon="3.09673">
        <ele>57.060222625732</ele>
        <time>2021-01-03T18:49:13.136Z</time>
      </trkpt>
      <trkpt lat="43.13503" lon="3.09642">
        <ele>58.033313751221</ele>
        <time>2021-01-03T18:49:17.959Z</time>
      </trkpt>
      <trkpt lat="43.13494" lon="3.09634">
        <ele>58.600444793701</ele>
        <time>2021-01-03T18:49:22.784Z</time>
      </trkpt>
      <trkpt lat="43.13495" lon="3.09635">
        <ele>58.536190032959</ele>
        <time>2021-01-03T18:49:27.610Z</time>
      </trkpt>
      <trkpt lat="43.13491" lon="3.09625">
        <ele>59.047512054443</ele>
        <time>2021-01-03T18:49:32.437Z</time>
      </trkpt>
      <trkpt lat="43.13479" lon="3.09608">
        <ele>59.726348876953</ele>
        <time>2021-01-03T18:49:37.268Z</time>
      </trkpt>
      <trkpt lat="43.13475" lon="3.09606">
        <ele>59.791809082031</ele>
        <time>2021-01-03T18:49:42.100Z</time>
      </trkpt>
      <trkpt lat="43.13464" lon="3.09577">
        <ele>60</ele>
        <time>2021-01-03T18:49:46.937Z</time>
      </trkpt>
      <trkpt lat="43.13458" lon="3.09574">
        <ele>60.143821716309</ele>
        <time>2021-01-03T18:49:51.775Z</time>
      </trkpt>
      <trkpt lat="43.1345" lon="3.09565">
        <ele>60.669296264648</ele>
        <time>2021-01-03T18:49:56.615Z</time>
      </trkpt>
      <trkpt lat="43.13434" lon="3.09553">
        <ele>61.75940322876</ele>
        <time>2021-01-03T18:50:01.459Z</time>
      </trkpt>
      <trkpt lat="43.13414" lon="3.09522">
        <ele>63.481063842773</ele>
        <time>2021-01-03T18:50:06.309Z</time>
      </trkpt>
      <trkpt lat="43.13405" lon="3.09491">
        <ele>62.284301757812</ele>
        <time>2021-01-03T18:50:11.164Z</time>
      </trkpt>
      <trkpt lat="43.13398" lon="3.09476">
        <ele>62.271293640137</ele>
        <time>2021-01-03T18:50:16.021Z</time>
      </trkpt>
      <trkpt lat="43.1339" lon="3.09443">
        <ele>61.84646987915</ele>
        <time>2021-01-03T18:50:20.883Z</time>
      </trkpt>
      <trkpt lat="43.13368" lon="3.09392">
        <ele>65.697906494141</ele>
        <time>2021-01-03T18:50:25.754Z</time>
      </trkpt>
      <trkpt lat="43.13365" lon="3.09389">
        <ele>66.19384765625</ele>
        <time>2021-01-03T18:50:30.626Z</time>
      </trkpt>
      <trkpt lat="43.13362" lon="3.09381">
        <ele>67.018592834473</ele>
        <time>2021-01-03T18:50:35.499Z</time>
      </trkpt>
      <trkpt lat="43.13348" lon="3.09357">
        <ele>69.568267822266</ele>
        <time>2021-01-03T18:50:40.376Z</time>
      </trkpt>
      <trkpt lat="43.13344" lon="3.09355">
        <ele>69.863899230957</ele>
        <time>2021-01-03T18:50:45.254Z</time>
      </trkpt>
      <trkpt lat="43.13337" lon="3.09357">
        <ele>69.979736328125</ele>
        <time>2021-01-03T18:50:50.134Z</time>
      </trkpt>
      <trkpt lat="43.13317" lon="3.09369">
        <ele>70.531661987305</ele>
        <time>2021-01-03T18:50:55.018Z</time>
      </trkpt>
      <trkpt lat="43.13307" lon="3.0937">
        <ele>71.456390380859</ele>
        <time>2021-01-03T18:50:59.904Z</time>
      </trkpt>
      <trkpt lat="43.13305" lon="3.09366">
        <ele>71.608428955078</ele>
        <time>2021-01-03T18:51:04.791Z</time>
      </trkpt>
      <trkpt lat="43.13302" lon="3.09354">
        <ele>71.611312866211</ele>
        <time>2021-01-03T18:51:09.680Z</time>
      </trkpt>
      <trkpt lat="43.13299" lon="3.09322">
        <ele>71.862174987793</ele>
        <time>2021-01-03T18:51:14.573Z</time>
      </trkpt>
      <trkpt lat="43.13299" lon="3.09296">
        <ele>71</ele>
        <time>2021-01-03T18:51:19.470Z</time>
      </trkpt>
      <trkpt lat="43.13295" lon="3.09245">
        <ele>69.970962524414</ele>
        <time>2021-01-03T18:51:24.375Z</time>
      </trkpt>
      <trkpt lat="43.13298" lon="3.09235">
        <ele>69.818870544434</ele>
        <time>2021-01-03T18:51:29.281Z</time>
      </trkpt>
      <trkpt lat="43.13302" lon="3.0921">
        <ele>68.587699890137</ele>
        <time>2021-01-03T18:51:34.191Z</time>
      </trkpt>
      <trkpt lat="43.13298" lon="3.09204">
        <ele>67.727951049805</ele>
        <time>2021-01-03T18:51:39.102Z</time>
      </trkpt>
      <trkpt lat="43.13286" lon="3.09156">
        <ele>62.991817474365</ele>
        <time>2021-01-03T18:51:44.021Z</time>
      </trkpt>
      <trkpt lat="43.13288" lon="3.09124">
        <ele>61.951053619385</ele>
        <time>2021-01-03T18:51:48.944Z</time>
      </trkpt>
      <trkpt lat="43.13277" lon="3.09078">
        <ele>56.648704528809</ele>
        <time>2021-01-03T18:51:53.875Z</time>
      </trkpt>
      <trkpt lat="43.13271" lon="3.09064">
        <ele>55.5910987854</ele>
        <time>2021-01-03T18:51:58.808Z</time>
      </trkpt>
      <trkpt lat="43.13259" lon="3.09051">
        <ele>55.739086151123</ele>
        <time>2021-01-03T18:52:03.744Z</time>
      </trkpt>
      <trkpt lat="43.13248" lon="3.0905">
        <ele>55.785842895508</ele>
        <time>2021-01-03T18:52:08.682Z</time>
      </trkpt>
      <trkpt lat="43.13237" lon="3.09056">
        <ele>56</ele>
        <time>2021-01-03T18:52:13.623Z</time>
      </trkpt>
      <trkpt lat="43.13222" lon="3.09058">
        <ele>56.143058776855</ele>
        <time>2021-01-03T18:52:18.567Z</time>
      </trkpt>
      <trkpt lat="43.13204" lon="3.09052">
        <ele>56.270263671875</ele>
        <time>2021-01-03T18:52:23.514Z</time>
      </trkpt>
      <trkpt lat="43.13195" lon="3.09043">
        <ele>55.904621124268</ele>
        <time>2021-01-03T18:52:28.463Z</time>
      </trkpt>
      <trkpt lat="43.13191" lon="3.09035">
        <ele>55.343524932861</ele>
        <time>2021-01-03T18:52:33.414Z</time>
      </trkpt>
      <trkpt lat="43.13188" lon="3.09024">
        <ele>54.576694488525</ele>
        <time>2021-01-03T18:52:38.367Z</time>
      </trkpt>
      <trkpt lat="43.13183" lon="3.09016">
        <ele>54.071239471436</ele>
        <time>2021-01-03T18:52:43.321Z</time>
      </trkpt>
      <trkpt lat="43.13178" lon="3.08992">
        <ele>54.163509368896</ele>
        <time>2021-01-03T18:52:48.279Z</time>
      </trkpt>
      <trkpt lat="43.1317" lon="3.08975">
        <ele>54.425720214844</ele>
        <time>2021-01-03T18:52:53.240Z</time>
      </trkpt>
      <trkpt lat="43.13158" lon="3.08933">
        <ele>57.231788635254</ele>
        <time>2021-01-03T18:52:58.207Z</time>
      </trkpt>
      <trkpt lat="43.1315" lon="3.08924">
        <ele>56.975372314453</ele>
        <time>2021-01-03T18:53:03.176Z</time>
      </trkpt>
      <trkpt lat="43.13141" lon="3.0892">
        <ele>55.961051940918</ele>
        <time>2021-01-03T18:53:08.147Z</time>
      </trkpt>
      <trkpt lat="43.13133" lon="3.08921">
        <ele>53.857543945312</ele>
        <time>2021-01-03T18:53:13.120Z</time>
      </trkpt>
      <trkpt lat="43.13126" lon="3.08928">
        <ele>50.553562164307</ele>
        <time>2021-01-03T18:53:18.095Z</time>
      </trkpt>
      <trkpt lat="43.13116" lon="3.08934">
        <ele>48.623455047607</ele>
        <time>2021-01-03T18:53:23.072Z</time>
      </trkpt>
      <trkpt lat="43.13107" lon="3.08945">
        <ele>47.891521453857</ele>
        <time>2021-01-03T18:53:28.051Z</time>
      </trkpt>
      <trkpt lat="43.13089" lon="3.08959">
        <ele>48.566944122314</ele>
        <time>2021-01-03T18:53:33.034Z</time>
      </trkpt>
      <trkpt lat="43.13079" lon="3.08957">
        <ele>48.211280822754</ele>
        <time>2021-01-03T18:53:38.019Z</time>
      </trkpt>
      <trkpt lat="43.13065" lon="3.08949">
        <ele>47.693923950195</ele>
        <time>2021-01-03T18:53:43.008Z</time>
      </trkpt>
      <trkpt lat="43.13043" lon="3.08933">
        <ele>47.132434844971</ele>
        <time>2021-01-03T18:53:48.002Z</time>
      </trkpt>
      <trkpt lat="43.13035" lon="3.0894">
        <ele>48.653430938721</ele>
        <time>2021-01-03T18:53:52.997Z</time>
      </trkpt>
      <trkpt lat="43.13019" lon="3.08927">
        <ele>47.114135742188</ele>
        <time>2021-01-03T18:53:57.996Z</time>
      </trkpt>
      <trkpt lat="43.13003" lon="3.08922">
        <ele>46.49893951416</ele>
        <time>2021-01-03T18:54:02.998Z</time>
      </trkpt>
      <trkpt lat="43.12974" lon="3.08904">
        <ele>44.483154296875</ele>
        <time>2021-01-03T18:54:08.007Z</time>
      </trkpt>
      <trkpt lat="43.1293" lon="3.08903">
        <ele>43.171478271484</ele>
        <time>2021-01-03T18:54:13.025Z</time>
      </trkpt>
      <trkpt lat="43.12923" lon="3.08914">
        <ele>43.870380401611</ele>
        <time>2021-01-03T18:54:18.045Z</time>
      </trkpt>
      <trkpt lat="43.12907" lon="3.08933">
        <ele>44.008666992188</ele>
        <time>2021-01-03T18:54:23.069Z</time>
      </trkpt>
      <trkpt lat="43.12902" lon="3.08945">
        <ele>46.424999237061</ele>
        <time>2021-01-03T18:54:28.095Z</time>
      </trkpt>
      <trkpt lat="43.12894" lon="3.08953">
        <ele>47.428852081299</ele>
        <time>2021-01-03T18:54:33.123Z</time>
      </trkpt>
      <trkpt lat="43.12879" lon="3.08962">
        <ele>48.374050140381</ele>
        <time>2021-01-03T18:54:38.154Z</time>
      </trkpt>
      <trkpt lat="43.12863" lon="3.08979">
        <ele>48.852684020996</ele>
        <time>2021-01-03T18:54:43.189Z</time>
      </trkpt>
      <trkpt lat="43.12843" lon="3.09004">
        <ele>49.656181335449</ele>
        <time>2021-01-03T18:54:48.230Z</time>
      </trkpt>
      <trkpt lat="43.12839" lon="3.09014">
        <ele>50.541858673096</ele>
        <time>2021-01-03T18:54:53.272Z</time>
      </trkpt>
      <trkpt lat="43.12823" lon="3.09024">
        <ele>47.197902679443</ele>
        <time>2021-01-03T18:54:58.318Z</time>
      </trkpt>
      <trkpt lat="43.12811" lon="3.09043">
        <ele>48.4049949646</ele>
        <time>2021-01-03T18:55:03.368Z</time>
      </trkpt>
      <trkpt lat="43.12797" lon="3.09085">
        <ele>52.289905548096</ele>
        <time>2021-01-03T18:55:08.424Z</time>
      </trkpt>
      <trkpt lat="43.12762" lon="3.09146">
        <ele>51.76530456543</ele>
        <time>2021-01-03T18:55:13.492Z</time>
      </trkpt>
      <trkpt lat="43.12753" lon="3.09168">
        <ele>52.00838470459</ele>
        <time>2021-01-03T18:55:18.563Z</time>
      </trkpt>
      <trkpt lat="43.1274" lon="3.09189">
        <ele>50.11039352417</ele>
        <time>2021-01-03T18:55:23.638Z</time>
      </trkpt>
      <trkpt lat="43.12709" lon="3.09263">
        <ele>45.852180480957</ele>
        <time>2021-01-03T18:55:28.726Z</time>
      </trkpt>
      <trkpt lat="43.12698" lon="3.09283">
        <ele>42.997135162354</ele>
        <time>2021-01-03T18:55:33.818Z</time>
      </trkpt>
      <trkpt lat="43.12693" lon="3.09296">
        <ele>41.779594421387</ele>
        <time>2021-01-03T18:55:38.912Z</time>
      </trkpt>
      <trkpt lat="43.12693" lon="3.09319">
        <ele>42.250843048096</ele>
        <time>2021-01-03T18:55:44.009Z</time>
      </trkpt>
      <trkpt lat="43.12688" lon="3.0935">
        <ele>40.983406066895</ele>
        <time>2021-01-03T18:55:49.111Z</time>
      </trkpt>
      <trkpt lat="43.12687" lon="3.0937">
        <ele>39.966896057129</ele>
        <time>2021-01-03T18:55:54.216Z</time>
      </trkpt>
      <trkpt lat="43.12681" lon="3.09389">
        <ele>37.469062805176</ele>
        <time>2021-01-03T18:55:59.324Z</time>
      </trkpt>
      <trkpt lat="43.12678" lon="3.09407">
        <ele>36.47144317627</ele>
        <time>2021-01-03T18:56:04.434Z</time>
      </trkpt>
      <trkpt lat="43.12685" lon="3.09428">
        <ele>37.451698303223</ele>
        <time>2021-01-03T18:56:09.548Z</time>
      </trkpt>
      <trkpt lat="43.127" lon="3.09484">
        <ele>36.211463928223</ele>
        <time>2021-01-03T18:56:14.670Z</time>
      </trkpt>
      <trkpt lat="43.12711" lon="3.09498">
        <ele>37.444942474365</ele>
        <time>2021-01-03T18:56:19.795Z</time>
      </trkpt>
      <trkpt lat="43.12724" lon="3.09509">
        <ele>38.932273864746</ele>
        <time>2021-01-03T18:56:24.923Z</time>
      </trkpt>
      <trkpt lat="43.1274" lon="3.0954">
        <ele>40.202194213867</ele>
        <time>2021-01-03T18:56:30.057Z</time>
      </trkpt>
      <trkpt lat="43.1275" lon="3.09542">
        <ele>40.816688537598</ele>
        <time>2021-01-03T18:56:35.193Z</time>
      </trkpt>
      <trkpt lat="43.12759" lon="3.09539">
        <ele>41.602523803711</ele>
        <time>2021-01-03T18:56:40.331Z</time>
      </trkpt>
      <trkpt lat="43.12768" lon="3.09529">
        <ele>44.18062210083</ele>
        <time>2021-01-03T18:56:45.471Z</time>
      </trkpt>
      <trkpt lat="43.12777" lon="3.09533">
        <ele>44.004753112793</ele>
        <time>2021-01-03T18:56:50.613Z</time>
      </trkpt>
      <trkpt lat="43.12788" lon="3.09551">
        <ele>41.757953643799</ele>
        <time>2021-01-03T18:56:55.758Z</time>
      </trkpt>
      <trkpt lat="43.12812" lon="3.09562">
        <ele>40.447895050049</ele>
        <time>2021-01-03T18:57:00.909Z</time>
      </trkpt>
      <trkpt lat="43.12821" lon="3.09568">
        <ele>39.793731689453</ele>
        <time>2021-01-03T18:57:06.062Z</time>
      </trkpt>
      <trkpt lat="43.12816" lon="3.09622">
        <ele>33.030582427979</ele>
        <time>2021-01-03T18:57:11.223Z</time>
      </trkpt>
      <trkpt lat="43.12816" lon="3.09662">
        <ele>31.756731033325</ele>
        <time>2021-01-03T18:57:16.390Z</time>
      </trkpt>
      <trkpt lat="43.12825" lon="3.09695">
        <ele>30.796531677246</ele>
        <time>2021-01-03T18:57:21.562Z</time>
      </trkpt>
      <trkpt lat="43.12835" lon="3.09711">
        <ele>29.715969085693</ele>
        <time>2021-01-03T18:57:26.737Z</time>
      </trkpt>
      <trkpt lat="43.12847" lon="3.0972">
        <ele>28.436307907104</ele>
        <time>2021-01-03T18:57:31.914Z</time>
      </trkpt>
      <trkpt lat="43.1286" lon="3.0972">
        <ele>27.359331130981</ele>
        <time>2021-01-03T18:57:37.094Z</time>
      </trkpt>
      <trkpt lat="43.12876" lon="3.09714">
        <ele>26.19792175293</ele>
        <time>2021-01-03T18:57:42.277Z</time>
      </trkpt>
      <trkpt lat="43.12886" lon="3.09716">
        <ele>26.186767578125</ele>
        <time>2021-01-03T18:57:47.462Z</time>
      </trkpt>
      <trkpt lat="43.12907" lon="3.09734">
        <ele>26.3629322052</ele>
        <time>2021-01-03T18:57:52.652Z</time>
      </trkpt>
      <trkpt lat="43.12913" lon="3.09741">
        <ele>25.857946395874</ele>
        <time>2021-01-03T18:57:57.844Z</time>
      </trkpt>
      <trkpt lat="43.12933" lon="3.0975">
        <ele>25.20333480835</ele>
        <time>2021-01-03T18:58:03.040Z</time>
      </trkpt>
      <trkpt lat="43.12947" lon="3.09763">
        <ele>23.311851501465</ele>
        <time>2021-01-03T18:58:08.240Z</time>
      </trkpt>
      <trkpt lat="43.12955" lon="3.09774">
        <ele>22.225107192993</ele>
        <time>2021-01-03T18:58:13.442Z</time>
      </trkpt>
      <trkpt lat="43.12961" lon="3.09785">
        <ele>21.396434783936</ele>
        <time>2021-01-03T18:58:18.646Z</time>
      </trkpt>
      <trkpt lat="43.12974" lon="3.09818">
        <ele>21</ele>
        <time>2021-01-03T18:58:23.855Z</time>
      </trkpt>
      <trkpt lat="43.12977" lon="3.09821">
        <ele>21</ele>
        <time>2021-01-03T18:58:29.065Z</time>
      </trkpt>
      <trkpt lat="43.12979" lon="3.09826">
        <ele>21.238697052002</ele>
        <time>2021-01-03T18:58:34.276Z</time>
      </trkpt>
      <trkpt lat="43.12979" lon="3.0983">
        <ele>21.556652069092</ele>
        <time>2021-01-03T18:58:39.488Z</time>
      </trkpt>
      <trkpt lat="43.12974" lon="3.09833">
        <ele>21.781091690063</ele>
        <time>2021-01-03T18:58:44.701Z</time>
      </trkpt>
      <trkpt lat="43.12946" lon="3.09834">
        <ele>22.579759597778</ele>
        <time>2021-01-03T18:58:49.919Z</time>
      </trkpt>
      <trkpt lat="43.12935" lon="3.09839">
        <ele>22.980670928955</ele>
        <time>2021-01-03T18:58:55.140Z</time>
      </trkpt>
      <trkpt lat="43.12929" lon="3.0984">
        <ele>23.601755142212</ele>
        <time>2021-01-03T18:59:00.362Z</time>
      </trkpt>
      <trkpt lat="43.12914" lon="3.09829">
        <ele>25.211738586426</ele>
        <time>2021-01-03T18:59:05.587Z</time>
      </trkpt>
      <trkpt lat="43.12907" lon="3.09829">
        <ele>25.686069488525</ele>
        <time>2021-01-03T18:59:10.813Z</time>
      </trkpt>
      <trkpt lat="43.12903" lon="3.09833">
        <ele>25.904476165771</ele>
        <time>2021-01-03T18:59:16.041Z</time>
      </trkpt>
      <trkpt lat="43.12901" lon="3.09841">
        <ele>25.728605270386</ele>
        <time>2021-01-03T18:59:21.270Z</time>
      </trkpt>
      <trkpt lat="43.12901" lon="3.09885">
        <ele>25.550226211548</ele>
        <time>2021-01-03T18:59:26.505Z</time>
      </trkpt>
      <trkpt lat="43.12906" lon="3.09915">
        <ele>25.353485107422</ele>
        <time>2021-01-03T18:59:31.745Z</time>
      </trkpt>
      <trkpt lat="43.12902" lon="3.09926">
        <ele>26.230123519897</ele>
        <time>2021-01-03T18:59:36.987Z</time>
      </trkpt>
      <trkpt lat="43.12899" lon="3.09929">
        <ele>26.42236328125</ele>
        <time>2021-01-03T18:59:42.229Z</time>
      </trkpt>
      <trkpt lat="43.12886" lon="3.09909">
        <ele>27.351713180542</ele>
        <time>2021-01-03T18:59:47.475Z</time>
      </trkpt>
      <trkpt lat="43.12863" lon="3.09848">
        <ele>29.578563690186</ele>
        <time>2021-01-03T18:59:52.731Z</time>
      </trkpt>
      <trkpt lat="43.12853" lon="3.09827">
        <ele>29.874195098877</ele>
        <time>2021-01-03T18:59:57.991Z</time>
      </trkpt>
      <trkpt lat="43.12813" lon="3.09793">
        <ele>32.361145019531</ele>
        <time>2021-01-03T19:00:03.260Z</time>
      </trkpt>
      <trkpt lat="43.12792" lon="3.09781">
        <ele>33.120735168457</ele>
        <time>2021-01-03T19:00:08.534Z</time>
      </trkpt>
      <trkpt lat="43.12787" lon="3.09769">
        <ele>33.314708709717</ele>
        <time>2021-01-03T19:00:13.810Z</time>
      </trkpt>
      <trkpt lat="43.12789" lon="3.09749">
        <ele>33.62610244751</ele>
        <time>2021-01-03T19:00:19.089Z</time>
      </trkpt>
      <trkpt lat="43.12797" lon="3.09731">
        <ele>33.786632537842</ele>
        <time>2021-01-03T19:00:24.371Z</time>
      </trkpt>
      <trkpt lat="43.12806" lon="3.09723">
        <ele>32.816478729248</ele>
        <time>2021-01-03T19:00:29.655Z</time>
      </trkpt>
      <trkpt lat="43.12823" lon="3.09723">
        <ele>30.9739112854</ele>
        <time>2021-01-03T19:00:34.943Z</time>
      </trkpt>
      <trkpt lat="43.12838" lon="3.09701">
        <ele>29.38655090332</ele>
        <time>2021-01-03T19:00:40.235Z</time>
      </trkpt>
      <trkpt lat="43.12825" lon="3.09662">
        <ele>30.658723831177</ele>
        <time>2021-01-03T19:00:45.533Z</time>
      </trkpt>
      <trkpt lat="43.12823" lon="3.09643">
        <ele>31.482437133789</ele>
        <time>2021-01-03T19:00:50.834Z</time>
      </trkpt>
      <trkpt lat="43.12824" lon="3.0962">
        <ele>32.733673095703</ele>
        <time>2021-01-03T19:00:56.139Z</time>
      </trkpt>
      <trkpt lat="43.12831" lon="3.09574">
        <ele>39.093845367432</ele>
        <time>2021-01-03T19:01:01.450Z</time>
      </trkpt>
      <trkpt lat="43.12828" lon="3.09564">
        <ele>41.0788230896</ele>
        <time>2021-01-03T19:01:06.763Z</time>
      </trkpt>
      <trkpt lat="43.12821" lon="3.09556">
        <ele>42.443553924561</ele>
        <time>2021-01-03T19:01:12.078Z</time>
      </trkpt>
      <trkpt lat="43.12794" lon="3.0954">
        <ele>43.749992370605</ele>
        <time>2021-01-03T19:01:17.399Z</time>
      </trkpt>
      <trkpt lat="43.12785" lon="3.09527">
        <ele>45.60523223877</ele>
        <time>2021-01-03T19:01:22.722Z</time>
      </trkpt>
      <trkpt lat="43.12778" lon="3.09523">
        <ele>45.781703948975</ele>
        <time>2021-01-03T19:01:28.047Z</time>
      </trkpt>
      <trkpt lat="43.12769" lon="3.0952">
        <ele>45.58366394043</ele>
        <time>2021-01-03T19:01:33.374Z</time>
      </trkpt>
      <trkpt lat="43.12763" lon="3.09525">
        <ele>44.02038192749</ele>
        <time>2021-01-03T19:01:38.702Z</time>
      </trkpt>
      <trkpt lat="43.1275" lon="3.09529">
        <ele>41.289695739746</ele>
        <time>2021-01-03T19:01:44.033Z</time>
      </trkpt>
      <trkpt lat="43.12744" lon="3.09527">
        <ele>40.953945159912</ele>
        <time>2021-01-03T19:01:49.365Z</time>
      </trkpt>
      <trkpt lat="43.12738" lon="3.09521">
        <ele>40.562770843506</ele>
        <time>2021-01-03T19:01:54.698Z</time>
      </trkpt>
      <trkpt lat="43.12718" lon="3.09489">
        <ele>39.11287689209</ele>
        <time>2021-01-03T19:02:00.038Z</time>
      </trkpt>
      <trkpt lat="43.12708" lon="3.09481">
        <ele>37.961326599121</ele>
        <time>2021-01-03T19:02:05.380Z</time>
      </trkpt>
      <trkpt lat="43.12691" lon="3.09415">
        <ele>39.122619628906</ele>
        <time>2021-01-03T19:02:10.732Z</time>
      </trkpt>
      <trkpt lat="43.12689" lon="3.09396">
        <ele>39.814949035645</ele>
        <time>2021-01-03T19:02:16.087Z</time>
      </trkpt>
      <trkpt lat="43.12645" lon="3.09367">
        <ele>28.715869903564</ele>
        <time>2021-01-03T19:02:21.452Z</time>
      </trkpt>
      <trkpt lat="43.12629" lon="3.09354">
        <ele>26.952638626099</ele>
        <time>2021-01-03T19:02:26.820Z</time>
      </trkpt>
      <trkpt lat="43.12625" lon="3.09327">
        <ele>26.723915100098</ele>
        <time>2021-01-03T19:02:32.193Z</time>
      </trkpt>
      <trkpt lat="43.12625" lon="3.09303">
        <ele>26.723915100098</ele>
        <time>2021-01-03T19:02:37.569Z</time>
      </trkpt>
      <trkpt lat="43.12637" lon="3.09265">
        <ele>28.588863372803</ele>
        <time>2021-01-03T19:02:42.951Z</time>
      </trkpt>
      <trkpt lat="43.12625" lon="3.09257">
        <ele>26.585872650146</ele>
        <time>2021-01-03T19:02:48.336Z</time>
      </trkpt>
      <trkpt lat="43.12604" lon="3.0924">
        <ele>24.398502349854</ele>
        <time>2021-01-03T19:02:53.726Z</time>
      </trkpt>
      <trkpt lat="43.1258" lon="3.09236">
        <ele>23.332715988159</ele>
        <time>2021-01-03T19:02:59.121Z</time>
      </trkpt>
      <trkpt lat="43.12573" lon="3.0923">
        <ele>23.338748931885</ele>
        <time>2021-01-03T19:03:04.517Z</time>
      </trkpt>
      <trkpt lat="43.12571" lon="3.09205">
        <ele>24.238670349121</ele>
        <time>2021-01-03T19:03:09.917Z</time>
      </trkpt>
      <trkpt lat="43.12566" lon="3.09183">
        <ele>24.70383644104</ele>
        <time>2021-01-03T19:03:15.320Z</time>
      </trkpt>
      <trkpt lat="43.12569" lon="3.0916">
        <ele>25.421348571777</ele>
        <time>2021-01-03T19:03:20.727Z</time>
      </trkpt>
      <trkpt lat="43.12581" lon="3.09127">
        <ele>25.439311981201</ele>
        <time>2021-01-03T19:03:26.139Z</time>
      </trkpt>
      <trkpt lat="43.12585" lon="3.09098">
        <ele>26.194681167603</ele>
        <time>2021-01-03T19:03:31.555Z</time>
      </trkpt>
      <trkpt lat="43.12583" lon="3.09021">
        <ele>29.141212463379</ele>
        <time>2021-01-03T19:03:36.983Z</time>
      </trkpt>
      <trkpt lat="43.12565" lon="3.09005">
        <ele>31.678302764893</ele>
        <time>2021-01-03T19:03:42.415Z</time>
      </trkpt>
      <trkpt lat="43.1256" lon="3.08996">
        <ele>32.865051269531</ele>
        <time>2021-01-03T19:03:47.849Z</time>
      </trkpt>
      <trkpt lat="43.12554" lon="3.08951">
        <ele>35.080348968506</ele>
        <time>2021-01-03T19:03:53.289Z</time>
      </trkpt>
      <trkpt lat="43.12551" lon="3.08946">
        <ele>35.692127227783</ele>
        <time>2021-01-03T19:03:58.730Z</time>
      </trkpt>
      <trkpt lat="43.1255" lon="3.08931">
        <ele>36.522510528564</ele>
        <time>2021-01-03T19:04:04.174Z</time>
      </trkpt>
      <trkpt lat="43.12544" lon="3.08911">
        <ele>39.628925323486</ele>
        <time>2021-01-03T19:04:09.621Z</time>
      </trkpt>
      <trkpt lat="43.12538" lon="3.08851">
        <ele>45.677658081055</ele>
        <time>2021-01-03T19:04:15.077Z</time>
      </trkpt>
      <trkpt lat="43.12534" lon="3.08845">
        <ele>46.541324615479</ele>
        <time>2021-01-03T19:04:20.534Z</time>
      </trkpt>
      <trkpt lat="43.12514" lon="3.08838">
        <ele>49.083198547363</ele>
        <time>2021-01-03T19:04:25.995Z</time>
      </trkpt>
      <trkpt lat="43.12501" lon="3.0883">
        <ele>50.595142364502</ele>
        <time>2021-01-03T19:04:31.459Z</time>
      </trkpt>
      <trkpt lat="43.12498" lon="3.08821">
        <ele>51.426654815674</ele>
        <time>2021-01-03T19:04:36.924Z</time>
      </trkpt>
      <trkpt lat="43.12496" lon="3.08796">
        <ele>52.633232116699</ele>
        <time>2021-01-03T19:04:42.393Z</time>
      </trkpt>
      <trkpt lat="43.12501" lon="3.08763">
        <ele>52.41089630127</ele>
        <time>2021-01-03T19:04:47.867Z</time>
      </trkpt>
      <trkpt lat="43.125" lon="3.0875">
        <ele>52.374996185303</ele>
        <time>2021-01-03T19:04:53.343Z</time>
      </trkpt>
      <trkpt lat="43.12494" lon="3.0873">
        <ele>52.625335693359</ele>
        <time>2021-01-03T19:04:58.822Z</time>
      </trkpt>
      <trkpt lat="43.12485" lon="3.08683">
        <ele>53.504112243652</ele>
        <time>2021-01-03T19:05:04.308Z</time>
      </trkpt>
      <trkpt lat="43.1248" lon="3.08664">
        <ele>54.330940246582</ele>
        <time>2021-01-03T19:05:09.797Z</time>
      </trkpt>
      <trkpt lat="43.12476" lon="3.08658">
        <ele>54.330337524414</ele>
        <time>2021-01-03T19:05:15.287Z</time>
      </trkpt>
      <trkpt lat="43.12471" lon="3.08655">
        <ele>54.006950378418</ele>
        <time>2021-01-03T19:05:20.778Z</time>
      </trkpt>
      <trkpt lat="43.12443" lon="3.08655">
        <ele>51.659992218018</ele>
        <time>2021-01-03T19:05:26.275Z</time>
      </trkpt>
      <trkpt lat="43.12428" lon="3.0865">
        <ele>51.157127380371</ele>
        <time>2021-01-03T19:05:31.775Z</time>
      </trkpt>
      <trkpt lat="43.12404" lon="3.08645">
        <ele>50.733013153076</ele>
        <time>2021-01-03T19:05:37.280Z</time>
      </trkpt>
      <trkpt lat="43.12369" lon="3.08651">
        <ele>51.15051651001</ele>
        <time>2021-01-03T19:05:42.792Z</time>
      </trkpt>
      <trkpt lat="43.12348" lon="3.0865">
        <ele>51.091022491455</ele>
        <time>2021-01-03T19:05:48.308Z</time>
      </trkpt>
      <trkpt lat="43.12337" lon="3.08657">
        <ele>51.491477966309</ele>
        <time>2021-01-03T19:05:53.826Z</time>
      </trkpt>
      <trkpt lat="43.12311" lon="3.08684">
        <ele>55.207504272461</ele>
        <time>2021-01-03T19:05:59.351Z</time>
      </trkpt>
      <trkpt lat="43.12336" lon="3.08822">
        <ele>64.11156463623</ele>
        <time>2021-01-03T19:06:04.897Z</time>
      </trkpt>
      <trkpt lat="43.12341" lon="3.08861">
        <ele>67.317497253418</ele>
        <time>2021-01-03T19:06:10.449Z</time>
      </trkpt>
      <trkpt lat="43.12341" lon="3.08877">
        <ele>68.635383605957</ele>
        <time>2021-01-03T19:06:16.003Z</time>
      </trkpt>
      <trkpt lat="43.12336" lon="3.08892">
        <ele>69.417877197266</ele>
        <time>2021-01-03T19:06:21.559Z</time>
      </trkpt>
      <trkpt lat="43.12322" lon="3.08901">
        <ele>67.937088012695</ele>
        <time>2021-01-03T19:06:27.118Z</time>
      </trkpt>
      <trkpt lat="43.12309" lon="3.08903">
        <ele>66.583251953125</ele>
        <time>2021-01-03T19:06:32.680Z</time>
      </trkpt>
      <trkpt lat="43.12306" lon="3.08901">
        <ele>66.331962585449</ele>
        <time>2021-01-03T19:06:38.243Z</time>
      </trkpt>
      <trkpt lat="43.12287" lon="3.08872">
        <ele>65.324104309082</ele>
        <time>2021-01-03T19:06:43.811Z</time>
      </trkpt>
      <trkpt lat="43.12282" lon="3.0885">
        <ele>65.575691223145</ele>
        <time>2021-01-03T19:06:49.383Z</time>
      </trkpt>
      <trkpt lat="43.1228" lon="3.08821">
        <ele>65.371604919434</ele>
        <time>2021-01-03T19:06:54.959Z</time>
      </trkpt>
      <trkpt lat="43.12274" lon="3.08803">
        <ele>64.7236328125</ele>
        <time>2021-01-03T19:07:00.538Z</time>
      </trkpt>
      <trkpt lat="43.1227" lon="3.08783">
        <ele>64.291946411133</ele>
        <time>2021-01-03T19:07:06.120Z</time>
      </trkpt>
      <trkpt lat="43.12249" lon="3.08744">
        <ele>63.341342926025</ele>
        <time>2021-01-03T19:07:11.709Z</time>
      </trkpt>
      <trkpt lat="43.12249" lon="3.08729">
        <ele>64.028396606445</ele>
        <time>2021-01-03T19:07:17.300Z</time>
      </trkpt>
      <trkpt lat="43.12252" lon="3.08715">
        <ele>64.550659179688</ele>
        <time>2021-01-03T19:07:22.893Z</time>
      </trkpt>
      <trkpt lat="43.12248" lon="3.08702">
        <ele>65.009742736816</ele>
        <time>2021-01-03T19:07:28.489Z</time>
      </trkpt>
      <trkpt lat="43.12231" lon="3.08699">
        <ele>66.035842895508</ele>
        <time>2021-01-03T19:07:34.088Z</time>
      </trkpt>
      <trkpt lat="43.12211" lon="3.08708">
        <ele>67.099197387695</ele>
        <time>2021-01-03T19:07:39.691Z</time>
      </trkpt>
      <trkpt lat="43.12204" lon="3.08705">
        <ele>67.278289794922</ele>
        <time>2021-01-03T19:07:45.296Z</time>
      </trkpt>
      <trkpt lat="43.12195" lon="3.08705">
        <ele>67.601982116699</ele>
        <time>2021-01-03T19:07:50.902Z</time>
      </trkpt>
      <trkpt lat="43.12192" lon="3.08707">
        <ele>67.709976196289</ele>
        <time>2021-01-03T19:07:56.509Z</time>
      </trkpt>
      <trkpt lat="43.12182" lon="3.0872">
        <ele>66.598983764648</ele>
        <time>2021-01-03T19:08:02.119Z</time>
      </trkpt>
      <trkpt lat="43.12173" lon="3.08727">
        <ele>65.267433166504</ele>
        <time>2021-01-03T19:08:07.731Z</time>
      </trkpt>
      <trkpt lat="43.12165" lon="3.08741">
        <ele>63.557704925537</ele>
        <time>2021-01-03T19:08:13.346Z</time>
      </trkpt>
      <trkpt lat="43.12155" lon="3.08753">
        <ele>60.752769470215</ele>
        <time>2021-01-03T19:08:18.963Z</time>
      </trkpt>
      <trkpt lat="43.12152" lon="3.08766">
        <ele>57.897178649902</ele>
        <time>2021-01-03T19:08:24.582Z</time>
      </trkpt>
      <trkpt lat="43.1215" lon="3.08769">
        <ele>57.200454711914</ele>
        <time>2021-01-03T19:08:30.202Z</time>
      </trkpt>
      <trkpt lat="43.12135" lon="3.08781">
        <ele>54.649585723877</ele>
        <time>2021-01-03T19:08:35.825Z</time>
      </trkpt>
      <trkpt lat="43.12114" lon="3.08787">
        <ele>53.250747680664</ele>
        <time>2021-01-03T19:08:41.453Z</time>
      </trkpt>
      <trkpt lat="43.12112" lon="3.08778">
        <ele>54.150611877441</ele>
        <time>2021-01-03T19:08:47.082Z</time>
      </trkpt>
      <trkpt lat="43.12109" lon="3.08775">
        <ele>54.366905212402</ele>
        <time>2021-01-03T19:08:52.712Z</time>
      </trkpt>
      <trkpt lat="43.12101" lon="3.08777">
        <ele>53.862522125244</ele>
        <time>2021-01-03T19:08:58.343Z</time>
      </trkpt>
      <trkpt lat="43.12092" lon="3.08789">
        <ele>51.315174102783</ele>
        <time>2021-01-03T19:09:03.977Z</time>
      </trkpt>
      <trkpt lat="43.12086" lon="3.08808">
        <ele>48.42618560791</ele>
        <time>2021-01-03T19:09:09.614Z</time>
      </trkpt>
      <trkpt lat="43.12073" lon="3.08828">
        <ele>45.567813873291</ele>
        <time>2021-01-03T19:09:15.255Z</time>
      </trkpt>
      <trkpt lat="43.12064" lon="3.08835">
        <ele>43.473255157471</ele>
        <time>2021-01-03T19:09:20.898Z</time>
      </trkpt>
      <trkpt lat="43.1204" lon="3.08847">
        <ele>39.194873809814</ele>
        <time>2021-01-03T19:09:26.546Z</time>
      </trkpt>
      <trkpt lat="43.12036" lon="3.08845">
        <ele>38.54568862915</ele>
        <time>2021-01-03T19:09:32.195Z</time>
      </trkpt>
      <trkpt lat="43.1203" lon="3.08838">
        <ele>37.717620849609</ele>
        <time>2021-01-03T19:09:37.845Z</time>
      </trkpt>
      <trkpt lat="43.12017" lon="3.08832">
        <ele>35.571315765381</ele>
        <time>2021-01-03T19:09:43.498Z</time>
      </trkpt>
      <trkpt lat="43.12016" lon="3.08828">
        <ele>35.42561340332</ele>
        <time>2021-01-03T19:09:49.152Z</time>
      </trkpt>
      <trkpt lat="43.12018" lon="3.08822">
        <ele>36.13508605957</ele>
        <time>2021-01-03T19:09:54.807Z</time>
      </trkpt>
      <trkpt lat="43.12018" lon="3.08811">
        <ele>36.531173706055</ele>
        <time>2021-01-03T19:10:00.463Z</time>
      </trkpt>
      <trkpt lat="43.12015" lon="3.08794">
        <ele>36.446624755859</ele>
        <time>2021-01-03T19:10:06.122Z</time>
      </trkpt>
      <trkpt lat="43.12016" lon="3.08778">
        <ele>37.31400680542</ele>
        <time>2021-01-03T19:10:11.783Z</time>
      </trkpt>
      <trkpt lat="43.12013" lon="3.08757">
        <ele>37.788372039795</ele>
        <time>2021-01-03T19:10:17.447Z</time>
      </trkpt>
      <trkpt lat="43.12011" lon="3.08751">
        <ele>37.861976623535</ele>
        <time>2021-01-03T19:10:23.112Z</time>
      </trkpt>
      <trkpt lat="43.12006" lon="3.08748">
        <ele>36.745216369629</ele>
        <time>2021-01-03T19:10:28.778Z</time>
      </trkpt>
      <trkpt lat="43.11999" lon="3.08733">
        <ele>35.551815032959</ele>
        <time>2021-01-03T19:10:34.447Z</time>
      </trkpt>
      <trkpt lat="43.1199" lon="3.08703">
        <ele>32.498241424561</ele>
        <time>2021-01-03T19:10:40.121Z</time>
      </trkpt>
      <trkpt lat="43.1199" lon="3.08681">
        <ele>33.269905090332</ele>
        <time>2021-01-03T19:10:45.798Z</time>
      </trkpt>
      <trkpt lat="43.11992" lon="3.08672">
        <ele>34.314872741699</ele>
        <time>2021-01-03T19:10:51.476Z</time>
      </trkpt>
      <trkpt lat="43.11985" lon="3.08657">
        <ele>32.495838165283</ele>
        <time>2021-01-03T19:10:57.157Z</time>
      </trkpt>
      <trkpt lat="43.11983" lon="3.08644">
        <ele>32.144119262695</ele>
        <time>2021-01-03T19:11:02.840Z</time>
      </trkpt>
      <trkpt lat="43.1198" lon="3.08623">
        <ele>31.121774673462</ele>
        <time>2021-01-03T19:11:08.526Z</time>
      </trkpt>
      <trkpt lat="43.1198" lon="3.08594">
        <ele>29.215860366821</ele>
        <time>2021-01-03T19:11:14.216Z</time>
      </trkpt>
      <trkpt lat="43.11972" lon="3.08585">
        <ele>26.553970336914</ele>
        <time>2021-01-03T19:11:19.908Z</time>
      </trkpt>
      <trkpt lat="43.11971" lon="3.0858">
        <ele>25.942495346069</ele>
        <time>2021-01-03T19:11:25.601Z</time>
      </trkpt>
      <trkpt lat="43.11975" lon="3.08558">
        <ele>24.868227005005</ele>
        <time>2021-01-03T19:11:31.297Z</time>
      </trkpt>
      <trkpt lat="43.11987" lon="3.08524">
        <ele>24.131256103516</ele>
        <time>2021-01-03T19:11:36.999Z</time>
      </trkpt>
      <trkpt lat="43.11978" lon="3.08504">
        <ele>18.500228881836</ele>
        <time>2021-01-03T19:11:42.704Z</time>
      </trkpt>
      <trkpt lat="43.11983" lon="3.08484">
        <ele>16.822353363037</ele>
        <time>2021-01-03T19:11:48.413Z</time>
      </trkpt>
      <trkpt lat="43.1199" lon="3.08473">
        <ele>16.394302368164</ele>
        <time>2021-01-03T19:11:54.124Z</time>
      </trkpt>
      <trkpt lat="43.12004" lon="3.08457">
        <ele>19.027984619141</ele>
        <time>2021-01-03T19:11:59.838Z</time>
      </trkpt>
      <trkpt lat="43.12017" lon="3.08449">
        <ele>21.902297973633</ele>
        <time>2021-01-03T19:12:05.555Z</time>
      </trkpt>
      <trkpt lat="43.12032" lon="3.08435">
        <ele>20.448429107666</ele>
        <time>2021-01-03T19:12:11.276Z</time>
      </trkpt>
      <trkpt lat="43.1204" lon="3.08434">
        <ele>20.783277511597</ele>
        <time>2021-01-03T19:12:16.998Z</time>
      </trkpt>
      <trkpt lat="43.12048" lon="3.08437">
        <ele>22.04242515564</ele>
        <time>2021-01-03T19:12:22.722Z</time>
      </trkpt>
      <trkpt lat="43.12076" lon="3.0844">
        <ele>23.964771270752</ele>
        <time>2021-01-03T19:12:28.452Z</time>
      </trkpt>
      <trkpt lat="43.12088" lon="3.08436">
        <ele>24.181732177734</ele>
        <time>2021-01-03T19:12:34.184Z</time>
      </trkpt>
      <trkpt lat="43.12102" lon="3.08423">
        <ele>22.876226425171</ele>
        <time>2021-01-03T19:12:39.920Z</time>
      </trkpt>
      <trkpt lat="43.12108" lon="3.08419">
        <ele>22.510005950928</ele>
        <time>2021-01-03T19:12:45.657Z</time>
      </trkpt>
      <trkpt lat="43.12114" lon="3.08423">
        <ele>23.919986724854</ele>
        <time>2021-01-03T19:12:51.395Z</time>
      </trkpt>
      <trkpt lat="43.12127" lon="3.08428">
        <ele>25.771604537964</ele>
        <time>2021-01-03T19:12:57.136Z</time>
      </trkpt>
      <trkpt lat="43.12161" lon="3.08422">
        <ele>27.602781295776</ele>
        <time>2021-01-03T19:13:02.884Z</time>
      </trkpt>
      <trkpt lat="43.1218" lon="3.08411">
        <ele>25.343915939331</ele>
        <time>2021-01-03T19:13:08.636Z</time>
      </trkpt>
      <trkpt lat="43.12209" lon="3.08406">
        <ele>25.037698745728</ele>
        <time>2021-01-03T19:13:14.394Z</time>
      </trkpt>
      <trkpt lat="43.12222" lon="3.08395">
        <ele>24.593793869019</ele>
        <time>2021-01-03T19:13:20.155Z</time>
      </trkpt>
      <trkpt lat="43.12228" lon="3.08382">
        <ele>23.669794082642</ele>
        <time>2021-01-03T19:13:25.918Z</time>
      </trkpt>
      <trkpt lat="43.1223" lon="3.08368">
        <ele>22.967555999756</ele>
        <time>2021-01-03T19:13:31.683Z</time>
      </trkpt>
      <trkpt lat="43.12232" lon="3.08365">
        <ele>22.978115081787</ele>
        <time>2021-01-03T19:13:37.449Z</time>
      </trkpt>
      <trkpt lat="43.12231" lon="3.08355">
        <ele>22.563627243042</ele>
        <time>2021-01-03T19:13:43.216Z</time>
      </trkpt>
      <trkpt lat="43.12242" lon="3.0831">
        <ele>22.793025970459</ele>
        <time>2021-01-03T19:13:48.990Z</time>
      </trkpt>
      <trkpt lat="43.1225" lon="3.08257">
        <ele>25.049537658691</ele>
        <time>2021-01-03T19:13:54.772Z</time>
      </trkpt>
      <trkpt lat="43.1225" lon="3.08238">
        <ele>26.379957199097</ele>
        <time>2021-01-03T19:14:00.557Z</time>
      </trkpt>
      <trkpt lat="43.12253" lon="3.08223">
        <ele>26.562303543091</ele>
        <time>2021-01-03T19:14:06.344Z</time>
      </trkpt>
      <trkpt lat="43.12253" lon="3.08206">
        <ele>27.125513076782</ele>
        <time>2021-01-03T19:14:12.134Z</time>
      </trkpt>
      <trkpt lat="43.12259" lon="3.08166">
        <ele>25.985462188721</ele>
        <time>2021-01-03T19:14:17.930Z</time>
      </trkpt>
      <trkpt lat="43.12267" lon="3.0814">
        <ele>25.678161621094</ele>
        <time>2021-01-03T19:14:23.730Z</time>
      </trkpt>
      <trkpt lat="43.12286" lon="3.08103">
        <ele>29.232135772705</ele>
        <time>2021-01-03T19:14:29.536Z</time>
      </trkpt>
      <trkpt lat="43.12293" lon="3.08083">
        <ele>30.395614624023</ele>
        <time>2021-01-03T19:14:35.346Z</time>
      </trkpt>
      <trkpt lat="43.12303" lon="3.08064">
        <ele>31.528659820557</ele>
        <time>2021-01-03T19:14:41.159Z</time>
      </trkpt>
      <trkpt lat="43.1231" lon="3.08045">
        <ele>32.420997619629</ele>
        <time>2021-01-03T19:14:46.975Z</time>
      </trkpt>
      <trkpt lat="43.12325" lon="3.08013">
        <ele>33.594547271729</ele>
        <time>2021-01-03T19:14:52.797Z</time>
      </trkpt>
      <trkpt lat="43.12338" lon="3.0798">
        <ele>38.455829620361</ele>
        <time>2021-01-03T19:14:58.624Z</time>
      </trkpt>
      <trkpt lat="43.12348" lon="3.07992">
        <ele>37.58130645752</ele>
        <time>2021-01-03T19:15:04.454Z</time>
      </trkpt>
      <trkpt lat="43.12367" lon="3.08048">
        <ele>35.154315948486</ele>
        <time>2021-01-03T19:15:10.293Z</time>
      </trkpt>
      <trkpt lat="43.12369" lon="3.08102">
        <ele>34.341674804688</ele>
        <time>2021-01-03T19:15:16.140Z</time>
      </trkpt>
      <trkpt lat="43.12377" lon="3.08138">
        <ele>34.859329223633</ele>
        <time>2021-01-03T19:15:21.992Z</time>
      </trkpt>
      <trkpt lat="43.12391" lon="3.0818">
        <ele>35.91040802002</ele>
        <time>2021-01-03T19:15:27.851Z</time>
      </trkpt>
      <trkpt lat="43.12405" lon="3.08208">
        <ele>36.89232635498</ele>
        <time>2021-01-03T19:15:33.715Z</time>
      </trkpt>
      <trkpt lat="43.12421" lon="3.08232">
        <ele>38.250217437744</ele>
        <time>2021-01-03T19:15:39.584Z</time>
      </trkpt>
      <trkpt lat="43.12439" lon="3.08265">
        <ele>40.366706848145</ele>
        <time>2021-01-03T19:15:45.459Z</time>
      </trkpt>
      <trkpt lat="43.12448" lon="3.08277">
        <ele>40.192890167236</ele>
        <time>2021-01-03T19:15:51.337Z</time>
      </trkpt>
      <trkpt lat="43.12465" lon="3.08308">
        <ele>41.477180480957</ele>
        <time>2021-01-03T19:15:57.220Z</time>
      </trkpt>
      <trkpt lat="43.12456" lon="3.08317">
        <ele>42.832454681396</ele>
        <time>2021-01-03T19:16:03.105Z</time>
      </trkpt>
      <trkpt lat="43.1242" lon="3.08314">
        <ele>44.518569946289</ele>
        <time>2021-01-03T19:16:08.998Z</time>
      </trkpt>
      <trkpt lat="43.1242" lon="3.08343">
        <ele>46.027687072754</ele>
        <time>2021-01-03T19:16:14.895Z</time>
      </trkpt>
      <trkpt lat="43.12445" lon="3.08365">
        <ele>47.811054229736</ele>
        <time>2021-01-03T19:16:20.798Z</time>
      </trkpt>
      <trkpt lat="43.12458" lon="3.08386">
        <ele>50.021221160889</ele>
        <time>2021-01-03T19:16:26.705Z</time>
      </trkpt>
      <trkpt lat="43.12469" lon="3.08412">
        <ele>51.972991943359</ele>
        <time>2021-01-03T19:16:32.616Z</time>
      </trkpt>
      <trkpt lat="43.12478" lon="3.08443">
        <ele>52.771800994873</ele>
        <time>2021-01-03T19:16:38.532Z</time>
      </trkpt>
      <trkpt lat="43.12487" lon="3.08465">
        <ele>53.39281463623</ele>
        <time>2021-01-03T19:16:44.452Z</time>
      </trkpt>
      <trkpt lat="43.12495" lon="3.08483">
        <ele>54.607643127441</ele>
        <time>2021-01-03T19:16:50.375Z</time>
      </trkpt>
      <trkpt lat="43.12506" lon="3.08493">
        <ele>55.177886962891</ele>
        <time>2021-01-03T19:16:56.301Z</time>
      </trkpt>
      <trkpt lat="43.12518" lon="3.08501">
        <ele>55.46390914917</ele>
        <time>2021-01-03T19:17:02.229Z</time>
      </trkpt>
      <trkpt lat="43.12536" lon="3.08506">
        <ele>56.329689025879</ele>
        <time>2021-01-03T19:17:08.161Z</time>
      </trkpt>
      <trkpt lat="43.12566" lon="3.08506">
        <ele>59.861789703369</ele>
        <time>2021-01-03T19:17:14.099Z</time>
      </trkpt>
      <trkpt lat="43.12573" lon="3.08501">
        <ele>61.601791381836</ele>
        <time>2021-01-03T19:17:20.039Z</time>
      </trkpt>
      <trkpt lat="43.12591" lon="3.0848">
        <ele>66.91529083252</ele>
        <time>2021-01-03T19:17:25.983Z</time>
      </trkpt>
      <trkpt lat="43.12589" lon="3.08517">
        <ele>64.401016235352</ele>
        <time>2021-01-03T19:17:31.933Z</time>
      </trkpt>
      <trkpt lat="43.1259" lon="3.08523">
        <ele>64.226654052734</ele>
        <time>2021-01-03T19:17:37.884Z</time>
      </trkpt>
      <trkpt lat="43.1261" lon="3.08557">
        <ele>65.885971069336</ele>
        <time>2021-01-03T19:17:43.841Z</time>
      </trkpt>
      <trkpt lat="43.12613" lon="3.08569">
        <ele>65.412353515625</ele>
        <time>2021-01-03T19:17:49.800Z</time>
      </trkpt>
      <trkpt lat="43.12614" lon="3.08584">
        <ele>63.615077972412</ele>
        <time>2021-01-03T19:17:55.761Z</time>
      </trkpt>
      <trkpt lat="43.12607" lon="3.08608">
        <ele>58.500408172607</ele>
        <time>2021-01-03T19:18:01.726Z</time>
      </trkpt>
      <trkpt lat="43.12605" lon="3.08617">
        <ele>57.579727172852</ele>
        <time>2021-01-03T19:18:07.692Z</time>
      </trkpt>
      <trkpt lat="43.12606" lon="3.08625">
        <ele>57.111843109131</ele>
        <time>2021-01-03T19:18:13.659Z</time>
      </trkpt>
      <trkpt lat="43.1261" lon="3.0864">
        <ele>56.377593994141</ele>
        <time>2021-01-03T19:18:19.629Z</time>
      </trkpt>
      <trkpt lat="43.12617" lon="3.08676">
        <ele>54.698978424072</ele>
        <time>2021-01-03T19:18:25.604Z</time>
      </trkpt>
      <trkpt lat="43.12622" lon="3.08687">
        <ele>54.698841094971</ele>
        <time>2021-01-03T19:18:31.581Z</time>
      </trkpt>
      <trkpt lat="43.1263" lon="3.08693">
        <ele>54.764724731445</ele>
        <time>2021-01-03T19:18:37.560Z</time>
      </trkpt>
      <trkpt lat="43.12653" lon="3.08704">
        <ele>56.297096252441</ele>
        <time>2021-01-03T19:18:43.544Z</time>
      </trkpt>
      <trkpt lat="43.12663" lon="3.08707">
        <ele>58.035236358643</ele>
        <time>2021-01-03T19:18:49.530Z</time>
      </trkpt>
      <trkpt lat="43.12678" lon="3.0872">
        <ele>59.397396087646</ele>
        <time>2021-01-03T19:18:55.519Z</time>
      </trkpt>
      <trkpt lat="43.127" lon="3.08763">
        <ele>52.780830383301</ele>
        <time>2021-01-03T19:19:01.516Z</time>
      </trkpt>
      <trkpt lat="43.12709" lon="3.08773">
        <ele>51.711517333984</ele>
        <time>2021-01-03T19:19:07.515Z</time>
      </trkpt>
      <trkpt lat="43.1275" lon="3.08795">
        <ele>48.82075881958</ele>
        <time>2021-01-03T19:19:13.523Z</time>
      </trkpt>
      <trkpt lat="43.12788" lon="3.08805">
        <ele>53.143650054932</ele>
        <time>2021-01-03T19:19:19.539Z</time>
      </trkpt>
      <trkpt lat="43.12807" lon="3.08802">
        <ele>55.6389503479</ele>
        <time>2021-01-03T19:19:25.559Z</time>
      </trkpt>
      <trkpt lat="43.12836" lon="3.08793">
        <ele>55.799591064453</ele>
        <time>2021-01-03T19:19:31.585Z</time>
      </trkpt>
      <trkpt lat="43.12846" lon="3.08796">
        <ele>54.081611633301</ele>
        <time>2021-01-03T19:19:37.613Z</time>
      </trkpt>
      <trkpt lat="43.12854" lon="3.08795">
        <ele>53.554351806641</ele>
        <time>2021-01-03T19:19:43.642Z</time>
      </trkpt>
      <trkpt lat="43.12864" lon="3.08791">
        <ele>53.79126739502</ele>
        <time>2021-01-03T19:19:49.674Z</time>
      </trkpt>
      <trkpt lat="43.12875" lon="3.08796">
        <ele>51.845420837402</ele>
        <time>2021-01-03T19:19:55.708Z</time>
      </trkpt>
      <trkpt lat="43.12882" lon="3.08805">
        <ele>48.989879608154</ele>
        <time>2021-01-03T19:20:01.744Z</time>
      </trkpt>
      <trkpt lat="43.12883" lon="3.08822">
        <ele>44.44507598877</ele>
        <time>2021-01-03T19:20:07.782Z</time>
      </trkpt>
      <trkpt lat="43.1289" lon="3.08831">
        <ele>42.476715087891</ele>
        <time>2021-01-03T19:20:13.822Z</time>
      </trkpt>
      <trkpt lat="43.12912" lon="3.08852">
        <ele>38.095470428467</ele>
        <time>2021-01-03T19:20:19.868Z</time>
      </trkpt>
      <trkpt lat="43.12912" lon="3.08858">
        <ele>38.190654754639</ele>
        <time>2021-01-03T19:20:25.914Z</time>
      </trkpt>
      <trkpt lat="43.12919" lon="3.08865">
        <ele>38.437114715576</ele>
        <time>2021-01-03T19:20:31.962Z</time>
      </trkpt>
      <trkpt lat="43.12929" lon="3.08865">
        <ele>38.536205291748</ele>
        <time>2021-01-03T19:20:38.012Z</time>
      </trkpt>
      <trkpt lat="43.12953" lon="3.08872">
        <ele>40.854866027832</ele>
        <time>2021-01-03T19:20:44.067Z</time>
      </trkpt>
      <trkpt lat="43.12967" lon="3.08881">
        <ele>42.312728881836</ele>
        <time>2021-01-03T19:20:50.125Z</time>
      </trkpt>
      <trkpt lat="43.12986" lon="3.08886">
        <ele>43.163124084473</ele>
        <time>2021-01-03T19:20:56.187Z</time>
      </trkpt>
      <trkpt lat="43.13017" lon="3.08908">
        <ele>44.415821075439</ele>
        <time>2021-01-03T19:21:02.256Z</time>
      </trkpt>
      <trkpt lat="43.13027" lon="3.08924">
        <ele>46.333126068115</ele>
        <time>2021-01-03T19:21:08.328Z</time>
      </trkpt>
      <trkpt lat="43.13046" lon="3.08946">
        <ele>49.173210144043</ele>
        <time>2021-01-03T19:21:14.405Z</time>
      </trkpt>
      <trkpt lat="43.13082" lon="3.08968">
        <ele>49.112407684326</ele>
        <time>2021-01-03T19:21:20.490Z</time>
      </trkpt>
      <trkpt lat="43.13088" lon="3.08969">
        <ele>49.396877288818</ele>
        <time>2021-01-03T19:21:26.576Z</time>
      </trkpt>
      <trkpt lat="43.13094" lon="3.08966">
        <ele>49.301853179932</ele>
        <time>2021-01-03T19:21:32.663Z</time>
      </trkpt>
      <trkpt lat="43.13117" lon="3.08947">
        <ele>48.26749420166</ele>
        <time>2021-01-03T19:21:38.756Z</time>
      </trkpt>
      <trkpt lat="43.13123" lon="3.08939">
        <ele>49.148956298828</ele>
        <time>2021-01-03T19:21:44.851Z</time>
      </trkpt>
      <trkpt lat="43.13135" lon="3.0893">
        <ele>52.263851165771</ele>
        <time>2021-01-03T19:21:50.948Z</time>
      </trkpt>
      <trkpt lat="43.13147" lon="3.08929">
        <ele>55.397239685059</ele>
        <time>2021-01-03T19:21:57.048Z</time>
      </trkpt>
      <trkpt lat="43.13154" lon="3.0894">
        <ele>55.562252044678</ele>
        <time>2021-01-03T19:22:03.150Z</time>
      </trkpt>
      <trkpt lat="43.13161" lon="3.08969">
        <ele>53.841396331787</ele>
        <time>2021-01-03T19:22:09.256Z</time>
      </trkpt>
      <trkpt lat="43.13168" lon="3.08985">
        <ele>53.475780487061</ele>
        <time>2021-01-03T19:22:15.365Z</time>
      </trkpt>
      <trkpt lat="43.13179" lon="3.09025">
        <ele>54.975719451904</ele>
        <time>2021-01-03T19:22:21.480Z</time>
      </trkpt>
      <trkpt lat="43.13192" lon="3.09052">
        <ele>56.289875030518</ele>
        <time>2021-01-03T19:22:27.600Z</time>
      </trkpt>
      <trkpt lat="43.13203" lon="3.09062">
        <ele>56.635883331299</ele>
        <time>2021-01-03T19:22:33.723Z</time>
      </trkpt>
      <trkpt lat="43.1322" lon="3.09066">
        <ele>56.500228881836</ele>
        <time>2021-01-03T19:22:39.849Z</time>
      </trkpt>
      <trkpt lat="43.13238" lon="3.09064">
        <ele>56</ele>
        <time>2021-01-03T19:22:45.979Z</time>
      </trkpt>
      <trkpt lat="43.13252" lon="3.0906">
        <ele>55.55753326416</ele>
        <time>2021-01-03T19:22:52.112Z</time>
      </trkpt>
      <trkpt lat="43.13258" lon="3.09061">
        <ele>55.392169952393</ele>
        <time>2021-01-03T19:22:58.246Z</time>
      </trkpt>
      <trkpt lat="43.1327" lon="3.09072">
        <ele>55.336463928223</ele>
        <time>2021-01-03T19:23:04.383Z</time>
      </trkpt>
      <trkpt lat="43.13276" lon="3.09068">
        <ele>56.024894714355</ele>
        <time>2021-01-03T19:23:10.521Z</time>
      </trkpt>
      <trkpt lat="43.13269" lon="3.09048">
        <ele>56.056266784668</ele>
        <time>2021-01-03T19:23:16.662Z</time>
      </trkpt>
      <trkpt lat="43.13246" lon="3.08997">
        <ele>59.858764648438</ele>
        <time>2021-01-03T19:23:22.812Z</time>
      </trkpt>
      <trkpt lat="43.13237" lon="3.08967">
        <ele>64.512596130371</ele>
        <time>2021-01-03T19:23:28.967Z</time>
      </trkpt>
      <trkpt lat="43.13235" lon="3.08935">
        <ele>66.574600219727</ele>
        <time>2021-01-03T19:23:35.126Z</time>
      </trkpt>
      <trkpt lat="43.13223" lon="3.08859">
        <ele>72.501831054688</ele>
        <time>2021-01-03T19:23:41.297Z</time>
      </trkpt>
      <trkpt lat="43.13216" lon="3.08827">
        <ele>76.196174621582</ele>
        <time>2021-01-03T19:23:47.473Z</time>
      </trkpt>
      <trkpt lat="43.13216" lon="3.08804">
        <ele>76.453758239746</ele>
        <time>2021-01-03T19:23:53.652Z</time>
      </trkpt>
      <trkpt lat="43.13207" lon="3.08779">
        <ele>77.192253112793</ele>
        <time>2021-01-03T19:23:59.835Z</time>
      </trkpt>
      <trkpt lat="43.132" lon="3.08752">
        <ele>77.450782775879</ele>
        <time>2021-01-03T19:24:06.022Z</time>
      </trkpt>
      <trkpt lat="43.13196" lon="3.08723">
        <ele>78.118896484375</ele>
        <time>2021-01-03T19:24:12.214Z</time>
      </trkpt>
      <trkpt lat="43.13188" lon="3.08701">
        <ele>78.209121704102</ele>
        <time>2021-01-03T19:24:18.409Z</time>
      </trkpt>
      <trkpt lat="43.13165" lon="3.08695">
        <ele>81.002624511719</ele>
        <time>2021-01-03T19:24:24.609Z</time>
      </trkpt>
      <trkpt lat="43.13151" lon="3.08693">
        <ele>82.263107299805</ele>
        <time>2021-01-03T19:24:30.812Z</time>
      </trkpt>
      <trkpt lat="43.13124" lon="3.08696">
        <ele>84.898300170898</ele>
        <time>2021-01-03T19:24:37.020Z</time>
      </trkpt>
      <trkpt lat="43.13105" lon="3.08686">
        <ele>86.574348449707</ele>
        <time>2021-01-03T19:24:43.232Z</time>
      </trkpt>
      <trkpt lat="43.13088" lon="3.08675">
        <ele>88.879974365234</ele>
        <time>2021-01-03T19:24:49.448Z</time>
      </trkpt>
      <trkpt lat="43.13078" lon="3.08666">
        <ele>90.846519470215</ele>
        <time>2021-01-03T19:24:55.666Z</time>
      </trkpt>
      <trkpt lat="43.13067" lon="3.08664">
        <ele>92.806465148926</ele>
        <time>2021-01-03T19:25:01.887Z</time>
      </trkpt>
      <trkpt lat="43.13071" lon="3.0865">
        <ele>94.158760070801</ele>
        <time>2021-01-03T19:25:08.110Z</time>
      </trkpt>
      <trkpt lat="43.13071" lon="3.08633">
        <ele>97.2900390625</ele>
        <time>2021-01-03T19:25:14.336Z</time>
      </trkpt>
      <trkpt lat="43.13068" lon="3.08587">
        <ele>101.68166351318</ele>
        <time>2021-01-03T19:25:20.568Z</time>
      </trkpt>
      <trkpt lat="43.13061" lon="3.08544">
        <ele>104.72059631348</ele>
        <time>2021-01-03T19:25:26.807Z</time>
      </trkpt>
      <trkpt lat="43.13062" lon="3.08484">
        <ele>103.01918792725</ele>
        <time>2021-01-03T19:25:33.054Z</time>
      </trkpt>
      <trkpt lat="43.13049" lon="3.08455">
        <ele>103.40803527832</ele>
        <time>2021-01-03T19:25:39.307Z</time>
      </trkpt>
      <trkpt lat="43.13042" lon="3.08447">
        <ele>103.9027633667</ele>
        <time>2021-01-03T19:25:45.561Z</time>
      </trkpt>
      <trkpt lat="43.13029" lon="3.08426">
        <ele>104.2797088623</ele>
        <time>2021-01-03T19:25:51.819Z</time>
      </trkpt>
      <trkpt lat="43.13016" lon="3.08411">
        <ele>104.51116943359</ele>
        <time>2021-01-03T19:25:58.081Z</time>
      </trkpt>
      <trkpt lat="43.13013" lon="3.08404">
        <ele>104.20166015625</ele>
        <time>2021-01-03T19:26:04.344Z</time>
      </trkpt>
      <trkpt lat="43.13014" lon="3.08395">
        <ele>103.24183654785</ele>
        <time>2021-01-03T19:26:10.608Z</time>
      </trkpt>
      <trkpt lat="43.13022" lon="3.08382">
        <ele>101.09156799316</ele>
        <time>2021-01-03T19:26:16.875Z</time>
      </trkpt>
      <trkpt lat="43.13028" lon="3.08365">
        <ele>98.999992370605</ele>
        <time>2021-01-03T19:26:23.144Z</time>
      </trkpt>
      <trkpt lat="43.13048" lon="3.08337">
        <ele>95.117057800293</ele>
        <time>2021-01-03T19:26:29.419Z</time>
      </trkpt>
      <trkpt lat="43.13053" lon="3.08327">
        <ele>94.113418579102</ele>
        <time>2021-01-03T19:26:35.696Z</time>
      </trkpt>
      <trkpt lat="43.13055" lon="3.08306">
        <ele>92.795654296875</ele>
        <time>2021-01-03T19:26:41.976Z</time>
      </trkpt>
      <trkpt lat="43.13054" lon="3.08298">
        <ele>92.607414245605</ele>
        <time>2021-01-03T19:26:48.257Z</time>
      </trkpt>
      <trkpt lat="43.13057" lon="3.08287">
        <ele>91.610107421875</ele>
        <time>2021-01-03T19:26:54.540Z</time>
      </trkpt>
      <trkpt lat="43.13056" lon="3.08274">
        <ele>91.313270568848</ele>
        <time>2021-01-03T19:27:00.825Z</time>
      </trkpt>
      <trkpt lat="43.13054" lon="3.08266">
        <ele>91.422836303711</ele>
        <time>2021-01-03T19:27:07.111Z</time>
      </trkpt>
      <trkpt lat="43.13027" lon="3.08257">
        <ele>93.658157348633</ele>
        <time>2021-01-03T19:27:13.403Z</time>
      </trkpt>
      <trkpt lat="43.13003" lon="3.08255">
        <ele>94.686004638672</ele>
        <time>2021-01-03T19:27:19.699Z</time>
      </trkpt>
      <trkpt lat="43.12999" lon="3.08257">
        <ele>94.973487854004</ele>
        <time>2021-01-03T19:27:25.996Z</time>
      </trkpt>
      <trkpt lat="43.12986" lon="3.08255">
        <ele>94.98543548584</ele>
        <time>2021-01-03T19:27:32.296Z</time>
      </trkpt>
      <trkpt lat="43.1298" lon="3.08249">
        <ele>94.023727416992</ele>
        <time>2021-01-03T19:27:38.598Z</time>
      </trkpt>
      <trkpt lat="43.12966" lon="3.08232">
        <ele>92.324668884277</ele>
        <time>2021-01-03T19:27:44.903Z</time>
      </trkpt>
      <trkpt lat="43.12951" lon="3.08216">
        <ele>91.613906860352</ele>
        <time>2021-01-03T19:27:51.212Z</time>
      </trkpt>
      <trkpt lat="43.12944" lon="3.08214">
        <ele>91.34391784668</ele>
        <time>2021-01-03T19:27:57.522Z</time>
      </trkpt>
      <trkpt lat="43.12937" lon="3.08205">
        <ele>91.280548095703</ele>
        <time>2021-01-03T19:28:03.834Z</time>
      </trkpt>
      <trkpt lat="43.12936" lon="3.08193">
        <ele>91.697151184082</ele>
        <time>2021-01-03T19:28:10.148Z</time>
      </trkpt>
      <trkpt lat="43.12931" lon="3.08179">
        <ele>91.830230712891</ele>
        <time>2021-01-03T19:28:16.464Z</time>
      </trkpt>
      <trkpt lat="43.12921" lon="3.08109">
        <ele>94.18196105957</ele>
        <time>2021-01-03T19:28:22.791Z</time>
      </trkpt>
      <trkpt lat="43.12912" lon="3.08065">
        <ele>96.452644348145</ele>
        <time>2021-01-03T19:28:29.124Z</time>
      </trkpt>
      <trkpt lat="43.12907" lon="3.08012">
        <ele>98.957153320312</ele>
        <time>2021-01-03T19:28:35.465Z</time>
      </trkpt>
      <trkpt lat="43.12909" lon="3.07997">
        <ele>98.799087524414</ele>
        <time>2021-01-03T19:28:41.809Z</time>
      </trkpt>
      <trkpt lat="43.12906" lon="3.07971">
        <ele>99.022315979004</ele>
        <time>2021-01-03T19:28:48.156Z</time>
      </trkpt>
      <trkpt lat="43.12905" lon="3.07944">
        <ele>99.598648071289</ele>
        <time>2021-01-03T19:28:54.507Z</time>
      </trkpt>
      <trkpt lat="43.12916" lon="3.07924">
        <ele>98.684730529785</ele>
        <time>2021-01-03T19:29:00.862Z</time>
      </trkpt>
      <trkpt lat="43.12911" lon="3.0789">
        <ele>98.980484008789</ele>
        <time>2021-01-03T19:29:07.222Z</time>
      </trkpt>
      <trkpt lat="43.12913" lon="3.07829">
        <ele>94.141563415527</ele>
        <time>2021-01-03T19:29:13.591Z</time>
      </trkpt>
      <trkpt lat="43.12916" lon="3.07812">
        <ele>91.477256774902</ele>
        <time>2021-01-03T19:29:19.963Z</time>
      </trkpt>
      <trkpt lat="43.12906" lon="3.07774">
        <ele>90.276733398438</ele>
        <time>2021-01-03T19:29:26.341Z</time>
      </trkpt>
      <trkpt lat="43.12902" lon="3.07753">
        <ele>87.979232788086</ele>
        <time>2021-01-03T19:29:32.722Z</time>
      </trkpt>
      <trkpt lat="43.129" lon="3.07719">
        <ele>84.339347839355</ele>
        <time>2021-01-03T19:29:39.108Z</time>
      </trkpt>
      <trkpt lat="43.129" lon="3.07711">
        <ele>83.497703552246</ele>
        <time>2021-01-03T19:29:45.495Z</time>
      </trkpt>
      <trkpt lat="43.12908" lon="3.077">
        <ele>81.679565429688</ele>
        <time>2021-01-03T19:29:51.884Z</time>
      </trkpt>
      <trkpt lat="43.1294" lon="3.07715">
        <ele>80.156852722168</ele>
        <time>2021-01-03T19:29:58.280Z</time>
      </trkpt>
      <trkpt lat="43.12946" lon="3.07716">
        <ele>80.194259643555</ele>
        <time>2021-01-03T19:30:04.677Z</time>
      </trkpt>
      <trkpt lat="43.12948" lon="3.07713">
        <ele>80.09139251709</ele>
        <time>2021-01-03T19:30:11.075Z</time>
      </trkpt>
      <trkpt lat="43.12948" lon="3.07696">
        <ele>78.968032836914</ele>
        <time>2021-01-03T19:30:17.475Z</time>
      </trkpt>
      <trkpt lat="43.12947" lon="3.07687">
        <ele>78.60181427002</ele>
        <time>2021-01-03T19:30:23.877Z</time>
      </trkpt>
      <trkpt lat="43.12951" lon="3.07672">
        <ele>77.828315734863</ele>
        <time>2021-01-03T19:30:30.281Z</time>
      </trkpt>
      <trkpt lat="43.12949" lon="3.07665">
        <ele>77.378601074219</ele>
        <time>2021-01-03T19:30:36.686Z</time>
      </trkpt>
      <trkpt lat="43.12947" lon="3.07641">
        <ele>76.889953613281</ele>
        <time>2021-01-03T19:30:43.095Z</time>
      </trkpt>
      <trkpt lat="43.12951" lon="3.07627">
        <ele>76.592727661133</ele>
        <time>2021-01-03T19:30:49.506Z</time>
      </trkpt>
      <trkpt lat="43.12949" lon="3.07574">
        <ele>75.120018005371</ele>
        <time>2021-01-03T19:30:55.925Z</time>
      </trkpt>
      <trkpt lat="43.12955" lon="3.0752">
        <ele>74.466735839844</ele>
        <time>2021-01-03T19:31:02.352Z</time>
      </trkpt>
      <trkpt lat="43.12956" lon="3.07522">
        <ele>74.549392700195</ele>
        <time>2021-01-03T19:31:08.779Z</time>
      </trkpt>
      <trkpt lat="43.12955" lon="3.07508">
        <ele>74.786643981934</ele>
        <time>2021-01-03T19:31:15.208Z</time>
      </trkpt>
      <trkpt lat="43.12951" lon="3.07499">
        <ele>74.802932739258</ele>
        <time>2021-01-03T19:31:21.639Z</time>
      </trkpt>
      <trkpt lat="43.12947" lon="3.07486">
        <ele>75.032196044922</ele>
        <time>2021-01-03T19:31:28.072Z</time>
      </trkpt>
      <trkpt lat="43.12935" lon="3.07461">
        <ele>75.058441162109</ele>
        <time>2021-01-03T19:31:34.509Z</time>
      </trkpt>
      <trkpt lat="43.12926" lon="3.07434">
        <ele>74.719116210938</ele>
        <time>2021-01-03T19:31:40.950Z</time>
      </trkpt>
      <trkpt lat="43.12902" lon="3.07392">
        <ele>72.72925567627</ele>
        <time>2021-01-03T19:31:47.399Z</time>
      </trkpt>
      <trkpt lat="43.12887" lon="3.07344">
        <ele>71.145851135254</ele>
        <time>2021-01-03T19:31:53.856Z</time>
      </trkpt>
      <trkpt lat="43.12873" lon="3.07331">
        <ele>69.750999450684</ele>
        <time>2021-01-03T19:32:00.316Z</time>
      </trkpt>
      <trkpt lat="43.12853" lon="3.07326">
        <ele>67.7705078125</ele>
        <time>2021-01-03T19:32:06.780Z</time>
      </trkpt>
      <trkpt lat="43.12844" lon="3.07316">
        <ele>67.835098266602</ele>
        <time>2021-01-03T19:32:13.247Z</time>
      </trkpt>
      <trkpt lat="43.12838" lon="3.07305">
        <ele>68.409767150879</ele>
        <time>2021-01-03T19:32:19.716Z</time>
      </trkpt>
      <trkpt lat="43.12828" lon="3.07309">
        <ele>66.855895996094</ele>
        <time>2021-01-03T19:32:26.187Z</time>
      </trkpt>
      <trkpt lat="43.12807" lon="3.07299">
        <ele>64.512153625488</ele>
        <time>2021-01-03T19:32:32.662Z</time>
      </trkpt>
      <trkpt lat="43.12795" lon="3.07283">
        <ele>63.260807037354</ele>
        <time>2021-01-03T19:32:39.141Z</time>
      </trkpt>
      <trkpt lat="43.12769" lon="3.07258">
        <ele>58.669467926025</ele>
        <time>2021-01-03T19:32:45.626Z</time>
      </trkpt>
      <trkpt lat="43.12765" lon="3.07257">
        <ele>57.828426361084</ele>
        <time>2021-01-03T19:32:52.112Z</time>
      </trkpt>
      <trkpt lat="43.1276" lon="3.07258">
        <ele>56.637756347656</ele>
        <time>2021-01-03T19:32:58.599Z</time>
      </trkpt>
      <trkpt lat="43.12755" lon="3.07247">
        <ele>56.036540985107</ele>
        <time>2021-01-03T19:33:05.088Z</time>
      </trkpt>
      <trkpt lat="43.12751" lon="3.07222">
        <ele>56.08963394165</ele>
        <time>2021-01-03T19:33:11.580Z</time>
      </trkpt>
      <trkpt lat="43.12743" lon="3.07204">
        <ele>55.729919433594</ele>
        <time>2021-01-03T19:33:18.075Z</time>
      </trkpt>
      <trkpt lat="43.12738" lon="3.07181">
        <ele>56.548667907715</ele>
        <time>2021-01-03T19:33:24.574Z</time>
      </trkpt>
      <trkpt lat="43.12722" lon="3.07139">
        <ele>54.354789733887</ele>
        <time>2021-01-03T19:33:31.080Z</time>
      </trkpt>
      <trkpt lat="43.12712" lon="3.07134">
        <ele>51.907081604004</ele>
        <time>2021-01-03T19:33:37.588Z</time>
      </trkpt>
      <trkpt lat="43.12712" lon="3.07119">
        <ele>52.124485015869</ele>
        <time>2021-01-03T19:33:44.098Z</time>
      </trkpt>
      <trkpt lat="43.12709" lon="3.07105">
        <ele>51.21949005127</ele>
        <time>2021-01-03T19:33:50.610Z</time>
      </trkpt>
      <trkpt lat="43.127" lon="3.07089">
        <ele>48.632411956787</ele>
        <time>2021-01-03T19:33:57.125Z</time>
      </trkpt>
      <trkpt lat="43.12683" lon="3.07076">
        <ele>43.756435394287</ele>
        <time>2021-01-03T19:34:03.644Z</time>
      </trkpt>
      <trkpt lat="43.12675" lon="3.07077">
        <ele>42.414028167725</ele>
        <time>2021-01-03T19:34:10.165Z</time>
      </trkpt>
      <trkpt lat="43.12661" lon="3.07072">
        <ele>39.771446228027</ele>
        <time>2021-01-03T19:34:16.689Z</time>
      </trkpt>
      <trkpt lat="43.12644" lon="3.07065">
        <ele>37.889110565186</ele>
        <time>2021-01-03T19:34:23.216Z</time>
      </trkpt>
      <trkpt lat="43.12618" lon="3.07061">
        <ele>36.656963348389</ele>
        <time>2021-01-03T19:34:29.748Z</time>
      </trkpt>
      <trkpt lat="43.12606" lon="3.07053">
        <ele>36.558921813965</ele>
        <time>2021-01-03T19:34:36.283Z</time>
      </trkpt>
      <trkpt lat="43.1257" lon="3.07002">
        <ele>35.798667907715</ele>
        <time>2021-01-03T19:34:42.828Z</time>
      </trkpt>
      <trkpt lat="43.1253" lon="3.06958">
        <ele>36.451904296875</ele>
        <time>2021-01-03T19:34:49.384Z</time>
      </trkpt>
      <trkpt lat="43.12512" lon="3.0693">
        <ele>36</ele>
        <time>2021-01-03T19:34:55.945Z</time>
      </trkpt>
      <trkpt lat="43.12495" lon="3.06936">
        <ele>36.265007019043</ele>
        <time>2021-01-03T19:35:02.510Z</time>
      </trkpt>
      <trkpt lat="43.1245" lon="3.06963">
        <ele>33.940551757812</ele>
        <time>2021-01-03T19:35:09.084Z</time>
      </trkpt>
      <trkpt lat="43.12452" lon="3.06997">
        <ele>37.613327026367</ele>
        <time>2021-01-03T19:35:15.664Z</time>
      </trkpt>
      <trkpt lat="43.12433" lon="3.07083">
        <ele>36.297256469727</ele>
        <time>2021-01-03T19:35:22.257Z</time>
      </trkpt>
      <trkpt lat="43.12418" lon="3.07125">
        <ele>35.554225921631</ele>
        <time>2021-01-03T19:35:28.857Z</time>
      </trkpt>
      <trkpt lat="43.12407" lon="3.07153">
        <ele>34.12068939209</ele>
        <time>2021-01-03T19:35:35.461Z</time>
      </trkpt>
      <trkpt lat="43.12376" lon="3.0719">
        <ele>30.023628234863</ele>
        <time>2021-01-03T19:35:42.073Z</time>
      </trkpt>
      <trkpt lat="43.12357" lon="3.07205">
        <ele>28.542757034302</ele>
        <time>2021-01-03T19:35:48.690Z</time>
      </trkpt>
      <trkpt lat="43.1234" lon="3.07225">
        <ele>27.606262207031</ele>
        <time>2021-01-03T19:35:55.311Z</time>
      </trkpt>
      <trkpt lat="43.12315" lon="3.07312">
        <ele>27.357744216919</ele>
        <time>2021-01-03T19:36:01.946Z</time>
      </trkpt>
      <trkpt lat="43.12315" lon="3.07339">
        <ele>25.452314376831</ele>
        <time>2021-01-03T19:36:08.585Z</time>
      </trkpt>
      <trkpt lat="43.12324" lon="3.07426">
        <ele>21</ele>
        <time>2021-01-03T19:36:15.237Z</time>
      </trkpt>
      <trkpt lat="43.12353" lon="3.07432">
        <ele>21.090131759644</ele>
        <time>2021-01-03T19:36:21.895Z</time>
      </trkpt>
      <trkpt lat="43.12385" lon="3.07436">
        <ele>22.182504653931</ele>
        <time>2021-01-03T19:36:28.559Z</time>
      </trkpt>
      <trkpt lat="43.1243" lon="3.07449">
        <ele>25.916889190674</ele>
        <time>2021-01-03T19:36:35.232Z</time>
      </trkpt>
      <trkpt lat="43.12453" lon="3.07483">
        <ele>27.357471466064</ele>
        <time>2021-01-03T19:36:41.912Z</time>
      </trkpt>
      <trkpt lat="43.12464" lon="3.0748">
        <ele>28.172569274902</ele>
        <time>2021-01-03T19:36:48.594Z</time>
      </trkpt>
      <trkpt lat="43.12478" lon="3.07456">
        <ele>30.09815788269</ele>
        <time>2021-01-03T19:36:55.281Z</time>
      </trkpt>
      <trkpt lat="43.12501" lon="3.07433">
        <ele>32.781761169434</ele>
        <time>2021-01-03T19:37:01.974Z</time>
      </trkpt>
      <trkpt lat="43.12556" lon="3.07439">
        <ele>36.73664855957</ele>
        <time>2021-01-03T19:37:08.678Z</time>
      </trkpt>
      <trkpt lat="43.12656" lon="3.07486">
        <ele>44.061370849609</ele>
        <time>2021-01-03T19:37:15.403Z</time>
      </trkpt>
      <trkpt lat="43.12741" lon="3.07542">
        <ele>56.18049621582</ele>
        <time>2021-01-03T19:37:22.147Z</time>
      </trkpt>
      <trkpt lat="43.12796" lon="3.07589">
        <ele>63.948299407959</ele>
        <time>2021-01-03T19:37:28.904Z</time>
      </trkpt>
      <trkpt lat="43.12816" lon="3.0763">
        <ele>69.063400268555</ele>
        <time>2021-01-03T19:37:35.668Z</time>
      </trkpt>
      <trkpt lat="43.12837" lon="3.07657">
        <ele>73.791236877441</ele>
        <time>2021-01-03T19:37:42.438Z</time>
      </trkpt>
      <trkpt lat="43.12863" lon="3.07673">
        <ele>78.455009460449</ele>
        <time>2021-01-03T19:37:49.213Z</time>
      </trkpt>
      <trkpt lat="43.12879" lon="3.07679">
        <ele>80.716995239258</ele>
        <time>2021-01-03T19:37:55.992Z</time>
      </trkpt>
      <trkpt lat="43.12909" lon="3.07687">
        <ele>80.237007141113</ele>
        <time>2021-01-03T19:38:02.777Z</time>
      </trkpt>
      <trkpt lat="43.12916" lon="3.07694">
        <ele>80.162796020508</ele>
        <time>2021-01-03T19:38:09.563Z</time>
      </trkpt>
      <trkpt lat="43.12941" lon="3.07705">
        <ele>79.573425292969</ele>
        <time>2021-01-03T19:38:16.355Z</time>
      </trkpt>
      <trkpt lat="43.12953" lon="3.07715">
        <ele>80.160774230957</ele>
        <time>2021-01-03T19:38:23.149Z</time>
      </trkpt>
      <trkpt lat="43.12958" lon="3.07706">
        <ele>79.704345703125</ele>
        <time>2021-01-03T19:38:29.945Z</time>
      </trkpt>
      <trkpt lat="43.12961" lon="3.07688">
        <ele>79.140892028809</ele>
        <time>2021-01-03T19:38:36.744Z</time>
      </trkpt>
      <trkpt lat="43.12968" lon="3.07674">
        <ele>80.066299438477</ele>
        <time>2021-01-03T19:38:43.545Z</time>
      </trkpt>
      <trkpt lat="43.12977" lon="3.07645">
        <ele>79.729858398438</ele>
        <time>2021-01-03T19:38:50.351Z</time>
      </trkpt>
      <trkpt lat="43.12983" lon="3.07635">
        <ele>80.268936157227</ele>
        <time>2021-01-03T19:38:57.159Z</time>
      </trkpt>
      <trkpt lat="43.12984" lon="3.07655">
        <ele>81.202491760254</ele>
        <time>2021-01-03T19:39:03.970Z</time>
      </trkpt>
      <trkpt lat="43.12983" lon="3.0769">
        <ele>83.70467376709</ele>
        <time>2021-01-03T19:39:10.786Z</time>
      </trkpt>
      <trkpt lat="43.12987" lon="3.07749">
        <ele>83.694290161133</ele>
        <time>2021-01-03T19:39:17.610Z</time>
      </trkpt>
      <trkpt lat="43.12987" lon="3.07811">
        <ele>82.917701721191</ele>
        <time>2021-01-03T19:39:24.444Z</time>
      </trkpt>
      <trkpt lat="43.13001" lon="3.07873">
        <ele>86.08895111084</ele>
        <time>2021-01-03T19:39:31.287Z</time>
      </trkpt>
      <trkpt lat="43.1301" lon="3.07956">
        <ele>87.160026550293</ele>
        <time>2021-01-03T19:39:38.142Z</time>
      </trkpt>
      <trkpt lat="43.13031" lon="3.08046">
        <ele>85.388107299805</ele>
        <time>2021-01-03T19:39:45.011Z</time>
      </trkpt>
      <trkpt lat="43.13039" lon="3.08066">
        <ele>85.006805419922</ele>
        <time>2021-01-03T19:39:51.884Z</time>
      </trkpt>
      <trkpt lat="43.13053" lon="3.08106">
        <ele>85.274612426758</ele>
        <time>2021-01-03T19:39:58.763Z</time>
      </trkpt>
      <trkpt lat="43.13062" lon="3.08121">
        <ele>85.788497924805</ele>
        <time>2021-01-03T19:40:05.645Z</time>
      </trkpt>
      <trkpt lat="43.13045" lon="3.08315">
        <ele>94.808547973633</ele>
        <time>2021-01-03T19:40:12.556Z</time>
      </trkpt>
      <trkpt lat="43.13036" lon="3.08342">
        <ele>96.766654968262</ele>
        <time>2021-01-03T19:40:19.471Z</time>
      </trkpt>
      <trkpt lat="43.13024" lon="3.08355">
        <ele>98.670875549316</ele>
        <time>2021-01-03T19:40:26.389Z</time>
      </trkpt>
      <trkpt lat="43.13019" lon="3.08372">
        <ele>100.48719787598</ele>
        <time>2021-01-03T19:40:33.310Z</time>
      </trkpt>
      <trkpt lat="43.13008" lon="3.08392">
        <ele>103.60473632812</ele>
        <time>2021-01-03T19:40:40.234Z</time>
      </trkpt>
      <trkpt lat="43.13007" lon="3.08408">
        <ele>104.96426391602</ele>
        <time>2021-01-03T19:40:47.161Z</time>
      </trkpt>
      <trkpt lat="43.13021" lon="3.08431">
        <ele>105.4616317749</ele>
        <time>2021-01-03T19:40:54.092Z</time>
      </trkpt>
      <trkpt lat="43.13033" lon="3.08446">
        <ele>104.77306365967</ele>
        <time>2021-01-03T19:41:01.026Z</time>
      </trkpt>
      <trkpt lat="43.13047" lon="3.08473">
        <ele>104.32931518555</ele>
        <time>2021-01-03T19:41:07.965Z</time>
      </trkpt>
      <trkpt lat="43.13055" lon="3.08487">
        <ele>103.87500762939</ele>
        <time>2021-01-03T19:41:14.907Z</time>
      </trkpt>
      <trkpt lat="43.13053" lon="3.08529">
        <ele>105.31566619873</ele>
        <time>2021-01-03T19:41:21.855Z</time>
      </trkpt>
      <trkpt lat="43.13063" lon="3.08632">
        <ele>98.694290161133</ele>
        <time>2021-01-03T19:41:28.818Z</time>
      </trkpt>
      <trkpt lat="43.13057" lon="3.0867">
        <ele>93.754981994629</ele>
        <time>2021-01-03T19:41:35.787Z</time>
      </trkpt>
      <trkpt lat="43.1304" lon="3.08681">
        <ele>94.580215454102</ele>
        <time>2021-01-03T19:41:42.759Z</time>
      </trkpt>
      <trkpt lat="43.13032" lon="3.08693">
        <ele>94.928031921387</ele>
        <time>2021-01-03T19:41:49.734Z</time>
      </trkpt>
      <trkpt lat="43.13023" lon="3.08711">
        <ele>92.201667785645</ele>
        <time>2021-01-03T19:41:56.712Z</time>
      </trkpt>
      <trkpt lat="43.13013" lon="3.08716">
        <ele>91.638465881348</ele>
        <time>2021-01-03T19:42:03.692Z</time>
      </trkpt>
      <trkpt lat="43.1301" lon="3.08715">
        <ele>91.903930664062</ele>
        <time>2021-01-03T19:42:10.673Z</time>
      </trkpt>
      <trkpt lat="43.12972" lon="3.08685">
        <ele>100.74746704102</ele>
        <time>2021-01-03T19:42:17.662Z</time>
      </trkpt>
      <trkpt lat="43.12958" lon="3.08684">
        <ele>101.84387969971</ele>
        <time>2021-01-03T19:42:24.654Z</time>
      </trkpt>
      <trkpt lat="43.12932" lon="3.08666">
        <ele>107.18144226074</ele>
        <time>2021-01-03T19:42:31.652Z</time>
      </trkpt>
      <trkpt lat="43.12919" lon="3.0866">
        <ele>109.24392700195</ele>
        <time>2021-01-03T19:42:38.653Z</time>
      </trkpt>
      <trkpt lat="43.12909" lon="3.08659">
        <ele>110.00199127197</ele>
        <time>2021-01-03T19:42:45.656Z</time>
      </trkpt>
      <trkpt lat="43.1288" lon="3.0865">
        <ele>110.85634613037</ele>
        <time>2021-01-03T19:42:52.665Z</time>
      </trkpt>
      <trkpt lat="43.12862" lon="3.08645">
        <ele>111.46047210693</ele>
        <time>2021-01-03T19:42:59.678Z</time>
      </trkpt>
      <trkpt lat="43.12839" lon="3.08644">
        <ele>111.27763366699</ele>
        <time>2021-01-03T19:43:06.695Z</time>
      </trkpt>
      <trkpt lat="43.12823" lon="3.08635">
        <ele>114.32289123535</ele>
        <time>2021-01-03T19:43:13.716Z</time>
      </trkpt>
      <trkpt lat="43.12799" lon="3.08632">
        <ele>113.29706573486</ele>
        <time>2021-01-03T19:43:20.741Z</time>
      </trkpt>
      <trkpt lat="43.12782" lon="3.08622">
        <ele>113.66479492188</ele>
        <time>2021-01-03T19:43:27.770Z</time>
      </trkpt>
      <trkpt lat="43.12773" lon="3.08609">
        <ele>114.83103179932</ele>
        <time>2021-01-03T19:43:34.802Z</time>
      </trkpt>
      <trkpt lat="43.12772" lon="3.08602">
        <ele>116.35806274414</ele>
        <time>2021-01-03T19:43:41.835Z</time>
      </trkpt>
      <trkpt lat="43.12755" lon="3.08561">
        <ele>115.85326385498</ele>
        <time>2021-01-03T19:43:48.875Z</time>
      </trkpt>
      <trkpt lat="43.12752" lon="3.08534">
        <ele>118.29043579102</ele>
        <time>2021-01-03T19:43:55.919Z</time>
      </trkpt>
      <trkpt lat="43.12747" lon="3.08522">
        <ele>118.40971374512</ele>
        <time>2021-01-03T19:44:02.965Z</time>
      </trkpt>
      <trkpt lat="43.12743" lon="3.08481">
        <ele>121.09228515625</ele>
        <time>2021-01-03T19:44:10.017Z</time>
      </trkpt>
      <trkpt lat="43.12749" lon="3.08462">
        <ele>122.71039581299</ele>
        <time>2021-01-03T19:44:17.072Z</time>
      </trkpt>
      <trkpt lat="43.12756" lon="3.0845">
        <ele>122.39232635498</ele>
        <time>2021-01-03T19:44:24.129Z</time>
      </trkpt>
      <trkpt lat="43.12765" lon="3.08419">
        <ele>118.13265228271</ele>
        <time>2021-01-03T19:44:31.191Z</time>
      </trkpt>
      <trkpt lat="43.12775" lon="3.084">
        <ele>115.69689178467</ele>
        <time>2021-01-03T19:44:38.256Z</time>
      </trkpt>
      <trkpt lat="43.12778" lon="3.08371">
        <ele>112.71643829346</ele>
        <time>2021-01-03T19:44:45.326Z</time>
      </trkpt>
      <trkpt lat="43.12786" lon="3.08352">
        <ele>111.54637908936</ele>
        <time>2021-01-03T19:44:52.399Z</time>
      </trkpt>
      <trkpt lat="43.12788" lon="3.08345">
        <ele>110.72728729248</ele>
        <time>2021-01-03T19:44:59.473Z</time>
      </trkpt>
      <trkpt lat="43.12781" lon="3.08315">
        <ele>106.71586608887</ele>
        <time>2021-01-03T19:45:06.552Z</time>
      </trkpt>
      <trkpt lat="43.12783" lon="3.08306">
        <ele>105.77121734619</ele>
        <time>2021-01-03T19:45:13.632Z</time>
      </trkpt>
      <trkpt lat="43.12768" lon="3.08254">
        <ele>101.02688598633</ele>
        <time>2021-01-03T19:45:20.720Z</time>
      </trkpt>
      <trkpt lat="43.12765" lon="3.08245">
        <ele>100.5093460083</ele>
        <time>2021-01-03T19:45:27.810Z</time>
      </trkpt>
      <trkpt lat="43.12752" lon="3.0822">
        <ele>97.467231750488</ele>
        <time>2021-01-03T19:45:34.904Z</time>
      </trkpt>
      <trkpt lat="43.12737" lon="3.08207">
        <ele>94.060035705566</ele>
        <time>2021-01-03T19:45:42.002Z</time>
      </trkpt>
      <trkpt lat="43.12734" lon="3.08203">
        <ele>92.869064331055</ele>
        <time>2021-01-03T19:45:49.101Z</time>
      </trkpt>
      <trkpt lat="43.12709" lon="3.08191">
        <ele>86.125946044922</ele>
        <time>2021-01-03T19:45:56.205Z</time>
      </trkpt>
      <trkpt lat="43.12702" lon="3.08184">
        <ele>83.920478820801</ele>
        <time>2021-01-03T19:46:03.311Z</time>
      </trkpt>
      <trkpt lat="43.12696" lon="3.08185">
        <ele>82.916839599609</ele>
        <time>2021-01-03T19:46:10.418Z</time>
      </trkpt>
      <trkpt lat="43.12695" lon="3.08187">
        <ele>82.871589660645</ele>
        <time>2021-01-03T19:46:17.525Z</time>
      </trkpt>
      <trkpt lat="43.12692" lon="3.08208">
        <ele>83.04052734375</ele>
        <time>2021-01-03T19:46:24.635Z</time>
      </trkpt>
      <trkpt lat="43.12685" lon="3.08226">
        <ele>82.243392944336</ele>
        <time>2021-01-03T19:46:31.748Z</time>
      </trkpt>
      <trkpt lat="43.12681" lon="3.0823">
        <ele>81.660423278809</ele>
        <time>2021-01-03T19:46:38.862Z</time>
      </trkpt>
      <trkpt lat="43.12675" lon="3.08232">
        <ele>80.530990600586</ele>
        <time>2021-01-03T19:46:45.977Z</time>
      </trkpt>
      <trkpt lat="43.12673" lon="3.08237">
        <ele>80.488151550293</ele>
        <time>2021-01-03T19:46:53.093Z</time>
      </trkpt>
      <trkpt lat="43.12665" lon="3.08234">
        <ele>78.619041442871</ele>
        <time>2021-01-03T19:47:00.211Z</time>
      </trkpt>
      <trkpt lat="43.12654" lon="3.08222">
        <ele>75.455039978027</ele>
        <time>2021-01-03T19:47:07.331Z</time>
      </trkpt>
      <trkpt lat="43.12642" lon="3.08218">
        <ele>72.956352233887</ele>
        <time>2021-01-03T19:47:14.454Z</time>
      </trkpt>
      <trkpt lat="43.12642" lon="3.08219">
        <ele>73.019401550293</ele>
        <time>2021-01-03T19:47:21.577Z</time>
      </trkpt>
      <trkpt lat="43.1264" lon="3.08216">
        <ele>72.34156036377</ele>
        <time>2021-01-03T19:47:28.701Z</time>
      </trkpt>
      <trkpt lat="43.1263" lon="3.08176">
        <ele>68.014175415039</ele>
        <time>2021-01-03T19:47:35.831Z</time>
      </trkpt>
      <trkpt lat="43.12631" lon="3.08154">
        <ele>67.194114685059</ele>
        <time>2021-01-03T19:47:42.964Z</time>
      </trkpt>
      <trkpt lat="43.12637" lon="3.08116">
        <ele>65.029251098633</ele>
        <time>2021-01-03T19:47:50.103Z</time>
      </trkpt>
      <trkpt lat="43.12641" lon="3.08102">
        <ele>64.123481750488</ele>
        <time>2021-01-03T19:47:57.244Z</time>
      </trkpt>
      <trkpt lat="43.12627" lon="3.08076">
        <ele>61.3674659729</ele>
        <time>2021-01-03T19:48:04.390Z</time>
      </trkpt>
      <trkpt lat="43.12612" lon="3.08043">
        <ele>58.792091369629</ele>
        <time>2021-01-03T19:48:11.542Z</time>
      </trkpt>
      <trkpt lat="43.12613" lon="3.0802">
        <ele>55.869773864746</ele>
        <time>2021-01-03T19:48:18.697Z</time>
      </trkpt>
      <trkpt lat="43.126" lon="3.07974">
        <ele>49.508888244629</ele>
        <time>2021-01-03T19:48:25.859Z</time>
      </trkpt>
      <trkpt lat="43.12582" lon="3.07924">
        <ele>46.354106903076</ele>
        <time>2021-01-03T19:48:33.029Z</time>
      </trkpt>
      <trkpt lat="43.1257" lon="3.07897">
        <ele>44.695137023926</ele>
        <time>2021-01-03T19:48:40.204Z</time>
      </trkpt>
      <trkpt lat="43.12559" lon="3.07847">
        <ele>43.027599334717</ele>
        <time>2021-01-03T19:48:47.386Z</time>
      </trkpt>
      <trkpt lat="43.12524" lon="3.07796">
        <ele>41.368381500244</ele>
        <time>2021-01-03T19:48:54.579Z</time>
      </trkpt>
      <trkpt lat="43.1251" lon="3.07748">
        <ele>40.398216247559</ele>
        <time>2021-01-03T19:49:01.779Z</time>
      </trkpt>
      <trkpt lat="43.12522" lon="3.07718">
        <ele>42.075408935547</ele>
        <time>2021-01-03T19:49:08.984Z</time>
      </trkpt>
      <trkpt lat="43.12498" lon="3.07672">
        <ele>35.456062316895</ele>
        <time>2021-01-03T19:49:16.198Z</time>
      </trkpt>
      <trkpt lat="43.12479" lon="3.07614">
        <ele>32.63606262207</ele>
        <time>2021-01-03T19:49:23.421Z</time>
      </trkpt>
      <trkpt lat="43.12453" lon="3.07545">
        <ele>31.357040405273</ele>
        <time>2021-01-03T19:49:30.655Z</time>
      </trkpt>
      <trkpt lat="43.12449" lon="3.07521">
        <ele>28.914052963257</ele>
        <time>2021-01-03T19:49:37.893Z</time>
      </trkpt>
      <trkpt lat="43.12438" lon="3.07519">
        <ele>28.312835693359</ele>
        <time>2021-01-03T19:49:45.133Z</time>
      </trkpt>
      <trkpt lat="43.12429" lon="3.07524">
        <ele>28.912565231323</ele>
        <time>2021-01-03T19:49:52.375Z</time>
      </trkpt>
      <trkpt lat="43.12406" lon="3.07527">
        <ele>29.733961105347</ele>
        <time>2021-01-03T19:49:59.622Z</time>
      </trkpt>
      <trkpt lat="43.12391" lon="3.07533">
        <ele>31.35112953186</ele>
        <time>2021-01-03T19:50:06.872Z</time>
      </trkpt>
      <trkpt lat="43.12362" lon="3.07568">
        <ele>36.539150238037</ele>
        <time>2021-01-03T19:50:14.129Z</time>
      </trkpt>
      <trkpt lat="43.12325" lon="3.0761">
        <ele>36.649562835693</ele>
        <time>2021-01-03T19:50:21.396Z</time>
      </trkpt>
      <trkpt lat="43.12324" lon="3.07658">
        <ele>42.743812561035</ele>
        <time>2021-01-03T19:50:28.670Z</time>
      </trkpt>
      <trkpt lat="43.12316" lon="3.07674">
        <ele>42.932266235352</ele>
        <time>2021-01-03T19:50:35.947Z</time>
      </trkpt>
      <trkpt lat="43.12311" lon="3.07701">
        <ele>44.301696777344</ele>
        <time>2021-01-03T19:50:43.228Z</time>
      </trkpt>
      <trkpt lat="43.12295" lon="3.07744">
        <ele>42.156154632568</ele>
        <time>2021-01-03T19:50:50.516Z</time>
      </trkpt>
      <trkpt lat="43.12299" lon="3.078">
        <ele>44.112167358398</ele>
        <time>2021-01-03T19:50:57.812Z</time>
      </trkpt>
      <trkpt lat="43.12297" lon="3.07801">
        <ele>43.678977966309</ele>
        <time>2021-01-03T19:51:05.109Z</time>
      </trkpt>
      <trkpt lat="43.1229" lon="3.07779">
        <ele>41.616348266602</ele>
        <time>2021-01-03T19:51:12.409Z</time>
      </trkpt>
      <trkpt lat="43.12282" lon="3.07774">
        <ele>39.135456085205</ele>
        <time>2021-01-03T19:51:19.711Z</time>
      </trkpt>
      <trkpt lat="43.12275" lon="3.07777">
        <ele>37.632099151611</ele>
        <time>2021-01-03T19:51:27.015Z</time>
      </trkpt>
      <trkpt lat="43.12258" lon="3.07776">
        <ele>35.748386383057</ele>
        <time>2021-01-03T19:51:34.322Z</time>
      </trkpt>
      <trkpt lat="43.12238" lon="3.07751">
        <ele>33.002285003662</ele>
        <time>2021-01-03T19:51:41.634Z</time>
      </trkpt>
      <trkpt lat="43.12232" lon="3.07722">
        <ele>30.366933822632</ele>
        <time>2021-01-03T19:51:48.951Z</time>
      </trkpt>
      <trkpt lat="43.12224" lon="3.07698">
        <ele>28.275503158569</ele>
        <time>2021-01-03T19:51:56.272Z</time>
      </trkpt>
      <trkpt lat="43.12209" lon="3.07638">
        <ele>24.653717041016</ele>
        <time>2021-01-03T19:52:03.602Z</time>
      </trkpt>
      <trkpt lat="43.12218" lon="3.07626">
        <ele>24.051527023315</ele>
        <time>2021-01-03T19:52:10.935Z</time>
      </trkpt>
      <trkpt lat="43.12212" lon="3.07607">
        <ele>21.828861236572</ele>
        <time>2021-01-03T19:52:18.271Z</time>
      </trkpt>
      <trkpt lat="43.12221" lon="3.07588">
        <ele>20.931579589844</ele>
        <time>2021-01-03T19:52:25.610Z</time>
      </trkpt>
      <trkpt lat="43.12226" lon="3.07574">
        <ele>20.596733093262</ele>
        <time>2021-01-03T19:52:32.951Z</time>
      </trkpt>
      <trkpt lat="43.12232" lon="3.07532">
        <ele>19</ele>
        <time>2021-01-03T19:52:40.299Z</time>
      </trkpt>
      <trkpt lat="43.1224" lon="3.07518">
        <ele>19.0230884552</ele>
        <time>2021-01-03T19:52:47.649Z</time>
      </trkpt>
      <trkpt lat="43.12243" lon="3.07508">
        <ele>18.697288513184</ele>
        <time>2021-01-03T19:52:55.001Z</time>
      </trkpt>
      <trkpt lat="43.12243" lon="3.07496">
        <ele>18.290645599365</ele>
        <time>2021-01-03T19:53:02.354Z</time>
      </trkpt>
      <trkpt lat="43.12233" lon="3.07482">
        <ele>18</ele>
        <time>2021-01-03T19:53:09.710Z</time>
      </trkpt>
      <trkpt lat="43.12216" lon="3.07463">
        <ele>18</ele>
        <time>2021-01-03T19:53:17.071Z</time>
      </trkpt>
      <trkpt lat="43.12205" lon="3.07461">
        <ele>18.257177352905</ele>
        <time>2021-01-03T19:53:24.434Z</time>
      </trkpt>
      <trkpt lat="43.12178" lon="3.07489">
        <ele>18.799819946289</ele>
        <time>2021-01-03T19:53:31.804Z</time>
      </trkpt>
      <trkpt lat="43.1216" lon="3.07488">
        <ele>18.141729354858</ele>
        <time>2021-01-03T19:53:39.177Z</time>
      </trkpt>
      <trkpt lat="43.12147" lon="3.07481">
        <ele>17.303970336914</ele>
        <time>2021-01-03T19:53:46.553Z</time>
      </trkpt>
      <trkpt lat="43.12124" lon="3.07462">
        <ele>15.655071258545</ele>
        <time>2021-01-03T19:53:53.934Z</time>
      </trkpt>
      <trkpt lat="43.12098" lon="3.07444">
        <ele>13.889961242676</ele>
        <time>2021-01-03T19:54:01.321Z</time>
      </trkpt>
      <trkpt lat="43.12081" lon="3.07441">
        <ele>13.307145118713</ele>
        <time>2021-01-03T19:54:08.712Z</time>
      </trkpt>
      <trkpt lat="43.12063" lon="3.0743">
        <ele>12.196873664856</ele>
        <time>2021-01-03T19:54:16.107Z</time>
      </trkpt>
      <trkpt lat="43.12064" lon="3.07405">
        <ele>11.337128639221</ele>
        <time>2021-01-03T19:54:23.505Z</time>
      </trkpt>
      <trkpt lat="43.1206" lon="3.07395">
        <ele>11.06011390686</ele>
        <time>2021-01-03T19:54:30.905Z</time>
      </trkpt>
      <trkpt lat="43.12053" lon="3.07386">
        <ele>10.536424636841</ele>
        <time>2021-01-03T19:54:38.307Z</time>
      </trkpt>
      <trkpt lat="43.12043" lon="3.07383">
        <ele>10</ele>
        <time>2021-01-03T19:54:45.711Z</time>
      </trkpt>
      <trkpt lat="43.12022" lon="3.07382">
        <ele>10</ele>
        <time>2021-01-03T19:54:53.119Z</time>
      </trkpt>
      <trkpt lat="43.12016" lon="3.0738">
        <ele>9.949031829834</ele>
        <time>2021-01-03T19:55:00.528Z</time>
      </trkpt>
      <trkpt lat="43.12012" lon="3.07375">
        <ele>9.9115581512451</ele>
        <time>2021-01-03T19:55:07.938Z</time>
      </trkpt>
      <trkpt lat="43.12005" lon="3.07349">
        <ele>10.056613922119</ele>
        <time>2021-01-03T19:55:15.352Z</time>
      </trkpt>
      <trkpt lat="43.12005" lon="3.07339">
        <ele>10.738376617432</ele>
        <time>2021-01-03T19:55:22.768Z</time>
      </trkpt>
      <trkpt lat="43.11965" lon="3.07316">
        <ele>12.38486289978</ele>
        <time>2021-01-03T19:55:30.192Z</time>
      </trkpt>
      <trkpt lat="43.11978" lon="3.07294">
        <ele>14.561337471008</ele>
        <time>2021-01-03T19:55:37.621Z</time>
      </trkpt>
      <trkpt lat="43.1201" lon="3.07247">
        <ele>20.759643554688</ele>
        <time>2021-01-03T19:55:45.059Z</time>
      </trkpt>
      <trkpt lat="43.12022" lon="3.07223">
        <ele>24.601093292236</ele>
        <time>2021-01-03T19:55:52.501Z</time>
      </trkpt>
      <trkpt lat="43.12026" lon="3.07195">
        <ele>29.424726486206</ele>
        <time>2021-01-03T19:55:59.947Z</time>
      </trkpt>
      <trkpt lat="43.12035" lon="3.07199">
        <ele>30.286279678345</ele>
        <time>2021-01-03T19:56:07.396Z</time>
      </trkpt>
      <trkpt lat="43.1206" lon="3.07217">
        <ele>31.366918563843</ele>
        <time>2021-01-03T19:56:14.850Z</time>
      </trkpt>
      <trkpt lat="43.12081" lon="3.07212">
        <ele>34.870292663574</ele>
        <time>2021-01-03T19:56:22.308Z</time>
      </trkpt>
      <trkpt lat="43.12116" lon="3.07181">
        <ele>37.367847442627</ele>
        <time>2021-01-03T19:56:29.775Z</time>
      </trkpt>
      <trkpt lat="43.12147" lon="3.07157">
        <ele>36.116577148438</ele>
        <time>2021-01-03T19:56:37.249Z</time>
      </trkpt>
      <trkpt lat="43.12166" lon="3.07117">
        <ele>37.008121490479</ele>
        <time>2021-01-03T19:56:44.730Z</time>
      </trkpt>
      <trkpt lat="43.12178" lon="3.07068">
        <ele>41.080284118652</ele>
        <time>2021-01-03T19:56:52.218Z</time>
      </trkpt>
      <trkpt lat="43.12222" lon="3.07034">
        <ele>41.614643096924</ele>
        <time>2021-01-03T19:56:59.716Z</time>
      </trkpt>
      <trkpt lat="43.12257" lon="3.07016">
        <ele>38.759231567383</ele>
        <time>2021-01-03T19:57:07.222Z</time>
      </trkpt>
      <trkpt lat="43.12296" lon="3.06988">
        <ele>37.883644104004</ele>
        <time>2021-01-03T19:57:14.737Z</time>
      </trkpt>
      <trkpt lat="43.12328" lon="3.06944">
        <ele>37.490661621094</ele>
        <time>2021-01-03T19:57:22.261Z</time>
      </trkpt>
      <trkpt lat="43.12321" lon="3.06916">
        <ele>40.24732208252</ele>
        <time>2021-01-03T19:57:29.789Z</time>
      </trkpt>
      <trkpt lat="43.12297" lon="3.0689">
        <ele>42.470043182373</ele>
        <time>2021-01-03T19:57:37.323Z</time>
      </trkpt>
      <trkpt lat="43.12289" lon="3.06845">
        <ele>44</ele>
        <time>2021-01-03T19:57:44.864Z</time>
      </trkpt>
      <trkpt lat="43.12275" lon="3.06833">
        <ele>44</ele>
        <time>2021-01-03T19:57:52.408Z</time>
      </trkpt>
      <trkpt lat="43.12263" lon="3.06786">
        <ele>41.587482452393</ele>
        <time>2021-01-03T19:57:59.959Z</time>
      </trkpt>
      <trkpt lat="43.12249" lon="3.0676">
        <ele>40.538974761963</ele>
        <time>2021-01-03T19:58:07.515Z</time>
      </trkpt>
      <trkpt lat="43.12195" lon="3.06686">
        <ele>40.55248260498</ele>
        <time>2021-01-03T19:58:15.087Z</time>
      </trkpt>
      <trkpt lat="43.12186" lon="3.06685">
        <ele>39.995693206787</ele>
        <time>2021-01-03T19:58:22.660Z</time>
      </trkpt>
      <trkpt lat="43.12174" lon="3.06687">
        <ele>39.822715759277</ele>
        <time>2021-01-03T19:58:30.236Z</time>
      </trkpt>
      <trkpt lat="43.12132" lon="3.06685">
        <ele>39.89571762085</ele>
        <time>2021-01-03T19:58:37.820Z</time>
      </trkpt>
      <trkpt lat="43.1212" lon="3.06687">
        <ele>39.84534072876</ele>
        <time>2021-01-03T19:58:45.407Z</time>
      </trkpt>
      <trkpt lat="43.12103" lon="3.06685">
        <ele>39.892398834229</ele>
        <time>2021-01-03T19:58:52.997Z</time>
      </trkpt>
      <trkpt lat="43.12076" lon="3.06679">
        <ele>41.780284881592</ele>
        <time>2021-01-03T19:59:00.593Z</time>
      </trkpt>
      <trkpt lat="43.11997" lon="3.06628">
        <ele>43.307258605957</ele>
        <time>2021-01-03T19:59:08.206Z</time>
      </trkpt>
      <trkpt lat="43.11978" lon="3.06613">
        <ele>42.582794189453</ele>
        <time>2021-01-03T19:59:15.823Z</time>
      </trkpt>
      <trkpt lat="43.11951" lon="3.06604">
        <ele>41.614147186279</ele>
        <time>2021-01-03T19:59:23.446Z</time>
      </trkpt>
      <trkpt lat="43.1194" lon="3.06602">
        <ele>41.224998474121</ele>
        <time>2021-01-03T19:59:31.071Z</time>
      </trkpt>
      <trkpt lat="43.11921" lon="3.06571">
        <ele>40.207813262939</ele>
        <time>2021-01-03T19:59:38.702Z</time>
      </trkpt>
      <trkpt lat="43.11922" lon="3.06543">
        <ele>42.471759796143</ele>
        <time>2021-01-03T19:59:46.337Z</time>
      </trkpt>
      <trkpt lat="43.11952" lon="3.06487">
        <ele>48.154697418213</ele>
        <time>2021-01-03T19:59:53.982Z</time>
      </trkpt>
      <trkpt lat="43.11967" lon="3.06445">
        <ele>49.620464324951</ele>
        <time>2021-01-03T20:00:01.634Z</time>
      </trkpt>
      <trkpt lat="43.11975" lon="3.06402">
        <ele>51.078819274902</ele>
        <time>2021-01-03T20:00:09.293Z</time>
      </trkpt>
      <trkpt lat="43.11976" lon="3.0638">
        <ele>51.373218536377</ele>
        <time>2021-01-03T20:00:16.955Z</time>
      </trkpt>
      <trkpt lat="43.11985" lon="3.06359">
        <ele>49.981044769287</ele>
        <time>2021-01-03T20:00:24.620Z</time>
      </trkpt>
      <trkpt lat="43.11982" lon="3.06338">
        <ele>50.832950592041</ele>
        <time>2021-01-03T20:00:32.289Z</time>
      </trkpt>
      <trkpt lat="43.11989" lon="3.06308">
        <ele>49.144828796387</ele>
        <time>2021-01-03T20:00:39.962Z</time>
      </trkpt>
      <trkpt lat="43.11983" lon="3.06293">
        <ele>50.268726348877</ele>
        <time>2021-01-03T20:00:47.638Z</time>
      </trkpt>
      <trkpt lat="43.11962" lon="3.06262">
        <ele>52.511672973633</ele>
        <time>2021-01-03T20:00:55.320Z</time>
      </trkpt>
      <trkpt lat="43.11954" lon="3.06258">
        <ele>52.420314788818</ele>
        <time>2021-01-03T20:01:03.004Z</time>
      </trkpt>
      <trkpt lat="43.11925" lon="3.06264">
        <ele>54.782806396484</ele>
        <time>2021-01-03T20:01:10.693Z</time>
      </trkpt>
      <trkpt lat="43.11917" lon="3.06299">
        <ele>57.982158660889</ele>
        <time>2021-01-03T20:01:18.388Z</time>
      </trkpt>
      <trkpt lat="43.11923" lon="3.06374">
        <ele>58.711563110352</ele>
        <time>2021-01-03T20:01:26.094Z</time>
      </trkpt>
      <trkpt lat="43.11921" lon="3.0641">
        <ele>58</ele>
        <time>2021-01-03T20:01:33.805Z</time>
      </trkpt>
      <trkpt lat="43.11922" lon="3.06458">
        <ele>55.95690536499</ele>
        <time>2021-01-03T20:01:41.523Z</time>
      </trkpt>
      <trkpt lat="43.11919" lon="3.0647">
        <ele>54.9416847229</ele>
        <time>2021-01-03T20:01:49.243Z</time>
      </trkpt>
      <trkpt lat="43.1191" lon="3.06485">
        <ele>54.805755615234</ele>
        <time>2021-01-03T20:01:56.966Z</time>
      </trkpt>
      <trkpt lat="43.11904" lon="3.0648">
        <ele>55.272369384766</ele>
        <time>2021-01-03T20:02:04.690Z</time>
      </trkpt>
      <trkpt lat="43.119" lon="3.06425">
        <ele>57.322883605957</ele>
        <time>2021-01-03T20:02:12.422Z</time>
      </trkpt>
      <trkpt lat="43.11889" lon="3.06391">
        <ele>56.64652633667</ele>
        <time>2021-01-03T20:02:20.160Z</time>
      </trkpt>
      <trkpt lat="43.11872" lon="3.06353">
        <ele>56.188301086426</ele>
        <time>2021-01-03T20:02:27.904Z</time>
      </trkpt>
      <trkpt lat="43.11866" lon="3.06317">
        <ele>56.817874908447</ele>
        <time>2021-01-03T20:02:35.654Z</time>
      </trkpt>
      <trkpt lat="43.11858" lon="3.06284">
        <ele>56.85567855835</ele>
        <time>2021-01-03T20:02:43.409Z</time>
      </trkpt>
      <trkpt lat="43.11848" lon="3.06262">
        <ele>56.962467193604</ele>
        <time>2021-01-03T20:02:51.168Z</time>
      </trkpt>
      <trkpt lat="43.11836" lon="3.0624">
        <ele>56.887657165527</ele>
        <time>2021-01-03T20:02:58.931Z</time>
      </trkpt>
      <trkpt lat="43.11823" lon="3.0623">
        <ele>56.625598907471</ele>
        <time>2021-01-03T20:03:06.697Z</time>
      </trkpt>
      <trkpt lat="43.11811" lon="3.06197">
        <ele>55.914916992188</ele>
        <time>2021-01-03T20:03:14.468Z</time>
      </trkpt>
      <trkpt lat="43.11808" lon="3.06192">
        <ele>55.25426864624</ele>
        <time>2021-01-03T20:03:22.240Z</time>
      </trkpt>
      <trkpt lat="43.11803" lon="3.06181">
        <ele>54.492565155029</ele>
        <time>2021-01-03T20:03:30.014Z</time>
      </trkpt>
      <trkpt lat="43.11796" lon="3.0618">
        <ele>53.237640380859</ele>
        <time>2021-01-03T20:03:37.789Z</time>
      </trkpt>
      <trkpt lat="43.11798" lon="3.0619">
        <ele>53.259353637695</ele>
        <time>2021-01-03T20:03:45.566Z</time>
      </trkpt>
      <trkpt lat="43.11796" lon="3.06204">
        <ele>52.404735565186</ele>
        <time>2021-01-03T20:03:53.345Z</time>
      </trkpt>
      <trkpt lat="43.11789" lon="3.06229">
        <ele>49.055492401123</ele>
        <time>2021-01-03T20:04:01.128Z</time>
      </trkpt>
      <trkpt lat="43.11777" lon="3.06249">
        <ele>43.560901641846</ele>
        <time>2021-01-03T20:04:08.914Z</time>
      </trkpt>
      <trkpt lat="43.11775" lon="3.06258">
        <ele>42.373851776123</ele>
        <time>2021-01-03T20:04:16.702Z</time>
      </trkpt>
      <trkpt lat="43.11765" lon="3.06257">
        <ele>39.817844390869</ele>
        <time>2021-01-03T20:04:24.492Z</time>
      </trkpt>
      <trkpt lat="43.11759" lon="3.0624">
        <ele>38.609375</ele>
        <time>2021-01-03T20:04:32.284Z</time>
      </trkpt>
      <trkpt lat="43.11757" lon="3.06232">
        <ele>38.775772094727</ele>
        <time>2021-01-03T20:04:40.078Z</time>
      </trkpt>
      <trkpt lat="43.11754" lon="3.06194">
        <ele>40.904102325439</ele>
        <time>2021-01-03T20:04:47.877Z</time>
      </trkpt>
      <trkpt lat="43.11743" lon="3.06154">
        <ele>38.914321899414</ele>
        <time>2021-01-03T20:04:55.683Z</time>
      </trkpt>
      <trkpt lat="43.1173" lon="3.0614">
        <ele>35.720294952393</ele>
        <time>2021-01-03T20:05:03.492Z</time>
      </trkpt>
      <trkpt lat="43.11724" lon="3.06154">
        <ele>33.70125579834</ele>
        <time>2021-01-03T20:05:11.303Z</time>
      </trkpt>
      <trkpt lat="43.11726" lon="3.06161">
        <ele>33.77335357666</ele>
        <time>2021-01-03T20:05:19.115Z</time>
      </trkpt>
      <trkpt lat="43.1171" lon="3.06179">
        <ele>28.754333496094</ele>
        <time>2021-01-03T20:05:26.931Z</time>
      </trkpt>
      <trkpt lat="43.1169" lon="3.06172">
        <ele>25.172431945801</ele>
        <time>2021-01-03T20:05:34.751Z</time>
      </trkpt>
      <trkpt lat="43.11677" lon="3.06192">
        <ele>22.683696746826</ele>
        <time>2021-01-03T20:05:42.575Z</time>
      </trkpt>
      <trkpt lat="43.11665" lon="3.06237">
        <ele>20.359687805176</ele>
        <time>2021-01-03T20:05:50.406Z</time>
      </trkpt>
      <trkpt lat="43.11658" lon="3.06249">
        <ele>18.938545227051</ele>
        <time>2021-01-03T20:05:58.240Z</time>
      </trkpt>
      <trkpt lat="43.11658" lon="3.0629">
        <ele>18.230768203735</ele>
        <time>2021-01-03T20:06:06.080Z</time>
      </trkpt>
      <trkpt lat="43.11654" lon="3.06301">
        <ele>17.725179672241</ele>
        <time>2021-01-03T20:06:13.921Z</time>
      </trkpt>
      <trkpt lat="43.1164" lon="3.06314">
        <ele>16.322221755981</ele>
        <time>2021-01-03T20:06:21.766Z</time>
      </trkpt>
      <trkpt lat="43.11638" lon="3.06326">
        <ele>16.838705062866</ele>
        <time>2021-01-03T20:06:29.613Z</time>
      </trkpt>
      <trkpt lat="43.11653" lon="3.06355">
        <ele>19.731117248535</ele>
        <time>2021-01-03T20:06:37.465Z</time>
      </trkpt>
      <trkpt lat="43.11661" lon="3.06375">
        <ele>21.615013122559</ele>
        <time>2021-01-03T20:06:45.320Z</time>
      </trkpt>
      <trkpt lat="43.11668" lon="3.06379">
        <ele>21.806871414185</ele>
        <time>2021-01-03T20:06:53.177Z</time>
      </trkpt>
      <trkpt lat="43.11708" lon="3.06439">
        <ele>25.131715774536</ele>
        <time>2021-01-03T20:07:01.046Z</time>
      </trkpt>
      <trkpt lat="43.11719" lon="3.06458">
        <ele>24.747093200684</ele>
        <time>2021-01-03T20:07:08.918Z</time>
      </trkpt>
      <trkpt lat="43.11707" lon="3.06513">
        <ele>24.92604637146</ele>
        <time>2021-01-03T20:07:16.798Z</time>
      </trkpt>
      <trkpt lat="43.11684" lon="3.06596">
        <ele>26.322347640991</ele>
        <time>2021-01-03T20:07:24.691Z</time>
      </trkpt>
      <trkpt lat="43.11665" lon="3.06649">
        <ele>23.553728103638</ele>
        <time>2021-01-03T20:07:32.593Z</time>
      </trkpt>
      <trkpt lat="43.11668" lon="3.06666">
        <ele>20.170747756958</ele>
        <time>2021-01-03T20:07:40.498Z</time>
      </trkpt>
      <trkpt lat="43.11653" lon="3.06686">
        <ele>18.106117248535</ele>
        <time>2021-01-03T20:07:48.407Z</time>
      </trkpt>
      <trkpt lat="43.11624" lon="3.06733">
        <ele>17.343204498291</ele>
        <time>2021-01-03T20:07:56.325Z</time>
      </trkpt>
      <trkpt lat="43.11607" lon="3.06761">
        <ele>14.963842391968</ele>
        <time>2021-01-03T20:08:04.248Z</time>
      </trkpt>
      <trkpt lat="43.11586" lon="3.06802">
        <ele>10.461757659912</ele>
        <time>2021-01-03T20:08:12.179Z</time>
      </trkpt>
      <trkpt lat="43.11565" lon="3.06849">
        <ele>8.5319929122925</ele>
        <time>2021-01-03T20:08:20.118Z</time>
      </trkpt>
      <trkpt lat="43.11558" lon="3.06882">
        <ele>6.8886313438416</ele>
        <time>2021-01-03T20:08:28.062Z</time>
      </trkpt>
      <trkpt lat="43.11537" lon="3.06905">
        <ele>9.0017919540405</ele>
        <time>2021-01-03T20:08:36.011Z</time>
      </trkpt>
      <trkpt lat="43.11533" lon="3.06937">
        <ele>8.5191287994385</ele>
        <time>2021-01-03T20:08:43.965Z</time>
      </trkpt>
      <trkpt lat="43.11518" lon="3.06954">
        <ele>10.277139663696</ele>
        <time>2021-01-03T20:08:51.923Z</time>
      </trkpt>
      <trkpt lat="43.11516" lon="3.06954">
        <ele>10.547695159912</ele>
        <time>2021-01-03T20:08:59.881Z</time>
      </trkpt>
      <trkpt lat="43.11509" lon="3.06961">
        <ele>10.798891067505</ele>
        <time>2021-01-03T20:09:07.841Z</time>
      </trkpt>
      <trkpt lat="43.11499" lon="3.06949">
        <ele>12.840950965881</ele>
        <time>2021-01-03T20:09:15.804Z</time>
      </trkpt>
      <trkpt lat="43.11475" lon="3.06938">
        <ele>15.127495765686</ele>
        <time>2021-01-03T20:09:23.772Z</time>
      </trkpt>
      <trkpt lat="43.11456" lon="3.06924">
        <ele>16.722211837769</ele>
        <time>2021-01-03T20:09:31.744Z</time>
      </trkpt>
      <trkpt lat="43.11455" lon="3.06921">
        <ele>17.047105789185</ele>
        <time>2021-01-03T20:09:39.717Z</time>
      </trkpt>
      <trkpt lat="43.11456" lon="3.06843">
        <ele>24.851301193237</ele>
        <time>2021-01-03T20:09:47.701Z</time>
      </trkpt>
      <trkpt lat="43.1147" lon="3.06821">
        <ele>26.127452850342</ele>
        <time>2021-01-03T20:09:55.689Z</time>
      </trkpt>
      <trkpt lat="43.11472" lon="3.06804">
        <ele>27.099416732788</ele>
        <time>2021-01-03T20:10:03.680Z</time>
      </trkpt>
      <trkpt lat="43.11486" lon="3.068">
        <ele>25.933784484863</ele>
        <time>2021-01-03T20:10:11.674Z</time>
      </trkpt>
      <trkpt lat="43.115" lon="3.06786">
        <ele>25.353382110596</ele>
        <time>2021-01-03T20:10:19.671Z</time>
      </trkpt>
      <trkpt lat="43.11509" lon="3.06784">
        <ele>24.534059524536</ele>
        <time>2021-01-03T20:10:27.670Z</time>
      </trkpt>
      <trkpt lat="43.11543" lon="3.0676">
        <ele>21.830900192261</ele>
        <time>2021-01-03T20:10:35.676Z</time>
      </trkpt>
      <trkpt lat="43.1157" lon="3.06715">
        <ele>24.493467330933</ele>
        <time>2021-01-03T20:10:43.691Z</time>
      </trkpt>
      <trkpt lat="43.11585" lon="3.0664">
        <ele>31.593278884888</ele>
        <time>2021-01-03T20:10:51.717Z</time>
      </trkpt>
      <trkpt lat="43.11579" lon="3.06601">
        <ele>35.383056640625</ele>
        <time>2021-01-03T20:10:59.749Z</time>
      </trkpt>
      <trkpt lat="43.1158" lon="3.06579">
        <ele>38.387519836426</ele>
        <time>2021-01-03T20:11:07.784Z</time>
      </trkpt>
      <trkpt lat="43.11579" lon="3.06564">
        <ele>40.298362731934</ele>
        <time>2021-01-03T20:11:15.822Z</time>
      </trkpt>
      <trkpt lat="43.11564" lon="3.06534">
        <ele>41.684379577637</ele>
        <time>2021-01-03T20:11:23.865Z</time>
      </trkpt>
      <trkpt lat="43.11564" lon="3.06531">
        <ele>41.811985015869</ele>
        <time>2021-01-03T20:11:31.908Z</time>
      </trkpt>
      <trkpt lat="43.11561" lon="3.06526">
        <ele>41.818923950195</ele>
        <time>2021-01-03T20:11:39.952Z</time>
      </trkpt>
      <trkpt lat="43.11555" lon="3.0652">
        <ele>41.617111206055</ele>
        <time>2021-01-03T20:11:47.998Z</time>
      </trkpt>
      <trkpt lat="43.11542" lon="3.06515">
        <ele>40.517517089844</ele>
        <time>2021-01-03T20:11:56.047Z</time>
      </trkpt>
      <trkpt lat="43.1154" lon="3.06512">
        <ele>39.87406539917</ele>
        <time>2021-01-03T20:12:04.096Z</time>
      </trkpt>
      <trkpt lat="43.11535" lon="3.06497">
        <ele>36.926704406738</ele>
        <time>2021-01-03T20:12:12.148Z</time>
      </trkpt>
      <trkpt lat="43.11529" lon="3.06491">
        <ele>35.215663909912</ele>
        <time>2021-01-03T20:12:20.201Z</time>
      </trkpt>
      <trkpt lat="43.11523" lon="3.06487">
        <ele>33.605758666992</ele>
        <time>2021-01-03T20:12:28.255Z</time>
      </trkpt>
      <trkpt lat="43.11513" lon="3.06475">
        <ele>30.521894454956</ele>
        <time>2021-01-03T20:12:36.312Z</time>
      </trkpt>
      <trkpt lat="43.11513" lon="3.06452">
        <ele>26.437578201294</ele>
        <time>2021-01-03T20:12:44.372Z</time>
      </trkpt>
      <trkpt lat="43.11509" lon="3.06441">
        <ele>24.725328445435</ele>
        <time>2021-01-03T20:12:52.434Z</time>
      </trkpt>
      <trkpt lat="43.11489" lon="3.06428">
        <ele>21.133146286011</ele>
        <time>2021-01-03T20:13:00.501Z</time>
      </trkpt>
      <trkpt lat="43.11488" lon="3.06422">
        <ele>20.049491882324</ele>
        <time>2021-01-03T20:13:08.568Z</time>
      </trkpt>
      <trkpt lat="43.1149" lon="3.06413">
        <ele>18.553913116455</ele>
        <time>2021-01-03T20:13:16.637Z</time>
      </trkpt>
      <trkpt lat="43.11505" lon="3.06378">
        <ele>15.383018493652</ele>
        <time>2021-01-03T20:13:24.712Z</time>
      </trkpt>
      <trkpt lat="43.11503" lon="3.0637">
        <ele>14.516630172729</ele>
        <time>2021-01-03T20:13:32.788Z</time>
      </trkpt>
      <trkpt lat="43.11499" lon="3.06362">
        <ele>13.301524162292</ele>
        <time>2021-01-03T20:13:40.865Z</time>
      </trkpt>
      <trkpt lat="43.11474" lon="3.06344">
        <ele>9.1078329086304</ele>
        <time>2021-01-03T20:13:48.948Z</time>
      </trkpt>
      <trkpt lat="43.11461" lon="3.06328">
        <ele>7.1518392562866</ele>
        <time>2021-01-03T20:13:57.035Z</time>
      </trkpt>
      <trkpt lat="43.11442" lon="3.06313">
        <ele>4.8911972045898</ele>
        <time>2021-01-03T20:14:05.126Z</time>
      </trkpt>
      <trkpt lat="43.11443" lon="3.06303">
        <ele>4.9789814949036</ele>
        <time>2021-01-03T20:14:13.218Z</time>
      </trkpt>
      <trkpt lat="43.11459" lon="3.06291">
        <ele>6.8047080039978</ele>
        <time>2021-01-03T20:14:21.314Z</time>
      </trkpt>
      <trkpt lat="43.1147" lon="3.06273">
        <ele>7.6116647720337</ele>
        <time>2021-01-03T20:14:29.413Z</time>
      </trkpt>
      <trkpt lat="43.11482" lon="3.06268">
        <ele>8.4846830368042</ele>
        <time>2021-01-03T20:14:37.515Z</time>
      </trkpt>
      <trkpt lat="43.11488" lon="3.06261">
        <ele>8.5201416015625</ele>
        <time>2021-01-03T20:14:45.619Z</time>
      </trkpt>
      <trkpt lat="43.1149" lon="3.06243">
        <ele>6.534245967865</ele>
        <time>2021-01-03T20:14:53.725Z</time>
      </trkpt>
      <trkpt lat="43.1149" lon="3.06223">
        <ele>4.972918510437</ele>
        <time>2021-01-03T20:15:01.834Z</time>
      </trkpt>
      <trkpt lat="43.11486" lon="3.062">
        <ele>3.5156836509705</ele>
        <time>2021-01-03T20:15:09.947Z</time>
      </trkpt>
      <trkpt lat="43.1149" lon="3.06159">
        <ele>2.1980121135712</ele>
        <time>2021-01-03T20:15:18.066Z</time>
      </trkpt>
      <trkpt lat="43.11484" lon="3.06144">
        <ele>1.8102159500122</ele>
        <time>2021-01-03T20:15:26.187Z</time>
      </trkpt>
      <trkpt lat="43.11475" lon="3.06128">
        <ele>1.4901496171951</ele>
        <time>2021-01-03T20:15:34.311Z</time>
      </trkpt>
      <trkpt lat="43.11477" lon="3.06083">
        <ele>3.1380054950714</ele>
        <time>2021-01-03T20:15:42.442Z</time>
      </trkpt>
      <trkpt lat="43.1148" lon="3.06062">
        <ele>4</ele>
        <time>2021-01-03T20:15:50.576Z</time>
      </trkpt>
      <trkpt lat="43.11485" lon="3.06043">
        <ele>4</ele>
        <time>2021-01-03T20:15:58.713Z</time>
      </trkpt>
      <trkpt lat="43.11509" lon="3.06066">
        <ele>5.3857736587524</ele>
        <time>2021-01-03T20:16:06.855Z</time>
      </trkpt>
      <trkpt lat="43.11522" lon="3.06085">
        <ele>6.9365768432617</ele>
        <time>2021-01-03T20:16:15.001Z</time>
      </trkpt>
      <trkpt lat="43.11535" lon="3.06097">
        <ele>9.167387008667</ele>
        <time>2021-01-03T20:16:23.150Z</time>
      </trkpt>
      <trkpt lat="43.11553" lon="3.06096">
        <ele>12.594360351562</ele>
        <time>2021-01-03T20:16:31.303Z</time>
      </trkpt>
      <trkpt lat="43.11575" lon="3.06087">
        <ele>17.13136100769</ele>
        <time>2021-01-03T20:16:39.461Z</time>
      </trkpt>
      <trkpt lat="43.11585" lon="3.06078">
        <ele>18.429891586304</ele>
        <time>2021-01-03T20:16:47.621Z</time>
      </trkpt>
      <trkpt lat="43.11597" lon="3.06072">
        <ele>18.876052856445</ele>
        <time>2021-01-03T20:16:55.784Z</time>
      </trkpt>
      <trkpt lat="43.11612" lon="3.06072">
        <ele>20.212902069092</ele>
        <time>2021-01-03T20:17:03.950Z</time>
      </trkpt>
      <trkpt lat="43.11623" lon="3.06065">
        <ele>21.995695114136</ele>
        <time>2021-01-03T20:17:12.118Z</time>
      </trkpt>
      <trkpt lat="43.11649" lon="3.0603">
        <ele>29.76868057251</ele>
        <time>2021-01-03T20:17:20.293Z</time>
      </trkpt>
      <trkpt lat="43.11664" lon="3.06017">
        <ele>33.73217010498</ele>
        <time>2021-01-03T20:17:28.472Z</time>
      </trkpt>
      <trkpt lat="43.11677" lon="3.06015">
        <ele>35.297271728516</ele>
        <time>2021-01-03T20:17:36.653Z</time>
      </trkpt>
      <trkpt lat="43.11705" lon="3.06002">
        <ele>39.838165283203</ele>
        <time>2021-01-03T20:17:44.841Z</time>
      </trkpt>
      <trkpt lat="43.11714" lon="3.05993">
        <ele>41.815498352051</ele>
        <time>2021-01-03T20:17:53.031Z</time>
      </trkpt>
      <trkpt lat="43.11729" lon="3.05981">
        <ele>43.892677307129</ele>
        <time>2021-01-03T20:18:01.224Z</time>
      </trkpt>
      <trkpt lat="43.11744" lon="3.05986">
        <ele>45.656940460205</ele>
        <time>2021-01-03T20:18:09.420Z</time>
      </trkpt>
      <trkpt lat="43.1176" lon="3.05998">
        <ele>48.303493499756</ele>
        <time>2021-01-03T20:18:17.620Z</time>
      </trkpt>
      <trkpt lat="43.11791" lon="3.06009">
        <ele>53.138877868652</ele>
        <time>2021-01-03T20:18:25.826Z</time>
      </trkpt>
      <trkpt lat="43.11813" lon="3.0602">
        <ele>55.316799163818</ele>
        <time>2021-01-03T20:18:34.037Z</time>
      </trkpt>
      <trkpt lat="43.11817" lon="3.06052">
        <ele>55.803802490234</ele>
        <time>2021-01-03T20:18:42.253Z</time>
      </trkpt>
      <trkpt lat="43.11823" lon="3.06082">
        <ele>55.619312286377</ele>
        <time>2021-01-03T20:18:50.473Z</time>
      </trkpt>
      <trkpt lat="43.11823" lon="3.06102">
        <ele>55.102382659912</ele>
        <time>2021-01-03T20:18:58.696Z</time>
      </trkpt>
      <trkpt lat="43.11831" lon="3.06142">
        <ele>56.547058105469</ele>
        <time>2021-01-03T20:19:06.925Z</time>
      </trkpt>
      <trkpt lat="43.11832" lon="3.06165">
        <ele>57.360645294189</ele>
        <time>2021-01-03T20:19:15.158Z</time>
      </trkpt>
      <trkpt lat="43.11841" lon="3.06199">
        <ele>58.595058441162</ele>
        <time>2021-01-03T20:19:23.396Z</time>
      </trkpt>
      <trkpt lat="43.11842" lon="3.06229">
        <ele>58.011455535889</ele>
        <time>2021-01-03T20:19:31.638Z</time>
      </trkpt>
      <trkpt lat="43.11837" lon="3.06258">
        <ele>56.082786560059</ele>
        <time>2021-01-03T20:19:39.885Z</time>
      </trkpt>
      <trkpt lat="43.11856" lon="3.06315">
        <ele>55.801868438721</ele>
        <time>2021-01-03T20:19:48.141Z</time>
      </trkpt>
      <trkpt lat="43.11862" lon="3.06351">
        <ele>55.195220947266</ele>
        <time>2021-01-03T20:19:56.402Z</time>
      </trkpt>
      <trkpt lat="43.1187" lon="3.06367">
        <ele>55.493564605713</ele>
        <time>2021-01-03T20:20:04.666Z</time>
      </trkpt>
      <trkpt lat="43.11888" lon="3.06414">
        <ele>56.0305519104</ele>
        <time>2021-01-03T20:20:12.938Z</time>
      </trkpt>
      <trkpt lat="43.11893" lon="3.06438">
        <ele>55.965591430664</ele>
        <time>2021-01-03T20:20:21.214Z</time>
      </trkpt>
      <trkpt lat="43.11896" lon="3.06476">
        <ele>54.756519317627</ele>
        <time>2021-01-03T20:20:29.495Z</time>
      </trkpt>
      <trkpt lat="43.11901" lon="3.06491">
        <ele>54.047962188721</ele>
        <time>2021-01-03T20:20:37.779Z</time>
      </trkpt>
      <trkpt lat="43.11909" lon="3.06499">
        <ele>52.154411315918</ele>
        <time>2021-01-03T20:20:46.065Z</time>
      </trkpt>
      <trkpt lat="43.11921" lon="3.06489">
        <ele>53.120944976807</ele>
        <time>2021-01-03T20:20:54.353Z</time>
      </trkpt>
      <trkpt lat="43.11927" lon="3.06471">
        <ele>54.35132598877</ele>
        <time>2021-01-03T20:21:02.644Z</time>
      </trkpt>
      <trkpt lat="43.11929" lon="3.06443">
        <ele>56.857776641846</ele>
        <time>2021-01-03T20:21:10.940Z</time>
      </trkpt>
      <trkpt lat="43.11928" lon="3.06411">
        <ele>58</ele>
        <time>2021-01-03T20:21:19.240Z</time>
      </trkpt>
      <trkpt lat="43.11932" lon="3.06355">
        <ele>59</ele>
        <time>2021-01-03T20:21:27.549Z</time>
      </trkpt>
      <trkpt lat="43.11928" lon="3.06341">
        <ele>59</ele>
        <time>2021-01-03T20:21:35.860Z</time>
      </trkpt>
      <trkpt lat="43.11926" lon="3.06318">
        <ele>58.878395080566</ele>
        <time>2021-01-03T20:21:44.174Z</time>
      </trkpt>
      <trkpt lat="43.11927" lon="3.06297">
        <ele>57.500400543213</ele>
        <time>2021-01-03T20:21:52.491Z</time>
      </trkpt>
      <trkpt lat="43.11929" lon="3.06283">
        <ele>56.361045837402</ele>
        <time>2021-01-03T20:22:00.810Z</time>
      </trkpt>
      <trkpt lat="43.11934" lon="3.06274">
        <ele>54.899478912354</ele>
        <time>2021-01-03T20:22:09.131Z</time>
      </trkpt>
      <trkpt lat="43.11949" lon="3.06271">
        <ele>53.825538635254</ele>
        <time>2021-01-03T20:22:17.455Z</time>
      </trkpt>
      <trkpt lat="43.11957" lon="3.06272">
        <ele>53.618900299072</ele>
        <time>2021-01-03T20:22:25.781Z</time>
      </trkpt>
      <trkpt lat="43.11971" lon="3.06286">
        <ele>52.549915313721</ele>
        <time>2021-01-03T20:22:34.110Z</time>
      </trkpt>
      <trkpt lat="43.11979" lon="3.06302">
        <ele>51.318622589111</ele>
        <time>2021-01-03T20:22:42.442Z</time>
      </trkpt>
      <trkpt lat="43.11976" lon="3.06339">
        <ele>52.27974319458</ele>
        <time>2021-01-03T20:22:50.779Z</time>
      </trkpt>
      <trkpt lat="43.1196" lon="3.06435">
        <ele>52.019023895264</ele>
        <time>2021-01-03T20:22:59.131Z</time>
      </trkpt>
      <trkpt lat="43.1194" lon="3.06492">
        <ele>50.139350891113</ele>
        <time>2021-01-03T20:23:07.492Z</time>
      </trkpt>
      <trkpt lat="43.11927" lon="3.06513">
        <ele>47.398666381836</ele>
        <time>2021-01-03T20:23:15.857Z</time>
      </trkpt>
      <trkpt lat="43.11915" lon="3.06539">
        <ele>43.595458984375</ele>
        <time>2021-01-03T20:23:24.226Z</time>
      </trkpt>
      <trkpt lat="43.11913" lon="3.06562">
        <ele>40.840103149414</ele>
        <time>2021-01-03T20:23:32.599Z</time>
      </trkpt>
      <trkpt lat="43.1192" lon="3.06586">
        <ele>40.017696380615</ele>
        <time>2021-01-03T20:23:40.976Z</time>
      </trkpt>
      <trkpt lat="43.11931" lon="3.06605">
        <ele>40.793579101562</ele>
        <time>2021-01-03T20:23:49.356Z</time>
      </trkpt>
      <trkpt lat="43.11946" lon="3.06616">
        <ele>41.430130004883</ele>
        <time>2021-01-03T20:23:57.740Z</time>
      </trkpt>
      <trkpt lat="43.11962" lon="3.06619">
        <ele>41.992736816406</ele>
        <time>2021-01-03T20:24:06.127Z</time>
      </trkpt>
      <trkpt lat="43.11986" lon="3.06634">
        <ele>43.11540222168</ele>
        <time>2021-01-03T20:24:14.519Z</time>
      </trkpt>
      <trkpt lat="43.1201" lon="3.06645">
        <ele>44.375453948975</ele>
        <time>2021-01-03T20:24:22.916Z</time>
      </trkpt>
      <trkpt lat="43.12036" lon="3.06667">
        <ele>44.318225860596</ele>
        <time>2021-01-03T20:24:31.319Z</time>
      </trkpt>
      <trkpt lat="43.12072" lon="3.0669">
        <ele>41.527679443359</ele>
        <time>2021-01-03T20:24:39.730Z</time>
      </trkpt>
      <trkpt lat="43.12094" lon="3.06696">
        <ele>40.034343719482</ele>
        <time>2021-01-03T20:24:48.146Z</time>
      </trkpt>
      <trkpt lat="43.12169" lon="3.06697">
        <ele>39.487564086914</ele>
        <time>2021-01-03T20:24:56.577Z</time>
      </trkpt>
      <trkpt lat="43.12191" lon="3.06699">
        <ele>39.649383544922</ele>
        <time>2021-01-03T20:25:05.012Z</time>
      </trkpt>
      <trkpt lat="43.12203" lon="3.06712">
        <ele>39.641540527344</ele>
        <time>2021-01-03T20:25:13.450Z</time>
      </trkpt>
      <trkpt lat="43.12221" lon="3.0674">
        <ele>39.590099334717</ele>
        <time>2021-01-03T20:25:21.894Z</time>
      </trkpt>
      <trkpt lat="43.12239" lon="3.06763">
        <ele>40.051643371582</ele>
        <time>2021-01-03T20:25:30.342Z</time>
      </trkpt>
      <trkpt lat="43.12252" lon="3.0679">
        <ele>41.343437194824</ele>
        <time>2021-01-03T20:25:38.795Z</time>
      </trkpt>
      <trkpt lat="43.12269" lon="3.06837">
        <ele>44</ele>
        <time>2021-01-03T20:25:47.256Z</time>
      </trkpt>
      <trkpt lat="43.1228" lon="3.06849">
        <ele>44</ele>
        <time>2021-01-03T20:25:55.720Z</time>
      </trkpt>
      <trkpt lat="43.12287" lon="3.06867">
        <ele>43.356231689453</ele>
        <time>2021-01-03T20:26:04.187Z</time>
      </trkpt>
      <trkpt lat="43.12292" lon="3.06892">
        <ele>42.700012207031</ele>
        <time>2021-01-03T20:26:12.658Z</time>
      </trkpt>
      <trkpt lat="43.12316" lon="3.0693">
        <ele>39.572956085205</ele>
        <time>2021-01-03T20:26:21.136Z</time>
      </trkpt>
      <trkpt lat="43.12319" lon="3.06943">
        <ele>38.584930419922</ele>
        <time>2021-01-03T20:26:29.616Z</time>
      </trkpt>
      <trkpt lat="43.12298" lon="3.06973">
        <ele>38.795276641846</ele>
        <time>2021-01-03T20:26:38.102Z</time>
      </trkpt>
      <trkpt lat="43.12269" lon="3.06996">
        <ele>39.379375457764</ele>
        <time>2021-01-03T20:26:46.595Z</time>
      </trkpt>
      <trkpt lat="43.12253" lon="3.07004">
        <ele>39.442371368408</ele>
        <time>2021-01-03T20:26:55.091Z</time>
      </trkpt>
      <trkpt lat="43.12237" lon="3.07016">
        <ele>40.259246826172</ele>
        <time>2021-01-03T20:27:03.591Z</time>
      </trkpt>
      <trkpt lat="43.12219" lon="3.07023">
        <ele>42.213130950928</ele>
        <time>2021-01-03T20:27:12.094Z</time>
      </trkpt>
      <trkpt lat="43.12203" lon="3.07032">
        <ele>42.737277984619</ele>
        <time>2021-01-03T20:27:20.601Z</time>
      </trkpt>
      <trkpt lat="43.12187" lon="3.07048">
        <ele>41.598087310791</ele>
        <time>2021-01-03T20:27:29.112Z</time>
      </trkpt>
      <trkpt lat="43.12171" lon="3.07062">
        <ele>41.111656188965</ele>
        <time>2021-01-03T20:27:37.627Z</time>
      </trkpt>
      <trkpt lat="43.12157" lon="3.07111">
        <ele>38.674217224121</ele>
        <time>2021-01-03T20:27:46.149Z</time>
      </trkpt>
      <trkpt lat="43.12147" lon="3.07138">
        <ele>37.198978424072</ele>
        <time>2021-01-03T20:27:54.676Z</time>
      </trkpt>
      <trkpt lat="43.12134" lon="3.07152">
        <ele>38.260650634766</ele>
        <time>2021-01-03T20:28:03.206Z</time>
      </trkpt>
      <trkpt lat="43.12107" lon="3.07173">
        <ele>38.667419433594</ele>
        <time>2021-01-03T20:28:11.742Z</time>
      </trkpt>
      <trkpt lat="43.12086" lon="3.07183">
        <ele>37.875717163086</ele>
        <time>2021-01-03T20:28:20.283Z</time>
      </trkpt>
      <trkpt lat="43.12069" lon="3.07194">
        <ele>35.701309204102</ele>
        <time>2021-01-03T20:28:28.828Z</time>
      </trkpt>
      <trkpt lat="43.12058" lon="3.07191">
        <ele>34.818035125732</ele>
        <time>2021-01-03T20:28:37.375Z</time>
      </trkpt>
      <trkpt lat="43.12048" lon="3.07183">
        <ele>34.264175415039</ele>
        <time>2021-01-03T20:28:45.924Z</time>
      </trkpt>
      <trkpt lat="43.12022" lon="3.07173">
        <ele>31.715505599976</ele>
        <time>2021-01-03T20:28:54.479Z</time>
      </trkpt>
      <trkpt lat="43.12015" lon="3.07186">
        <ele>29.155641555786</ele>
        <time>2021-01-03T20:29:03.036Z</time>
      </trkpt>
      <trkpt lat="43.12009" lon="3.07221">
        <ele>23.830627441406</ele>
        <time>2021-01-03T20:29:11.598Z</time>
      </trkpt>
      <trkpt lat="43.11984" lon="3.07252">
        <ele>19.103197097778</ele>
        <time>2021-01-03T20:29:20.167Z</time>
      </trkpt>
      <trkpt lat="43.11966" lon="3.07279">
        <ele>15.768901824951</ele>
        <time>2021-01-03T20:29:28.741Z</time>
      </trkpt>
      <trkpt lat="43.11957" lon="3.07302">
        <ele>13.385182380676</ele>
        <time>2021-01-03T20:29:37.319Z</time>
      </trkpt>
      <trkpt lat="43.11951" lon="3.07324">
        <ele>11.459030151367</ele>
        <time>2021-01-03T20:29:45.900Z</time>
      </trkpt>
      <trkpt lat="43.11967" lon="3.07337">
        <ele>10.860852241516</ele>
        <time>2021-01-03T20:29:54.485Z</time>
      </trkpt>
      <trkpt lat="43.11986" lon="3.07346">
        <ele>10.206239700317</ele>
        <time>2021-01-03T20:30:03.074Z</time>
      </trkpt>
      <trkpt lat="43.11998" lon="3.07355">
        <ele>10</ele>
        <time>2021-01-03T20:30:11.666Z</time>
      </trkpt>
      <trkpt lat="43.12003" lon="3.07381">
        <ele>9.4917087554932</ele>
        <time>2021-01-03T20:30:20.262Z</time>
      </trkpt>
      <trkpt lat="43.12017" lon="3.07394">
        <ele>9.9764833450317</ele>
        <time>2021-01-03T20:30:28.861Z</time>
      </trkpt>
      <trkpt lat="43.12041" lon="3.07397">
        <ele>10</ele>
        <time>2021-01-03T20:30:37.465Z</time>
      </trkpt>
      <trkpt lat="43.1205" lon="3.07404">
        <ele>10.37774848938</ele>
        <time>2021-01-03T20:30:46.071Z</time>
      </trkpt>
      <trkpt lat="43.12053" lon="3.07421">
        <ele>11.135013580322</ele>
        <time>2021-01-03T20:30:54.680Z</time>
      </trkpt>
      <trkpt lat="43.12052" lon="3.07442">
        <ele>11.588081359863</ele>
        <time>2021-01-03T20:31:03.292Z</time>
      </trkpt>
      <trkpt lat="43.12069" lon="3.07452">
        <ele>12.693006515503</ele>
        <time>2021-01-03T20:31:11.907Z</time>
      </trkpt>
      <trkpt lat="43.12091" lon="3.07459">
        <ele>13.651345252991</ele>
        <time>2021-01-03T20:31:20.527Z</time>
      </trkpt>
      <trkpt lat="43.12117" lon="3.07474">
        <ele>15.20378112793</ele>
        <time>2021-01-03T20:31:29.153Z</time>
      </trkpt>
      <trkpt lat="43.12125" lon="3.07481">
        <ele>15.766687393188</ele>
        <time>2021-01-03T20:31:37.781Z</time>
      </trkpt>
      <trkpt lat="43.12153" lon="3.07502">
        <ele>17.754657745361</ele>
        <time>2021-01-03T20:31:46.415Z</time>
      </trkpt>
      <trkpt lat="43.12162" lon="3.07503">
        <ele>18.197395324707</ele>
        <time>2021-01-03T20:31:55.051Z</time>
      </trkpt>
      <trkpt lat="43.12171" lon="3.07502">
        <ele>18.527114868164</ele>
        <time>2021-01-03T20:32:03.689Z</time>
      </trkpt>
      <trkpt lat="43.12184" lon="3.07497">
        <ele>18.982929229736</ele>
        <time>2021-01-03T20:32:12.329Z</time>
      </trkpt>
      <trkpt lat="43.12193" lon="3.07491">
        <ele>18.768941879272</ele>
        <time>2021-01-03T20:32:20.971Z</time>
      </trkpt>
      <trkpt lat="43.12204" lon="3.07477">
        <ele>18.270147323608</ele>
        <time>2021-01-03T20:32:29.616Z</time>
      </trkpt>
      <trkpt lat="43.12211" lon="3.07476">
        <ele>18.02760887146</ele>
        <time>2021-01-03T20:32:38.263Z</time>
      </trkpt>
      <trkpt lat="43.12219" lon="3.07482">
        <ele>18</ele>
        <time>2021-01-03T20:32:46.912Z</time>
      </trkpt>
      <trkpt lat="43.12226" lon="3.07491">
        <ele>18.10994720459</ele>
        <time>2021-01-03T20:32:55.562Z</time>
      </trkpt>
      <trkpt lat="43.12233" lon="3.07497">
        <ele>18.306331634521</ele>
        <time>2021-01-03T20:33:04.214Z</time>
      </trkpt>
      <trkpt lat="43.12236" lon="3.07503">
        <ele>18.516592025757</ele>
        <time>2021-01-03T20:33:12.867Z</time>
      </trkpt>
      <trkpt lat="43.12226" lon="3.07529">
        <ele>19</ele>
        <time>2021-01-03T20:33:21.525Z</time>
      </trkpt>
      <trkpt lat="43.12224" lon="3.07545">
        <ele>19.090858459473</ele>
        <time>2021-01-03T20:33:30.185Z</time>
      </trkpt>
      <trkpt lat="43.12217" lon="3.0757">
        <ele>20.148458480835</ele>
        <time>2021-01-03T20:33:38.849Z</time>
      </trkpt>
      <trkpt lat="43.12214" lon="3.07582">
        <ele>20.433229446411</ele>
        <time>2021-01-03T20:33:47.515Z</time>
      </trkpt>
      <trkpt lat="43.12209" lon="3.07587">
        <ele>20.560388565063</ele>
        <time>2021-01-03T20:33:56.182Z</time>
      </trkpt>
      <trkpt lat="43.12204" lon="3.07606">
        <ele>21.701114654541</ele>
        <time>2021-01-03T20:34:04.852Z</time>
      </trkpt>
      <trkpt lat="43.1221" lon="3.07624">
        <ele>23.678525924683</ele>
        <time>2021-01-03T20:34:13.525Z</time>
      </trkpt>
      <trkpt lat="43.122" lon="3.07634">
        <ele>24.043449401855</ele>
        <time>2021-01-03T20:34:22.200Z</time>
      </trkpt>
      <trkpt lat="43.12196" lon="3.07644">
        <ele>24.782638549805</ele>
        <time>2021-01-03T20:34:30.877Z</time>
      </trkpt>
      <trkpt lat="43.12205" lon="3.07672">
        <ele>27.207769393921</ele>
        <time>2021-01-03T20:34:39.558Z</time>
      </trkpt>
      <trkpt lat="43.12211" lon="3.07702">
        <ele>30.110816955566</ele>
        <time>2021-01-03T20:34:48.244Z</time>
      </trkpt>
      <trkpt lat="43.12219" lon="3.07717">
        <ele>31.209180831909</ele>
        <time>2021-01-03T20:34:56.933Z</time>
      </trkpt>
      <trkpt lat="43.12223" lon="3.07745">
        <ele>33.071063995361</ele>
        <time>2021-01-03T20:35:05.626Z</time>
      </trkpt>
      <trkpt lat="43.1223" lon="3.0777">
        <ele>35.271598815918</ele>
        <time>2021-01-03T20:35:14.323Z</time>
      </trkpt>
      <trkpt lat="43.12248" lon="3.07787">
        <ele>37.007095336914</ele>
        <time>2021-01-03T20:35:23.024Z</time>
      </trkpt>
      <trkpt lat="43.12264" lon="3.07792">
        <ele>37.755226135254</ele>
        <time>2021-01-03T20:35:31.728Z</time>
      </trkpt>
      <trkpt lat="43.1228" lon="3.07792">
        <ele>40.049640655518</ele>
        <time>2021-01-03T20:35:40.436Z</time>
      </trkpt>
      <trkpt lat="43.12299" lon="3.07824">
        <ele>44.772384643555</ele>
        <time>2021-01-03T20:35:49.150Z</time>
      </trkpt>
      <trkpt lat="43.12318" lon="3.07868">
        <ele>47.796962738037</ele>
        <time>2021-01-03T20:35:57.871Z</time>
      </trkpt>
      <trkpt lat="43.1232" lon="3.07883">
        <ele>47.271396636963</ele>
        <time>2021-01-03T20:36:06.594Z</time>
      </trkpt>
      <trkpt lat="43.12326" lon="3.07907">
        <ele>45.316356658936</ele>
        <time>2021-01-03T20:36:15.321Z</time>
      </trkpt>
      <trkpt lat="43.12327" lon="3.07927">
        <ele>44.511016845703</ele>
        <time>2021-01-03T20:36:24.051Z</time>
      </trkpt>
      <trkpt lat="43.12331" lon="3.07946">
        <ele>42.712383270264</ele>
        <time>2021-01-03T20:36:32.784Z</time>
      </trkpt>
      <trkpt lat="43.12333" lon="3.07962">
        <ele>40.479457855225</ele>
        <time>2021-01-03T20:36:41.519Z</time>
      </trkpt>
      <trkpt lat="43.12353" lon="3.07989">
        <ele>38.388599395752</ele>
        <time>2021-01-03T20:36:50.260Z</time>
      </trkpt>
      <trkpt lat="43.12362" lon="3.08009">
        <ele>37.756912231445</ele>
        <time>2021-01-03T20:36:59.005Z</time>
      </trkpt>
      <trkpt lat="43.1237" lon="3.08047">
        <ele>35.661113739014</ele>
        <time>2021-01-03T20:37:07.755Z</time>
      </trkpt>
      <trkpt lat="43.12374" lon="3.08082">
        <ele>35.037574768066</ele>
        <time>2021-01-03T20:37:16.510Z</time>
      </trkpt>
      <trkpt lat="43.12376" lon="3.08111">
        <ele>34.791152954102</ele>
        <time>2021-01-03T20:37:25.270Z</time>
      </trkpt>
      <trkpt lat="43.12383" lon="3.08143">
        <ele>35.173713684082</ele>
        <time>2021-01-03T20:37:34.035Z</time>
      </trkpt>
      <trkpt lat="43.12396" lon="3.08179">
        <ele>35.87028503418</ele>
        <time>2021-01-03T20:37:42.806Z</time>
      </trkpt>
      <trkpt lat="43.12405" lon="3.08198">
        <ele>36.543601989746</ele>
        <time>2021-01-03T20:37:51.580Z</time>
      </trkpt>
      <trkpt lat="43.12416" lon="3.08214">
        <ele>37.350505828857</ele>
        <time>2021-01-03T20:38:00.357Z</time>
      </trkpt>
      <trkpt lat="43.12428" lon="3.08227">
        <ele>37.764389038086</ele>
        <time>2021-01-03T20:38:09.137Z</time>
      </trkpt>
      <trkpt lat="43.12464" lon="3.08283">
        <ele>39.241165161133</ele>
        <time>2021-01-03T20:38:17.928Z</time>
      </trkpt>
      <trkpt lat="43.1247" lon="3.08293">
        <ele>39.913875579834</ele>
        <time>2021-01-03T20:38:26.721Z</time>
      </trkpt>
      <trkpt lat="43.12472" lon="3.08303">
        <ele>41.007488250732</ele>
        <time>2021-01-03T20:38:35.515Z</time>
      </trkpt>
      <trkpt lat="43.12472" lon="3.08315">
        <ele>42.311584472656</ele>
        <time>2021-01-03T20:38:44.311Z</time>
      </trkpt>
      <trkpt lat="43.12461" lon="3.08326">
        <ele>43.524871826172</ele>
        <time>2021-01-03T20:38:53.110Z</time>
      </trkpt>
      <trkpt lat="43.12447" lon="3.08326">
        <ele>44.038906097412</ele>
        <time>2021-01-03T20:39:01.912Z</time>
      </trkpt>
      <trkpt lat="43.12431" lon="3.08323">
        <ele>44.176372528076</ele>
        <time>2021-01-03T20:39:10.717Z</time>
      </trkpt>
      <trkpt lat="43.12425" lon="3.08325">
        <ele>44.539276123047</ele>
        <time>2021-01-03T20:39:19.523Z</time>
      </trkpt>
      <trkpt lat="43.12427" lon="3.08333">
        <ele>45.022842407227</ele>
        <time>2021-01-03T20:39:28.330Z</time>
      </trkpt>
      <trkpt lat="43.12433" lon="3.08341">
        <ele>45.408069610596</ele>
        <time>2021-01-03T20:39:37.139Z</time>
      </trkpt>
      <trkpt lat="43.1246" lon="3.08366">
        <ele>47.742454528809</ele>
        <time>2021-01-03T20:39:45.955Z</time>
      </trkpt>
      <trkpt lat="43.12467" lon="3.08382">
        <ele>49.37414932251</ele>
        <time>2021-01-03T20:39:54.774Z</time>
      </trkpt>
      <trkpt lat="43.12482" lon="3.08412">
        <ele>51.514461517334</ele>
        <time>2021-01-03T20:40:03.598Z</time>
      </trkpt>
      <trkpt lat="43.12485" lon="3.08432">
        <ele>52.141624450684</ele>
        <time>2021-01-03T20:40:12.425Z</time>
      </trkpt>
      <trkpt lat="43.12483" lon="3.085">
        <ele>55.405944824219</ele>
        <time>2021-01-03T20:40:21.262Z</time>
      </trkpt>
      <trkpt lat="43.12476" lon="3.08569">
        <ele>56.508010864258</ele>
        <time>2021-01-03T20:40:30.109Z</time>
      </trkpt>
      <trkpt lat="43.1248" lon="3.08586">
        <ele>56.643760681152</ele>
        <time>2021-01-03T20:40:38.959Z</time>
      </trkpt>
      <trkpt lat="43.1248" lon="3.08609">
        <ele>56.310745239258</ele>
        <time>2021-01-03T20:40:47.812Z</time>
      </trkpt>
      <trkpt lat="43.12478" lon="3.08637">
        <ele>55.575885772705</ele>
        <time>2021-01-03T20:40:56.669Z</time>
      </trkpt>
      <trkpt lat="43.12472" lon="3.08667">
        <ele>53.212970733643</ele>
        <time>2021-01-03T20:41:05.531Z</time>
      </trkpt>
      <trkpt lat="43.1246" lon="3.08665">
        <ele>52.126968383789</ele>
        <time>2021-01-03T20:41:14.395Z</time>
      </trkpt>
      <trkpt lat="43.12445" lon="3.08665">
        <ele>51.098896026611</ele>
        <time>2021-01-03T20:41:23.262Z</time>
      </trkpt>
      <trkpt lat="43.12406" lon="3.08656">
        <ele>49.973766326904</ele>
        <time>2021-01-03T20:41:32.137Z</time>
      </trkpt>
      <trkpt lat="43.12392" lon="3.08658">
        <ele>50.398208618164</ele>
        <time>2021-01-03T20:41:41.015Z</time>
      </trkpt>
      <trkpt lat="43.12374" lon="3.08663">
        <ele>50.702842712402</ele>
        <time>2021-01-03T20:41:49.896Z</time>
      </trkpt>
      <trkpt lat="43.12357" lon="3.08659">
        <ele>50.852470397949</ele>
        <time>2021-01-03T20:41:58.781Z</time>
      </trkpt>
      <trkpt lat="43.12346" lon="3.08661">
        <ele>51.177745819092</ele>
        <time>2021-01-03T20:42:07.668Z</time>
      </trkpt>
      <trkpt lat="43.12336" lon="3.08671">
        <ele>51.670463562012</ele>
        <time>2021-01-03T20:42:16.558Z</time>
      </trkpt>
      <trkpt lat="43.12327" lon="3.08676">
        <ele>52.459617614746</ele>
        <time>2021-01-03T20:42:25.449Z</time>
      </trkpt>
      <trkpt lat="43.1232" lon="3.08692">
        <ele>54.434638977051</ele>
        <time>2021-01-03T20:42:34.343Z</time>
      </trkpt>
      <trkpt lat="43.12343" lon="3.08817">
        <ele>62.805961608887</ele>
        <time>2021-01-03T20:42:43.256Z</time>
      </trkpt>
      <trkpt lat="43.12346" lon="3.08851">
        <ele>65.512939453125</ele>
        <time>2021-01-03T20:42:52.174Z</time>
      </trkpt>
      <trkpt lat="43.12355" lon="3.08858">
        <ele>66.029624938965</ele>
        <time>2021-01-03T20:43:01.094Z</time>
      </trkpt>
      <trkpt lat="43.12366" lon="3.08858">
        <ele>65.347473144531</ele>
        <time>2021-01-03T20:43:10.016Z</time>
      </trkpt>
      <trkpt lat="43.12378" lon="3.0886">
        <ele>64.969482421875</ele>
        <time>2021-01-03T20:43:18.941Z</time>
      </trkpt>
      <trkpt lat="43.12393" lon="3.08861">
        <ele>63.976406097412</ele>
        <time>2021-01-03T20:43:27.869Z</time>
      </trkpt>
      <trkpt lat="43.12421" lon="3.08875">
        <ele>62.931526184082</ele>
        <time>2021-01-03T20:43:36.803Z</time>
      </trkpt>
      <trkpt lat="43.12446" lon="3.08896">
        <ele>59.521511077881</ele>
        <time>2021-01-03T20:43:45.743Z</time>
      </trkpt>
      <trkpt lat="43.12467" lon="3.08928">
        <ele>55.570251464844</ele>
        <time>2021-01-03T20:43:54.689Z</time>
      </trkpt>
      <trkpt lat="43.12478" lon="3.08978">
        <ele>53.433963775635</ele>
        <time>2021-01-03T20:44:03.643Z</time>
      </trkpt>
      <trkpt lat="43.12475" lon="3.0899">
        <ele>55.765960693359</ele>
        <time>2021-01-03T20:44:12.598Z</time>
      </trkpt>
      <trkpt lat="43.12484" lon="3.09021">
        <ele>53.863021850586</ele>
        <time>2021-01-03T20:44:21.558Z</time>
      </trkpt>
      <trkpt lat="43.12489" lon="3.09058">
        <ele>51.522624969482</ele>
        <time>2021-01-03T20:44:30.524Z</time>
      </trkpt>
      <trkpt lat="43.12485" lon="3.09079">
        <ele>52.894626617432</ele>
        <time>2021-01-03T20:44:39.493Z</time>
      </trkpt>
      <trkpt lat="43.1249" lon="3.09101">
        <ele>46.837104797363</ele>
        <time>2021-01-03T20:44:48.465Z</time>
      </trkpt>
      <trkpt lat="43.12488" lon="3.09128">
        <ele>47.956726074219</ele>
        <time>2021-01-03T20:44:57.441Z</time>
      </trkpt>
      <trkpt lat="43.12484" lon="3.09164">
        <ele>51.172718048096</ele>
        <time>2021-01-03T20:45:06.423Z</time>
      </trkpt>
      <trkpt lat="43.1248" lon="3.09181">
        <ele>51.188926696777</ele>
        <time>2021-01-03T20:45:15.407Z</time>
      </trkpt>
      <trkpt lat="43.12484" lon="3.09219">
        <ele>42.463291168213</ele>
        <time>2021-01-03T20:45:24.397Z</time>
      </trkpt>
      <trkpt lat="43.12498" lon="3.09232">
        <ele>35.909954071045</ele>
        <time>2021-01-03T20:45:33.390Z</time>
      </trkpt>
      <trkpt lat="43.12494" lon="3.09224">
        <ele>38.508796691895</ele>
        <time>2021-01-03T20:45:42.385Z</time>
      </trkpt>
      <trkpt lat="43.12502" lon="3.09151">
        <ele>43.104007720947</ele>
        <time>2021-01-03T20:45:51.390Z</time>
      </trkpt>
      <trkpt lat="43.12509" lon="3.09102">
        <ele>38.549152374268</ele>
        <time>2021-01-03T20:46:00.403Z</time>
      </trkpt>
      <trkpt lat="43.12515" lon="3.09086">
        <ele>37.033763885498</ele>
        <time>2021-01-03T20:46:09.418Z</time>
      </trkpt>
      <trkpt lat="43.12516" lon="3.09061">
        <ele>38.218193054199</ele>
        <time>2021-01-03T20:46:18.437Z</time>
      </trkpt>
      <trkpt lat="43.12519" lon="3.09042">
        <ele>38.694446563721</ele>
        <time>2021-01-03T20:46:27.459Z</time>
      </trkpt>
      <trkpt lat="43.12526" lon="3.09041">
        <ele>37.06787109375</ele>
        <time>2021-01-03T20:46:36.482Z</time>
      </trkpt>
      <trkpt lat="43.12524" lon="3.09051">
        <ele>37.225891113281</ele>
        <time>2021-01-03T20:46:45.507Z</time>
      </trkpt>
      <trkpt lat="43.12524" lon="3.091">
        <ele>34.022411346436</ele>
        <time>2021-01-03T20:46:54.539Z</time>
      </trkpt>
      <trkpt lat="43.1253" lon="3.09163">
        <ele>32.158489227295</ele>
        <time>2021-01-03T20:47:03.580Z</time>
      </trkpt>
      <trkpt lat="43.12535" lon="3.09168">
        <ele>30.580780029297</ele>
        <time>2021-01-03T20:47:12.622Z</time>
      </trkpt>
      <trkpt lat="43.12554" lon="3.09198">
        <ele>25.581676483154</ele>
        <time>2021-01-03T20:47:21.670Z</time>
      </trkpt>
      <trkpt lat="43.1254" lon="3.09251">
        <ele>24.089670181274</ele>
        <time>2021-01-03T20:47:30.726Z</time>
      </trkpt>
      <trkpt lat="43.12533" lon="3.09265">
        <ele>23.824447631836</ele>
        <time>2021-01-03T20:47:39.785Z</time>
      </trkpt>
      <trkpt lat="43.12527" lon="3.09292">
        <ele>22.06304359436</ele>
        <time>2021-01-03T20:47:48.848Z</time>
      </trkpt>
      <trkpt lat="43.12516" lon="3.09315">
        <ele>20.813554763794</ele>
        <time>2021-01-03T20:47:57.915Z</time>
      </trkpt>
      <trkpt lat="43.12504" lon="3.09354">
        <ele>19.305362701416</ele>
        <time>2021-01-03T20:48:06.988Z</time>
      </trkpt>
      <trkpt lat="43.1251" lon="3.09362">
        <ele>18.82360458374</ele>
        <time>2021-01-03T20:48:16.063Z</time>
      </trkpt>
      <trkpt lat="43.12519" lon="3.09371">
        <ele>18.247169494629</ele>
        <time>2021-01-03T20:48:25.140Z</time>
      </trkpt>
      <trkpt lat="43.12511" lon="3.0941">
        <ele>18</ele>
        <time>2021-01-03T20:48:34.223Z</time>
      </trkpt>
      <trkpt lat="43.12496" lon="3.09466">
        <ele>18.242866516113</ele>
        <time>2021-01-03T20:48:43.315Z</time>
      </trkpt>
      <trkpt lat="43.12489" lon="3.09486">
        <ele>18.874504089355</ele>
        <time>2021-01-03T20:48:52.410Z</time>
      </trkpt>
      <trkpt lat="43.12484" lon="3.0951">
        <ele>18.790067672729</ele>
        <time>2021-01-03T20:49:01.509Z</time>
      </trkpt>
      <trkpt lat="43.12494" lon="3.09514">
        <ele>19.162021636963</ele>
        <time>2021-01-03T20:49:10.610Z</time>
      </trkpt>
      <trkpt lat="43.12543" lon="3.09523">
        <ele>20</ele>
        <time>2021-01-03T20:49:19.721Z</time>
      </trkpt>
      <trkpt lat="43.12578" lon="3.09531">
        <ele>21.864120483398</ele>
        <time>2021-01-03T20:49:28.839Z</time>
      </trkpt>
      <trkpt lat="43.12645" lon="3.0954">
        <ele>29.439613342285</ele>
        <time>2021-01-03T20:49:37.970Z</time>
      </trkpt>
      <trkpt lat="43.12664" lon="3.09536">
        <ele>30.718236923218</ele>
        <time>2021-01-03T20:49:47.105Z</time>
      </trkpt>
      <trkpt lat="43.1268" lon="3.09549">
        <ele>33.220245361328</ele>
        <time>2021-01-03T20:49:56.244Z</time>
      </trkpt>
      <trkpt lat="43.12701" lon="3.09597">
        <ele>38.392707824707</ele>
        <time>2021-01-03T20:50:05.391Z</time>
      </trkpt>
      <trkpt lat="43.12712" lon="3.09614">
        <ele>38.987205505371</ele>
        <time>2021-01-03T20:50:14.541Z</time>
      </trkpt>
      <trkpt lat="43.12712" lon="3.09639">
        <ele>39.019481658936</ele>
        <time>2021-01-03T20:50:23.695Z</time>
      </trkpt>
    </trkseg>
  </trk>
</gpx>